GEFSMW_prec_meanprecacc_006.txt.gz
Total_Precipitation_Accumulation
0.00 0.00 0.00 0.00 0.00 0.00 0.02 0.02 0.02 0.04 0.06 0.05 0.03 0.02 0.01 0.02 0.03 0.03 0.02 0.01 0.01 0.01 0.01 0.01 0.01 0.01 0.02 0.03 0.05 0.06 0.07 0.06 0.11 0.12 0.07 0.06 0.06 0.08 0.09 0.08 0.07 0.02 0.02
0.00 0.00 0.00 0.00 0.00 0.00 0.00 0.00 0.01 0.03 0.03 0.02 0.01 0.01 0.01 0.00 0.00 0.00 0.00 0.00 0.00 0.00 0.00 0.00 0.00 0.00 0.00 0.00 0.00 0.01 0.03 0.03 0.05 0.07 0.08 0.05 0.03 0.03 0.04 0.06 0.04 0.03 0.04
0.01 0.00 0.00 0.00 0.00 0.00 0.00 0.00 0.01 0.01 0.01 0.00 0.00 0.00 0.00 0.00 0.00 0.00 0.02 0.02 0.00 0.00 0.00 0.00 0.00 0.00 0.00 0.00 0.00 0.00 0.01 0.02 0.02 0.05 0.08 0.05 0.03 0.03 0.03 0.03 0.02 0.01 0.02
0.03 0.02 0.01 0.00 0.00 0.00 0.00 0.00 0.00 0.00 0.00 0.00 0.00 0.00 0.00 0.00 0.00 0.01 0.02 0.01 0.00 0.00 0.00 0.00 0.00 0.00 0.01 0.01 0.01 0.01 0.02 0.03 0.03 0.03 0.05 0.06 0.06 0.06 0.04 0.04 0.02 0.03 0.03
0.04 0.02 0.00 0.00 0.00 0.00 0.00 0.00 0.00 0.01 0.00 0.00 0.00 0.00 0.00 0.00 0.00 0.00 0.00 0.00 0.00 0.00 0.00 0.00 0.00 0.01 0.01 0.01 0.02 0.02 0.03 0.05 0.05 0.06 0.06 0.06 0.07 0.06 0.06 0.03 0.03 0.04 0.02
0.05 0.02 0.00 0.00 0.00 0.00 0.00 0.00 0.01 0.01 0.01 0.00 0.00 0.00 0.00 0.00 0.00 0.00 0.00 0.00 0.00 0.00 0.00 0.00 0.01 0.01 0.01 0.01 0.01 0.02 0.03 0.04 0.05 0.06 0.07 0.08 0.08 0.06 0.06 0.03 0.02 0.03 0.04
0.16 0.08 0.02 0.00 0.00 0.00 0.00 0.00 0.00 0.01 0.01 0.00 0.00 0.00 0.00 0.00 0.00 0.00 0.00 0.00 0.00 0.00 0.00 0.00 0.00 0.00 0.00 0.01 0.01 0.01 0.02 0.02 0.03 0.04 0.06 0.08 0.09 0.11 0.09 0.06 0.04 0.06 0.08
0.16 0.12 0.05 0.01 0.01 0.00 0.00 0.00 0.00 0.00 0.00 0.00 0.00 0.00 0.01 0.00 0.00 0.00 0.00 0.00 0.00 0.00 0.00 0.00 0.00 0.00 0.00 0.00 0.01 0.01 0.01 0.02 0.03 0.03 0.06 0.07 0.07 0.10 0.10 0.08 0.11 0.12 0.13
0.06 0.06 0.04 0.02 0.01 0.01 0.01 0.01 0.00 0.00 0.00 0.00 0.00 0.01 0.01 0.01 0.00 0.00 0.00 0.00 0.00 0.00 0.00 0.00 0.00 0.00 0.00 0.00 0.01 0.01 0.01 0.02 0.05 0.06 0.08 0.08 0.08 0.09 0.11 0.12 0.13 0.16 0.15
0.06 0.06 0.05 0.04 0.03 0.02 0.01 0.01 0.01 0.00 0.00 0.00 0.00 0.01 0.02 0.02 0.01 0.00 0.00 0.00 0.00 0.00 0.00 0.00 0.00 0.00 0.00 0.00 0.01 0.01 0.02 0.03 0.07 0.09 0.10 0.10 0.09 0.09 0.08 0.08 0.12 0.19 0.21
0.04 0.04 0.03 0.03 0.02 0.01 0.01 0.01 0.01 0.01 0.00 0.00 0.00 0.00 0.02 0.03 0.03 0.03 0.02 0.01 0.00 0.00 0.00 0.00 0.00 0.00 0.00 0.00 0.01 0.02 0.02 0.03 0.04 0.05 0.06 0.07 0.07 0.08 0.10 0.13 0.17 0.19 0.23
0.01 0.01 0.02 0.02 0.02 0.02 0.02 0.02 0.01 0.01 0.00 0.00 0.00 0.00 0.01 0.01 0.03 0.05 0.05 0.04 0.02 0.01 0.00 0.00 0.00 0.00 0.00 0.00 0.01 0.02 0.02 0.02 0.02 0.02 0.04 0.05 0.06 0.07 0.13 0.19 0.20 0.20 0.24
0.00 0.01 0.01 0.02 0.03 0.03 0.02 0.02 0.01 0.01 0.00 0.00 0.00 0.00 0.00 0.00 0.01 0.04 0.06 0.06 0.05 0.03 0.01 0.00 0.00 0.00 0.00 0.00 0.01 0.01 0.01 0.02 0.01 0.02 0.03 0.04 0.05 0.08 0.16 0.23 0.21 0.20 0.21
0.00 0.00 0.01 0.01 0.01 0.01 0.01 0.00 0.00 0.00 0.00 0.00 0.00 0.00 0.00 0.00 0.00 0.01 0.02 0.04 0.05 0.05 0.03 0.01 0.00 0.00 0.00 0.00 0.00 0.00 0.00 0.00 0.01 0.03 0.04 0.04 0.05 0.06 0.09 0.19 0.28 0.28 0.25
0.01 0.01 0.01 0.01 0.01 0.02 0.02 0.02 0.03 0.03 0.03 0.03 0.02 0.02 0.01 0.01 0.01 0.00 0.01 0.02 0.03 0.05 0.05 0.03 0.01 0.01 0.01 0.00 0.00 0.00 0.00 0.00 0.00 0.01 0.03 0.03 0.03 0.05 0.06 0.09 0.18 0.24 0.26
0.04 0.04 0.04 0.03 0.02 0.02 0.02 0.02 0.02 0.02 0.02 0.02 0.02 0.02 0.01 0.01 0.01 0.01 0.01 0.01 0.03 0.06 0.07 0.05 0.02 0.01 0.00 0.00 0.00 0.00 0.00 0.00 0.00 0.01 0.03 0.02 0.01 0.01 0.02 0.02 0.05 0.08 0.11
0.02 0.01 0.01 0.00 0.00 0.00 0.00 0.00 0.00 0.00 0.00 0.00 0.00 0.00 0.00 0.00 0.01 0.02 0.02 0.01 0.02 0.05 0.08 0.08 0.05 0.02 0.01 0.00 0.00 0.00 0.00 0.00 0.00 0.00 0.00 0.00 0.00 0.00 0.00 0.00 0.00 0.01 0.02
0.00 0.00 0.00 0.00 0.00 0.00 0.00 0.00 0.00 0.00 0.00 0.00 0.00 0.00 0.00 0.00 0.01 0.02 0.04 0.04 0.04 0.05 0.08 0.09 0.08 0.05 0.02 0.00 0.00 0.00 0.00 0.00 0.00 0.00 0.00 0.00 0.00 0.00 0.00 0.00 0.00 0.00 0.00
0.00 0.00 0.00 0.00 0.00 0.00 0.00 0.00 0.00 0.00 0.00 0.00 0.00 0.00 0.00 0.00 0.00 0.01 0.03 0.06 0.07 0.08 0.12 0.14 0.14 0.11 0.05 0.00 0.00 0.00 0.00 0.00 0.00 0.00 0.00 0.00 0.00 0.00 0.00 0.00 0.00 0.00 0.00
0.00 0.00 0.00 0.00 0.00 0.00 0.00 0.00 0.00 0.00 0.00 0.00 0.00 0.00 0.00 0.00 0.00 0.00 0.01 0.05 0.09 0.11 0.16 0.21 0.22 0.18 0.10 0.02 0.00 0.00 0.00 0.00 0.00 0.00 0.00 0.00 0.00 0.00 0.00 0.00 0.00 0.00 0.00
0.00 0.00 0.00 0.00 0.00 0.00 0.00 0.00 0.00 0.00 0.00 0.00 0.00 0.00 0.00 0.01 0.01 0.01 0.02 0.03 0.06 0.11 0.17 0.23 0.26 0.26 0.18 0.06 0.00 0.00 0.00 0.00 0.00 0.00 0.00 0.00 0.00 0.00 0.00 0.00 0.00 0.00 0.00
0.00 0.00 0.00 0.00 0.00 0.00 0.00 0.00 0.00 0.00 0.00 0.01 0.01 0.01 0.00 0.00 0.00 0.01 0.02 0.02 0.04 0.09 0.18 0.29 0.35 0.36 0.29 0.14 0.02 0.00 0.00 0.00 0.00 0.00 0.00 0.00 0.00 0.00 0.00 0.00 0.00 0.00 0.00
0.00 0.00 0.00 0.00 0.00 0.00 0.00 0.00 0.00 0.00 0.01 0.01 0.01 0.01 0.01 0.01 0.01 0.01 0.01 0.01 0.03 0.06 0.16 0.30 0.43 0.49 0.45 0.27 0.06 0.01 0.00 0.00 0.00 0.00 0.00 0.00 0.00 0.00 0.00 0.00 0.00 0.00 0.00
0.00 0.00 0.00 0.00 0.00 0.00 0.00 0.01 0.01 0.01 0.01 0.02 0.02 0.02 0.02 0.02 0.01 0.02 0.01 0.01 0.02 0.04 0.13 0.27 0.40 0.49 0.49 0.32 0.11 0.02 0.00 0.00 0.00 0.00 0.00 0.00 0.00 0.00 0.00 0.00 0.00 0.00 0.00
0.00 0.00 0.00 0.00 0.01 0.01 0.01 0.01 0.01 0.02 0.03 0.03 0.03 0.02 0.02 0.02 0.02 0.02 0.02 0.02 0.03 0.04 0.09 0.21 0.38 0.44 0.39 0.25 0.11 0.03 0.00 0.00 0.00 0.00 0.00 0.00 0.00 0.00 0.00 0.00 0.00 0.00 0.00
0.00 0.01 0.01 0.01 0.01 0.01 0.02 0.02 0.04 0.05 0.05 0.04 0.03 0.02 0.02 0.02 0.02 0.02 0.02 0.03 0.04 0.03 0.03 0.09 0.21 0.29 0.24 0.15 0.09 0.03 0.00 0.00 0.00 0.00 0.00 0.00 0.00 0.00 0.00 0.00 0.00 0.00 0.00

GEFSMW_prec_meanprecacc_012.txt.gz
Total_Precipitation_Accumulation
0.03 0.05 0.11 0.15 0.10 0.11 0.09 0.08 0.06 0.06 0.07 0.06 0.03 0.02 0.02 0.02 0.03 0.03 0.02 0.01 0.01 0.01 0.01 0.01 0.01 0.01 0.02 0.03 0.05 0.07 0.08 0.06 0.12 0.13 0.08 0.07 0.06 0.08 0.11 0.10 0.08 0.03 0.02
0.22 0.49 0.74 0.61 0.26 0.10 0.04 0.02 0.03 0.03 0.03 0.02 0.01 0.01 0.01 0.00 0.00 0.00 0.00 0.00 0.00 0.00 0.00 0.00 0.00 0.00 0.00 0.00 0.00 0.02 0.03 0.04 0.05 0.08 0.09 0.05 0.03 0.03 0.04 0.07 0.05 0.03 0.04
0.61 1.11 1.15 0.72 0.34 0.13 0.06 0.02 0.01 0.01 0.01 0.01 0.00 0.00 0.00 0.00 0.00 0.00 0.02 0.02 0.00 0.00 0.00 0.00 0.00 0.00 0.00 0.01 0.01 0.01 0.02 0.03 0.03 0.05 0.09 0.06 0.03 0.03 0.04 0.04 0.03 0.04 0.05
0.56 0.82 0.81 0.47 0.27 0.18 0.16 0.07 0.01 0.01 0.00 0.00 0.00 0.00 0.00 0.00 0.00 0.01 0.02 0.01 0.00 0.00 0.00 0.00 0.00 0.01 0.01 0.02 0.02 0.02 0.04 0.05 0.05 0.06 0.09 0.10 0.10 0.09 0.06 0.04 0.03 0.07 0.06
0.42 0.38 0.33 0.26 0.23 0.22 0.22 0.15 0.07 0.08 0.05 0.03 0.03 0.02 0.01 0.00 0.00 0.00 0.00 0.00 0.00 0.00 0.00 0.00 0.01 0.01 0.01 0.02 0.02 0.03 0.05 0.07 0.09 0.09 0.10 0.13 0.16 0.16 0.13 0.06 0.06 0.09 0.05
0.40 0.33 0.24 0.19 0.18 0.17 0.15 0.12 0.14 0.22 0.17 0.12 0.08 0.09 0.07 0.04 0.02 0.01 0.01 0.00 0.00 0.00 0.00 0.00 0.01 0.01 0.01 0.01 0.02 0.03 0.05 0.07 0.09 0.11 0.12 0.14 0.15 0.16 0.19 0.12 0.09 0.10 0.08
0.44 0.41 0.30 0.21 0.16 0.14 0.10 0.06 0.07 0.13 0.14 0.10 0.09 0.12 0.14 0.11 0.07 0.04 0.02 0.02 0.00 0.00 0.00 0.00 0.00 0.00 0.00 0.01 0.01 0.02 0.03 0.04 0.07 0.09 0.10 0.14 0.15 0.18 0.20 0.16 0.14 0.19 0.21
0.24 0.24 0.18 0.13 0.08 0.06 0.04 0.03 0.02 0.03 0.04 0.05 0.07 0.10 0.13 0.08 0.07 0.12 0.08 0.04 0.02 0.00 0.00 0.00 0.00 0.00 0.00 0.00 0.01 0.01 0.01 0.03 0.06 0.06 0.12 0.14 0.12 0.17 0.17 0.15 0.21 0.26 0.31
0.08 0.10 0.10 0.07 0.06 0.04 0.03 0.03 0.02 0.01 0.01 0.02 0.05 0.08 0.13 0.13 0.11 0.12 0.11 0.08 0.07 0.03 0.02 0.01 0.00 0.00 0.00 0.00 0.01 0.01 0.02 0.04 0.07 0.11 0.15 0.17 0.17 0.18 0.21 0.23 0.28 0.33 0.31
0.07 0.07 0.06 0.06 0.05 0.04 0.04 0.04 0.03 0.02 0.02 0.02 0.02 0.05 0.11 0.15 0.14 0.13 0.14 0.14 0.12 0.08 0.05 0.03 0.02 0.01 0.01 0.01 0.01 0.02 0.04 0.06 0.12 0.16 0.18 0.22 0.22 0.23 0.25 0.26 0.33 0.42 0.41
0.05 0.04 0.04 0.04 0.03 0.03 0.03 0.03 0.03 0.03 0.02 0.02 0.02 0.02 0.05 0.09 0.14 0.17 0.18 0.18 0.16 0.14 0.10 0.08 0.07 0.04 0.02 0.01 0.02 0.04 0.04 0.05 0.08 0.10 0.14 0.19 0.23 0.26 0.28 0.35 0.40 0.44 0.50
0.01 0.01 0.02 0.02 0.02 0.03 0.03 0.03 0.03 0.03 0.03 0.02 0.02 0.01 0.01 0.03 0.06 0.10 0.14 0.16 0.15 0.14 0.13 0.12 0.10 0.06 0.04 0.02 0.02 0.03 0.03 0.04 0.04 0.05 0.09 0.12 0.14 0.20 0.26 0.34 0.39 0.44 0.54
0.00 0.01 0.01 0.02 0.03 0.03 0.03 0.02 0.02 0.01 0.01 0.01 0.01 0.00 0.00 0.00 0.01 0.04 0.07 0.10 0.12 0.13 0.13 0.13 0.10 0.08 0.06 0.04 0.03 0.03 0.03 0.03 0.03 0.04 0.07 0.08 0.11 0.16 0.21 0.30 0.33 0.37 0.52
0.00 0.00 0.01 0.01 0.01 0.01 0.01 0.00 0.00 0.00 0.00 0.00 0.01 0.01 0.01 0.01 0.01 0.01 0.03 0.05 0.08 0.11 0.12 0.12 0.11 0.10 0.08 0.05 0.04 0.02 0.01 0.01 0.03 0.06 0.07 0.08 0.09 0.11 0.11 0.21 0.33 0.39 0.46
0.01 0.01 0.01 0.01 0.01 0.02 0.02 0.02 0.03 0.03 0.03 0.04 0.04 0.05 0.04 0.04 0.04 0.04 0.03 0.04 0.06 0.09 0.12 0.12 0.12 0.11 0.09 0.06 0.05 0.04 0.02 0.01 0.01 0.03 0.06 0.04 0.05 0.06 0.07 0.10 0.22 0.35 0.49
0.04 0.04 0.04 0.03 0.02 0.02 0.02 0.02 0.02 0.02 0.03 0.04 0.04 0.03 0.03 0.03 0.03 0.03 0.03 0.03 0.05 0.09 0.12 0.13 0.13 0.12 0.10 0.07 0.04 0.03 0.02 0.01 0.01 0.03 0.06 0.05 0.02 0.01 0.02 0.03 0.09 0.18 0.32
0.02 0.01 0.01 0.00 0.00 0.00 0.00 0.00 0.00 0.00 0.00 0.01 0.01 0.01 0.01 0.02 0.02 0.03 0.02 0.02 0.04 0.07 0.12 0.14 0.15 0.14 0.14 0.11 0.06 0.04 0.02 0.02 0.01 0.02 0.03 0.03 0.02 0.01 0.00 0.01 0.02 0.05 0.12
0.00 0.00 0.00 0.00 0.00 0.00 0.00 0.00 0.00 0.00 0.00 0.00 0.00 0.00 0.00 0.01 0.02 0.03 0.05 0.05 0.05 0.07 0.10 0.13 0.15 0.17 0.17 0.14 0.09 0.06 0.03 0.02 0.01 0.01 0.01 0.03 0.04 0.03 0.01 0.01 0.01 0.01 0.03
0.00 0.00 0.00 0.00 0.00 0.00 0.00 0.00 0.00 0.00 0.00 0.00 0.00 0.00 0.00 0.01 0.01 0.02 0.05 0.09 0.10 0.10 0.13 0.16 0.18 0.20 0.21 0.16 0.11 0.07 0.04 0.02 0.01 0.01 0.01 0.02 0.03 0.01 0.00 0.01 0.01 0.01 0.01
0.00 0.00 0.00 0.00 0.00 0.00 0.00 0.00 0.00 0.00 0.01 0.01 0.01 0.01 0.01 0.02 0.02 0.02 0.04 0.08 0.12 0.14 0.17 0.22 0.26 0.28 0.27 0.21 0.14 0.11 0.06 0.04 0.03 0.03 0.02 0.01 0.01 0.00 0.01 0.02 0.01 0.00 0.00
0.00 0.00 0.00 0.00 0.00 0.00 0.00 0.01 0.02 0.02 0.02 0.02 0.02 0.02 0.02 0.03 0.03 0.04 0.05 0.07 0.09 0.14 0.21 0.26 0.30 0.35 0.38 0.33 0.20 0.15 0.12 0.08 0.05 0.03 0.02 0.01 0.00 0.00 0.00 0.01 0.01 0.00 0.00
0.00 0.00 0.00 0.00 0.00 0.00 0.02 0.03 0.04 0.03 0.03 0.03 0.03 0.03 0.04 0.03 0.02 0.05 0.07 0.08 0.10 0.14 0.22 0.33 0.41 0.46 0.49 0.47 0.33 0.20 0.16 0.14 0.10 0.05 0.02 0.00 0.00 0.00 0.00 0.00 0.00 0.00 0.00
0.00 0.00 0.00 0.00 0.00 0.01 0.04 0.04 0.03 0.03 0.04 0.05 0.05 0.05 0.05 0.06 0.06 0.07 0.07 0.07 0.09 0.11 0.19 0.36 0.53 0.61 0.61 0.56 0.45 0.29 0.20 0.18 0.15 0.07 0.03 0.01 0.00 0.00 0.00 0.00 0.00 0.00 0.00
0.00 0.00 0.00 0.01 0.02 0.03 0.04 0.04 0.04 0.05 0.07 0.07 0.08 0.08 0.08 0.07 0.07 0.09 0.08 0.07 0.07 0.09 0.18 0.35 0.51 0.63 0.63 0.53 0.42 0.32 0.25 0.23 0.20 0.11 0.04 0.01 0.00 0.00 0.00 0.00 0.00 0.00 0.00
0.00 0.01 0.02 0.04 0.05 0.04 0.04 0.04 0.06 0.10 0.12 0.11 0.11 0.10 0.10 0.09 0.09 0.09 0.09 0.08 0.08 0.09 0.14 0.30 0.51 0.59 0.53 0.42 0.34 0.29 0.27 0.25 0.23 0.14 0.06 0.01 0.00 0.00 0.00 0.00 0.00 0.00 0.00
0.02 0.04 0.07 0.09 0.08 0.08 0.07 0.07 0.11 0.16 0.18 0.17 0.14 0.14 0.13 0.12 0.10 0.10 0.09 0.07 0.06 0.05 0.04 0.11 0.26 0.38 0.35 0.29 0.26 0.24 0.22 0.20 0.16 0.10 0.05 0.01 0.00 0.00 0.00 0.00 0.00 0.00 0.00

GEFSMW_prec_meanprecacc_018.txt.gz
Total_Precipitation_Accumulation
0.24 0.47 0.91 1.60 2.43 3.14 3.22 2.60 1.99 1.57 1.17 0.81 0.41 0.17 0.09 0.05 0.05 0.04 0.02 0.01 0.01 0.01 0.01 0.01 0.01 0.01 0.02 0.03 0.05 0.07 0.08 0.06 0.12 0.13 0.08 0.07 0.06 0.09 0.11 0.10 0.08 0.04 0.03
0.57 1.09 1.92 2.47 2.50 2.42 2.00 1.52 1.23 1.04 0.76 0.47 0.22 0.12 0.06 0.03 0.01 0.01 0.00 0.00 0.00 0.00 0.00 0.00 0.00 0.00 0.00 0.00 0.00 0.02 0.03 0.04 0.05 0.08 0.09 0.05 0.03 0.04 0.04 0.07 0.06 0.04 0.06
1.10 1.75 2.18 2.08 1.55 1.07 0.87 0.78 0.70 0.46 0.29 0.22 0.11 0.05 0.03 0.02 0.02 0.01 0.02 0.02 0.00 0.00 0.00 0.00 0.00 0.00 0.00 0.01 0.01 0.01 0.02 0.03 0.03 0.06 0.10 0.07 0.03 0.03 0.04 0.04 0.05 0.06 0.07
0.80 1.10 1.23 0.98 0.82 0.71 0.62 0.63 0.54 0.30 0.21 0.15 0.08 0.07 0.06 0.05 0.04 0.03 0.03 0.02 0.01 0.00 0.00 0.00 0.00 0.01 0.01 0.02 0.02 0.02 0.04 0.05 0.05 0.06 0.10 0.11 0.12 0.11 0.06 0.04 0.04 0.09 0.10
0.46 0.44 0.44 0.39 0.38 0.40 0.43 0.49 0.48 0.39 0.30 0.23 0.16 0.14 0.11 0.09 0.08 0.06 0.05 0.03 0.02 0.01 0.00 0.00 0.01 0.01 0.01 0.02 0.02 0.03 0.05 0.07 0.09 0.09 0.11 0.14 0.17 0.18 0.15 0.06 0.06 0.10 0.08
0.41 0.34 0.26 0.22 0.23 0.25 0.26 0.32 0.42 0.50 0.47 0.41 0.32 0.26 0.19 0.15 0.12 0.09 0.08 0.05 0.02 0.01 0.01 0.01 0.01 0.01 0.01 0.01 0.02 0.03 0.05 0.07 0.09 0.11 0.12 0.15 0.15 0.16 0.20 0.13 0.10 0.11 0.08
0.45 0.42 0.30 0.22 0.18 0.16 0.15 0.13 0.14 0.23 0.28 0.28 0.29 0.30 0.28 0.23 0.17 0.13 0.09 0.08 0.05 0.04 0.03 0.02 0.02 0.02 0.02 0.01 0.01 0.02 0.03 0.04 0.07 0.09 0.11 0.15 0.15 0.19 0.21 0.17 0.14 0.20 0.21
0.25 0.25 0.19 0.13 0.08 0.06 0.05 0.04 0.03 0.05 0.07 0.09 0.13 0.17 0.21 0.17 0.15 0.20 0.15 0.15 0.17 0.17 0.14 0.08 0.04 0.03 0.02 0.01 0.01 0.01 0.01 0.03 0.06 0.06 0.12 0.14 0.12 0.17 0.17 0.16 0.23 0.27 0.31
0.08 0.10 0.10 0.07 0.06 0.04 0.03 0.03 0.02 0.01 0.02 0.03 0.05 0.09 0.14 0.15 0.14 0.16 0.16 0.16 0.21 0.22 0.19 0.14 0.09 0.05 0.03 0.02 0.02 0.01 0.02 0.04 0.07 0.11 0.15 0.17 0.17 0.19 0.22 0.24 0.30 0.35 0.32
0.07 0.07 0.06 0.06 0.05 0.04 0.04 0.04 0.03 0.02 0.02 0.02 0.03 0.05 0.11 0.15 0.15 0.14 0.17 0.18 0.18 0.18 0.16 0.14 0.10 0.07 0.05 0.05 0.04 0.03 0.04 0.07 0.12 0.16 0.19 0.22 0.22 0.23 0.26 0.27 0.35 0.45 0.43
0.05 0.04 0.04 0.04 0.03 0.03 0.03 0.03 0.03 0.03 0.02 0.02 0.02 0.02 0.05 0.09 0.14 0.17 0.18 0.19 0.18 0.16 0.14 0.13 0.12 0.09 0.06 0.05 0.06 0.06 0.05 0.06 0.08 0.10 0.14 0.19 0.23 0.26 0.29 0.36 0.42 0.45 0.52
0.01 0.01 0.02 0.02 0.02 0.03 0.03 0.03 0.04 0.03 0.03 0.02 0.02 0.01 0.01 0.03 0.06 0.10 0.14 0.16 0.15 0.14 0.14 0.13 0.11 0.08 0.07 0.07 0.07 0.07 0.05 0.05 0.05 0.05 0.09 0.12 0.14 0.20 0.26 0.34 0.39 0.45 0.57
0.00 0.01 0.01 0.02 0.03 0.03 0.03 0.02 0.02 0.02 0.01 0.01 0.01 0.00 0.00 0.00 0.01 0.04 0.07 0.10 0.12 0.13 0.13 0.13 0.11 0.09 0.07 0.07 0.07 0.07 0.06 0.06 0.05 0.06 0.08 0.08 0.11 0.16 0.21 0.30 0.33 0.38 0.55
0.00 0.00 0.01 0.01 0.01 0.01 0.01 0.00 0.00 0.00 0.00 0.01 0.01 0.01 0.01 0.01 0.01 0.01 0.03 0.05 0.08 0.11 0.12 0.12 0.11 0.10 0.08 0.06 0.06 0.06 0.05 0.05 0.06 0.09 0.09 0.08 0.10 0.11 0.11 0.21 0.33 0.40 0.48
0.01 0.01 0.01 0.01 0.01 0.02 0.02 0.02 0.03 0.03 0.03 0.04 0.05 0.05 0.05 0.05 0.04 0.04 0.03 0.04 0.06 0.09 0.12 0.12 0.12 0.11 0.10 0.07 0.06 0.07 0.06 0.05 0.05 0.07 0.09 0.06 0.05 0.06 0.07 0.10 0.22 0.35 0.51
0.04 0.04 0.04 0.03 0.02 0.02 0.02 0.02 0.02 0.02 0.03 0.04 0.04 0.04 0.04 0.04 0.04 0.03 0.03 0.04 0.05 0.09 0.12 0.13 0.13 0.13 0.10 0.08 0.06 0.06 0.06 0.06 0.06 0.07 0.09 0.07 0.02 0.01 0.02 0.03 0.09 0.19 0.33
0.02 0.01 0.01 0.00 0.00 0.00 0.00 0.00 0.00 0.00 0.00 0.01 0.01 0.01 0.01 0.02 0.03 0.03 0.03 0.03 0.05 0.08 0.13 0.15 0.15 0.15 0.15 0.12 0.08 0.06 0.06 0.06 0.07 0.07 0.07 0.06 0.03 0.02 0.00 0.01 0.02 0.05 0.13
0.00 0.00 0.00 0.00 0.00 0.00 0.00 0.00 0.00 0.00 0.00 0.00 0.00 0.00 0.01 0.01 0.02 0.04 0.05 0.06 0.06 0.08 0.12 0.14 0.16 0.17 0.17 0.14 0.10 0.08 0.07 0.08 0.08 0.08 0.07 0.07 0.06 0.03 0.01 0.01 0.01 0.02 0.04
0.00 0.00 0.00 0.00 0.00 0.00 0.00 0.00 0.00 0.00 0.00 0.01 0.01 0.01 0.01 0.01 0.01 0.02 0.06 0.09 0.11 0.10 0.14 0.17 0.19 0.21 0.21 0.17 0.11 0.09 0.08 0.09 0.10 0.10 0.09 0.08 0.06 0.02 0.01 0.01 0.01 0.01 0.02
0.00 0.00 0.00 0.00 0.00 0.00 0.00 0.01 0.01 0.02 0.02 0.03 0.03 0.03 0.03 0.04 0.03 0.03 0.05 0.08 0.12 0.14 0.18 0.22 0.26 0.28 0.27 0.22 0.15 0.12 0.09 0.10 0.12 0.14 0.14 0.11 0.05 0.02 0.01 0.02 0.01 0.00 0.00
0.00 0.00 0.00 0.00 0.00 0.00 0.01 0.03 0.05 0.06 0.06 0.07 0.07 0.06 0.06 0.06 0.05 0.05 0.06 0.07 0.10 0.15 0.21 0.27 0.31 0.36 0.39 0.33 0.20 0.15 0.14 0.14 0.16 0.18 0.18 0.14 0.09 0.04 0.02 0.02 0.02 0.00 0.00
0.00 0.00 0.00 0.00 0.00 0.01 0.04 0.08 0.09 0.08 0.09 0.09 0.09 0.08 0.07 0.06 0.04 0.07 0.08 0.09 0.11 0.15 0.22 0.34 0.42 0.46 0.49 0.47 0.33 0.20 0.17 0.20 0.21 0.24 0.25 0.19 0.13 0.07 0.03 0.02 0.01 0.00 0.00
0.00 0.00 0.00 0.01 0.02 0.03 0.07 0.11 0.10 0.10 0.11 0.11 0.11 0.09 0.09 0.09 0.10 0.10 0.09 0.08 0.10 0.12 0.20 0.37 0.53 0.62 0.62 0.56 0.45 0.29 0.21 0.23 0.26 0.28 0.34 0.28 0.18 0.10 0.05 0.02 0.00 0.00 0.00
0.00 0.00 0.01 0.03 0.05 0.06 0.07 0.09 0.10 0.12 0.15 0.15 0.14 0.13 0.13 0.12 0.12 0.14 0.12 0.10 0.08 0.11 0.19 0.37 0.53 0.64 0.65 0.55 0.43 0.33 0.27 0.28 0.31 0.32 0.38 0.39 0.27 0.15 0.07 0.03 0.01 0.00 0.00
0.01 0.02 0.05 0.08 0.09 0.08 0.07 0.08 0.11 0.17 0.20 0.19 0.17 0.17 0.18 0.16 0.15 0.15 0.14 0.11 0.10 0.11 0.15 0.32 0.53 0.61 0.55 0.44 0.36 0.31 0.30 0.29 0.34 0.37 0.44 0.49 0.37 0.21 0.09 0.03 0.01 0.00 0.00
0.04 0.08 0.11 0.13 0.13 0.11 0.10 0.11 0.15 0.22 0.26 0.25 0.21 0.21 0.20 0.19 0.17 0.15 0.13 0.09 0.08 0.06 0.05 0.12 0.27 0.40 0.37 0.30 0.28 0.27 0.27 0.25 0.26 0.34 0.45 0.51 0.40 0.21 0.09 0.02 0.01 0.00 0.00

GEFSMW_prec_meanprecacc_024.txt.gz
Total_Precipitation_Accumulation
0.34 0.56 0.99 1.66 2.47 3.19 3.34 2.93 2.49 2.21 1.94 1.63 1.14 0.80 0.62 0.51 0.39 0.28 0.21 0.15 0.10 0.07 0.05 0.02 0.01 0.02 0.02 0.03 0.05 0.07 0.08 0.06 0.12 0.13 0.08 0.07 0.06 0.09 0.11 0.10 0.08 0.04 0.03
0.62 1.14 1.96 2.48 2.51 2.42 2.06 1.67 1.48 1.35 1.08 0.80 0.55 0.43 0.36 0.29 0.22 0.17 0.15 0.12 0.08 0.06 0.03 0.01 0.00 0.00 0.00 0.00 0.00 0.02 0.03 0.04 0.05 0.08 0.09 0.05 0.03 0.04 0.04 0.07 0.06 0.04 0.06
1.13 1.77 2.19 2.09 1.55 1.07 0.88 0.80 0.74 0.54 0.39 0.34 0.30 0.25 0.21 0.19 0.16 0.14 0.15 0.12 0.07 0.05 0.03 0.01 0.00 0.00 0.00 0.01 0.01 0.01 0.02 0.03 0.03 0.06 0.10 0.07 0.03 0.03 0.04 0.04 0.05 0.06 0.07
0.82 1.11 1.24 0.99 0.82 0.71 0.63 0.65 0.57 0.34 0.27 0.22 0.18 0.16 0.15 0.16 0.16 0.14 0.14 0.13 0.10 0.07 0.05 0.03 0.01 0.01 0.01 0.02 0.02 0.02 0.04 0.05 0.05 0.06 0.10 0.11 0.12 0.11 0.06 0.04 0.04 0.09 0.10
0.48 0.45 0.44 0.40 0.39 0.40 0.43 0.51 0.49 0.42 0.34 0.28 0.22 0.20 0.17 0.17 0.17 0.17 0.17 0.17 0.16 0.13 0.10 0.08 0.06 0.03 0.02 0.02 0.02 0.03 0.05 0.07 0.09 0.09 0.11 0.14 0.17 0.18 0.15 0.06 0.06 0.10 0.08
0.42 0.34 0.26 0.22 0.24 0.25 0.27 0.33 0.43 0.52 0.49 0.43 0.34 0.29 0.23 0.20 0.19 0.18 0.18 0.18 0.16 0.15 0.14 0.13 0.11 0.09 0.05 0.03 0.02 0.03 0.05 0.07 0.09 0.11 0.12 0.15 0.15 0.17 0.20 0.13 0.10 0.11 0.08
0.45 0.42 0.30 0.22 0.18 0.17 0.15 0.13 0.14 0.24 0.28 0.28 0.30 0.31 0.29 0.25 0.20 0.17 0.14 0.16 0.15 0.16 0.15 0.14 0.14 0.13 0.11 0.07 0.04 0.03 0.03 0.05 0.07 0.09 0.11 0.15 0.15 0.19 0.21 0.17 0.14 0.20 0.21
0.25 0.25 0.19 0.13 0.08 0.06 0.05 0.04 0.03 0.05 0.07 0.09 0.13 0.17 0.21 0.17 0.15 0.20 0.16 0.17 0.21 0.22 0.21 0.15 0.13 0.14 0.14 0.12 0.08 0.05 0.03 0.03 0.06 0.06 0.12 0.14 0.12 0.17 0.17 0.17 0.23 0.27 0.32
0.09 0.10 0.10 0.08 0.06 0.04 0.03 0.03 0.02 0.01 0.02 0.03 0.05 0.09 0.14 0.15 0.14 0.16 0.16 0.16 0.22 0.23 0.21 0.17 0.14 0.13 0.14 0.14 0.12 0.09 0.07 0.06 0.08 0.11 0.15 0.17 0.17 0.19 0.22 0.25 0.30 0.35 0.32
0.07 0.07 0.06 0.06 0.05 0.04 0.04 0.04 0.03 0.02 0.02 0.02 0.03 0.05 0.11 0.15 0.15 0.14 0.17 0.18 0.18 0.18 0.17 0.16 0.13 0.11 0.12 0.13 0.13 0.12 0.12 0.12 0.14 0.17 0.19 0.22 0.22 0.23 0.26 0.27 0.35 0.45 0.43
0.05 0.04 0.04 0.04 0.04 0.03 0.03 0.03 0.03 0.03 0.02 0.02 0.02 0.02 0.05 0.09 0.14 0.17 0.18 0.19 0.18 0.16 0.14 0.14 0.13 0.12 0.11 0.13 0.14 0.15 0.15 0.13 0.14 0.13 0.15 0.20 0.24 0.26 0.29 0.36 0.42 0.45 0.53
0.01 0.01 0.02 0.02 0.02 0.03 0.03 0.04 0.04 0.03 0.03 0.02 0.02 0.01 0.01 0.03 0.06 0.10 0.14 0.16 0.15 0.14 0.14 0.13 0.12 0.09 0.09 0.12 0.16 0.18 0.17 0.16 0.15 0.13 0.15 0.15 0.17 0.21 0.26 0.34 0.39 0.45 0.57
0.00 0.01 0.01 0.02 0.03 0.03 0.03 0.02 0.02 0.02 0.01 0.01 0.01 0.00 0.00 0.00 0.01 0.04 0.07 0.10 0.12 0.13 0.13 0.13 0.11 0.09 0.08 0.08 0.11 0.15 0.18 0.20 0.19 0.18 0.18 0.16 0.16 0.18 0.23 0.31 0.33 0.38 0.55
0.00 0.00 0.01 0.01 0.01 0.01 0.01 0.00 0.00 0.00 0.00 0.01 0.01 0.01 0.01 0.01 0.01 0.01 0.03 0.05 0.08 0.11 0.12 0.12 0.11 0.10 0.08 0.06 0.06 0.07 0.10 0.14 0.18 0.23 0.22 0.19 0.17 0.16 0.14 0.23 0.35 0.40 0.48
0.01 0.01 0.01 0.01 0.01 0.02 0.02 0.02 0.03 0.03 0.03 0.04 0.05 0.05 0.05 0.05 0.04 0.04 0.03 0.04 0.06 0.09 0.12 0.12 0.12 0.11 0.10 0.07 0.06 0.07 0.06 0.07 0.10 0.15 0.20 0.19 0.16 0.14 0.12 0.13 0.23 0.36 0.51
0.04 0.04 0.04 0.03 0.02 0.02 0.02 0.02 0.02 0.02 0.03 0.04 0.04 0.04 0.04 0.04 0.04 0.04 0.03 0.04 0.06 0.09 0.13 0.13 0.13 0.13 0.10 0.08 0.06 0.06 0.06 0.07 0.07 0.10 0.16 0.16 0.15 0.11 0.09 0.08 0.11 0.19 0.33
0.02 0.01 0.01 0.00 0.00 0.00 0.00 0.00 0.00 0.00 0.01 0.01 0.01 0.02 0.02 0.03 0.04 0.04 0.04 0.04 0.06 0.09 0.13 0.15 0.15 0.15 0.15 0.12 0.08 0.06 0.06 0.07 0.07 0.08 0.10 0.11 0.10 0.11 0.08 0.05 0.05 0.06 0.13
0.00 0.00 0.00 0.00 0.00 0.00 0.00 0.00 0.00 0.00 0.00 0.01 0.01 0.02 0.03 0.04 0.05 0.08 0.09 0.08 0.09 0.10 0.13 0.14 0.16 0.17 0.18 0.14 0.10 0.08 0.07 0.08 0.08 0.09 0.09 0.10 0.10 0.09 0.08 0.06 0.04 0.03 0.04
0.00 0.00 0.00 0.00 0.00 0.00 0.00 0.00 0.00 0.00 0.01 0.01 0.02 0.03 0.04 0.06 0.08 0.09 0.12 0.15 0.16 0.15 0.18 0.19 0.20 0.21 0.21 0.17 0.11 0.09 0.08 0.09 0.10 0.11 0.12 0.13 0.11 0.08 0.07 0.07 0.04 0.02 0.02
0.00 0.00 0.00 0.00 0.00 0.00 0.00 0.01 0.01 0.02 0.03 0.04 0.05 0.06 0.08 0.11 0.13 0.14 0.16 0.18 0.21 0.21 0.23 0.26 0.28 0.29 0.28 0.22 0.15 0.12 0.09 0.11 0.12 0.15 0.16 0.16 0.13 0.10 0.08 0.07 0.05 0.02 0.01
0.00 0.00 0.00 0.00 0.00 0.00 0.02 0.04 0.05 0.07 0.07 0.08 0.08 0.09 0.11 0.14 0.16 0.19 0.21 0.22 0.22 0.23 0.26 0.30 0.32 0.36 0.39 0.33 0.20 0.16 0.14 0.14 0.16 0.19 0.20 0.20 0.18 0.15 0.11 0.08 0.06 0.03 0.01
0.00 0.00 0.00 0.00 0.00 0.01 0.05 0.08 0.10 0.09 0.10 0.10 0.10 0.10 0.11 0.11 0.13 0.17 0.21 0.23 0.27 0.29 0.31 0.38 0.44 0.47 0.50 0.47 0.33 0.20 0.18 0.20 0.22 0.24 0.27 0.26 0.26 0.23 0.19 0.13 0.08 0.04 0.02
0.00 0.00 0.00 0.01 0.02 0.03 0.08 0.12 0.11 0.10 0.12 0.13 0.12 0.12 0.13 0.14 0.16 0.18 0.18 0.20 0.22 0.23 0.28 0.42 0.56 0.63 0.63 0.56 0.45 0.29 0.21 0.23 0.26 0.28 0.37 0.40 0.37 0.35 0.30 0.22 0.14 0.07 0.04
0.00 0.00 0.01 0.04 0.05 0.06 0.08 0.09 0.11 0.13 0.16 0.17 0.16 0.16 0.18 0.18 0.19 0.22 0.22 0.21 0.20 0.20 0.26 0.41 0.55 0.65 0.65 0.55 0.43 0.33 0.27 0.28 0.31 0.32 0.42 0.52 0.54 0.52 0.46 0.35 0.21 0.10 0.06
0.01 0.02 0.05 0.09 0.10 0.08 0.08 0.08 0.12 0.18 0.22 0.21 0.20 0.21 0.22 0.22 0.21 0.22 0.22 0.21 0.22 0.21 0.23 0.36 0.55 0.62 0.55 0.45 0.36 0.31 0.30 0.29 0.34 0.38 0.48 0.63 0.69 0.72 0.64 0.48 0.29 0.15 0.09
0.04 0.08 0.12 0.14 0.14 0.12 0.11 0.11 0.16 0.24 0.28 0.27 0.24 0.24 0.23 0.22 0.22 0.21 0.19 0.16 0.15 0.13 0.10 0.15 0.29 0.40 0.37 0.31 0.28 0.27 0.27 0.25 0.26 0.34 0.48 0.67 0.74 0.77 0.72 0.56 0.35 0.18 0.09

GEFSMW_prec_meanprecacc_030.txt.gz
Total_Precipitation_Accumulation
0.35 0.57 1.00 1.67 2.48 3.19 3.35 2.93 2.49 2.21 1.95 1.63 1.15 0.84 0.72 0.69 0.63 0.53 0.46 0.39 0.33 0.29 0.24 0.18 0.14 0.10 0.09 0.09 0.11 0.13 0.13 0.12 0.18 0.19 0.14 0.12 0.11 0.13 0.15 0.14 0.11 0.05 0.04
0.62 1.15 1.96 2.48 2.51 2.43 2.06 1.67 1.48 1.36 1.09 0.80 0.56 0.45 0.40 0.37 0.33 0.31 0.31 0.29 0.25 0.23 0.19 0.16 0.14 0.09 0.06 0.04 0.04 0.05 0.06 0.06 0.07 0.10 0.11 0.06 0.05 0.04 0.05 0.08 0.07 0.05 0.06
1.13 1.78 2.19 2.09 1.55 1.07 0.88 0.80 0.74 0.54 0.39 0.35 0.31 0.27 0.24 0.24 0.22 0.21 0.22 0.22 0.18 0.17 0.15 0.13 0.11 0.09 0.07 0.06 0.05 0.04 0.05 0.05 0.04 0.07 0.11 0.08 0.03 0.03 0.04 0.04 0.05 0.06 0.07
0.82 1.11 1.24 0.99 0.82 0.71 0.63 0.65 0.57 0.34 0.27 0.23 0.19 0.18 0.17 0.19 0.19 0.18 0.19 0.18 0.16 0.16 0.14 0.11 0.08 0.06 0.06 0.07 0.06 0.04 0.06 0.07 0.06 0.06 0.10 0.11 0.12 0.11 0.06 0.04 0.04 0.09 0.10
0.48 0.45 0.44 0.40 0.39 0.40 0.43 0.51 0.50 0.42 0.34 0.28 0.22 0.20 0.18 0.17 0.18 0.19 0.19 0.20 0.20 0.18 0.17 0.17 0.14 0.10 0.06 0.06 0.05 0.05 0.06 0.08 0.09 0.10 0.11 0.14 0.17 0.18 0.15 0.06 0.06 0.10 0.08
0.42 0.34 0.26 0.22 0.24 0.25 0.27 0.33 0.43 0.52 0.49 0.43 0.34 0.29 0.23 0.20 0.19 0.18 0.19 0.18 0.18 0.18 0.17 0.18 0.18 0.17 0.15 0.10 0.06 0.05 0.07 0.09 0.11 0.11 0.12 0.15 0.15 0.17 0.20 0.13 0.10 0.11 0.08
0.45 0.42 0.31 0.23 0.18 0.17 0.15 0.13 0.15 0.24 0.28 0.28 0.30 0.31 0.29 0.25 0.20 0.17 0.15 0.16 0.15 0.16 0.16 0.16 0.17 0.18 0.18 0.17 0.13 0.09 0.07 0.08 0.10 0.10 0.12 0.15 0.15 0.19 0.21 0.17 0.15 0.20 0.21
0.25 0.25 0.19 0.13 0.08 0.06 0.06 0.04 0.04 0.05 0.07 0.09 0.13 0.17 0.21 0.17 0.15 0.20 0.17 0.17 0.21 0.22 0.21 0.16 0.14 0.16 0.17 0.18 0.16 0.14 0.12 0.10 0.10 0.09 0.14 0.15 0.12 0.18 0.17 0.17 0.23 0.27 0.32
0.09 0.10 0.10 0.08 0.06 0.04 0.03 0.03 0.02 0.02 0.02 0.03 0.05 0.09 0.15 0.15 0.14 0.16 0.17 0.16 0.22 0.23 0.21 0.18 0.14 0.14 0.15 0.16 0.17 0.16 0.17 0.17 0.17 0.17 0.20 0.21 0.20 0.20 0.22 0.25 0.31 0.36 0.32
0.07 0.07 0.06 0.06 0.05 0.04 0.04 0.04 0.03 0.02 0.02 0.02 0.03 0.05 0.11 0.15 0.15 0.14 0.17 0.18 0.18 0.18 0.17 0.16 0.13 0.11 0.12 0.14 0.15 0.17 0.21 0.23 0.27 0.30 0.31 0.31 0.28 0.27 0.28 0.29 0.36 0.45 0.43
0.05 0.04 0.04 0.04 0.04 0.03 0.03 0.03 0.03 0.03 0.02 0.02 0.02 0.02 0.05 0.09 0.14 0.17 0.18 0.19 0.18 0.17 0.14 0.14 0.13 0.12 0.11 0.13 0.15 0.18 0.20 0.23 0.28 0.33 0.35 0.35 0.36 0.36 0.35 0.39 0.43 0.46 0.53
0.01 0.01 0.02 0.02 0.02 0.03 0.03 0.04 0.04 0.03 0.03 0.02 0.02 0.01 0.01 0.03 0.06 0.10 0.14 0.16 0.15 0.14 0.14 0.13 0.12 0.10 0.10 0.12 0.16 0.19 0.20 0.22 0.26 0.32 0.39 0.41 0.38 0.38 0.38 0.44 0.45 0.48 0.58
0.00 0.01 0.01 0.02 0.03 0.03 0.03 0.02 0.02 0.02 0.01 0.01 0.01 0.00 0.00 0.00 0.01 0.04 0.07 0.10 0.12 0.13 0.13 0.13 0.11 0.09 0.08 0.08 0.11 0.15 0.20 0.24 0.26 0.30 0.37 0.42 0.47 0.46 0.44 0.46 0.45 0.46 0.59
0.00 0.00 0.01 0.01 0.01 0.01 0.01 0.00 0.00 0.00 0.00 0.01 0.01 0.01 0.01 0.01 0.01 0.02 0.03 0.05 0.08 0.11 0.12 0.13 0.12 0.11 0.09 0.07 0.06 0.08 0.11 0.15 0.22 0.30 0.34 0.38 0.45 0.50 0.48 0.49 0.54 0.55 0.58
0.01 0.01 0.01 0.01 0.01 0.02 0.02 0.02 0.03 0.03 0.03 0.04 0.05 0.05 0.05 0.05 0.05 0.04 0.04 0.05 0.07 0.09 0.13 0.14 0.13 0.13 0.11 0.07 0.07 0.08 0.07 0.08 0.12 0.19 0.26 0.29 0.34 0.40 0.48 0.49 0.52 0.59 0.67
0.04 0.04 0.04 0.03 0.02 0.02 0.02 0.02 0.02 0.02 0.03 0.04 0.04 0.04 0.04 0.04 0.04 0.04 0.04 0.05 0.07 0.11 0.15 0.17 0.17 0.16 0.11 0.09 0.06 0.06 0.07 0.08 0.09 0.12 0.19 0.22 0.24 0.27 0.31 0.38 0.45 0.50 0.56
0.02 0.01 0.01 0.00 0.00 0.00 0.00 0.00 0.00 0.00 0.01 0.01 0.02 0.02 0.03 0.04 0.05 0.06 0.06 0.07 0.10 0.13 0.18 0.21 0.21 0.20 0.20 0.14 0.09 0.06 0.08 0.09 0.10 0.11 0.13 0.13 0.14 0.20 0.23 0.25 0.30 0.35 0.38
0.00 0.00 0.00 0.00 0.00 0.00 0.00 0.00 0.00 0.00 0.00 0.01 0.02 0.03 0.04 0.06 0.07 0.10 0.12 0.14 0.15 0.17 0.20 0.22 0.24 0.25 0.25 0.18 0.12 0.09 0.09 0.12 0.12 0.13 0.12 0.12 0.13 0.14 0.16 0.21 0.22 0.22 0.24
0.00 0.00 0.00 0.00 0.00 0.00 0.00 0.00 0.00 0.00 0.01 0.02 0.03 0.05 0.07 0.09 0.11 0.13 0.17 0.22 0.24 0.23 0.27 0.29 0.30 0.31 0.30 0.23 0.15 0.11 0.12 0.14 0.14 0.15 0.15 0.15 0.14 0.10 0.10 0.15 0.17 0.17 0.17
0.00 0.00 0.00 0.00 0.00 0.00 0.00 0.01 0.01 0.02 0.04 0.05 0.07 0.08 0.11 0.16 0.18 0.19 0.22 0.26 0.30 0.30 0.33 0.36 0.39 0.40 0.39 0.30 0.19 0.14 0.14 0.16 0.17 0.20 0.20 0.18 0.14 0.11 0.09 0.11 0.13 0.13 0.13
0.00 0.00 0.00 0.00 0.00 0.01 0.02 0.04 0.06 0.07 0.08 0.09 0.10 0.11 0.14 0.19 0.21 0.25 0.28 0.30 0.32 0.33 0.36 0.40 0.43 0.48 0.51 0.42 0.24 0.18 0.18 0.18 0.20 0.22 0.23 0.22 0.19 0.15 0.12 0.10 0.10 0.10 0.11
0.00 0.00 0.00 0.00 0.01 0.02 0.05 0.09 0.10 0.10 0.11 0.12 0.12 0.13 0.14 0.15 0.17 0.24 0.28 0.31 0.36 0.38 0.41 0.47 0.54 0.57 0.59 0.55 0.38 0.22 0.19 0.22 0.25 0.28 0.30 0.29 0.26 0.23 0.19 0.14 0.11 0.09 0.10
0.00 0.00 0.00 0.01 0.02 0.04 0.08 0.13 0.11 0.11 0.13 0.14 0.14 0.15 0.16 0.18 0.21 0.25 0.26 0.27 0.30 0.31 0.36 0.50 0.64 0.71 0.70 0.62 0.48 0.31 0.22 0.24 0.28 0.31 0.40 0.41 0.38 0.35 0.30 0.23 0.16 0.12 0.10
0.00 0.00 0.01 0.04 0.05 0.07 0.08 0.10 0.11 0.15 0.18 0.18 0.18 0.18 0.20 0.21 0.22 0.27 0.28 0.28 0.28 0.28 0.34 0.49 0.63 0.72 0.71 0.61 0.46 0.35 0.28 0.28 0.32 0.33 0.43 0.52 0.54 0.52 0.47 0.37 0.25 0.16 0.14
0.01 0.02 0.05 0.09 0.10 0.09 0.08 0.09 0.13 0.20 0.23 0.22 0.21 0.22 0.23 0.24 0.23 0.25 0.27 0.26 0.27 0.26 0.28 0.42 0.62 0.68 0.61 0.49 0.39 0.33 0.33 0.32 0.36 0.40 0.51 0.66 0.71 0.73 0.66 0.51 0.35 0.24 0.21
0.04 0.08 0.12 0.14 0.14 0.12 0.12 0.12 0.17 0.26 0.30 0.29 0.25 0.25 0.24 0.24 0.24 0.24 0.24 0.19 0.17 0.15 0.12 0.17 0.32 0.44 0.40 0.32 0.29 0.27 0.28 0.26 0.27 0.36 0.52 0.71 0.78 0.81 0.76 0.62 0.46 0.33 0.27

GEFSMW_prec_meanprecacc_036.txt.gz
Total_Precipitation_Accumulation
0.35 0.57 1.00 1.67 2.48 3.20 3.35 2.93 2.49 2.22 1.95 1.64 1.16 0.85 0.74 0.71 0.67 0.57 0.51 0.46 0.42 0.43 0.44 0.41 0.39 0.36 0.35 0.35 0.37 0.41 0.42 0.39 0.44 0.44 0.37 0.35 0.30 0.30 0.29 0.27 0.26 0.20 0.17
0.62 1.15 1.97 2.49 2.51 2.43 2.06 1.67 1.49 1.36 1.09 0.81 0.56 0.45 0.40 0.38 0.35 0.34 0.35 0.33 0.29 0.30 0.30 0.30 0.31 0.29 0.26 0.26 0.27 0.28 0.27 0.26 0.29 0.31 0.30 0.25 0.21 0.16 0.12 0.14 0.12 0.11 0.16
1.13 1.78 2.19 2.09 1.55 1.07 0.88 0.81 0.74 0.54 0.39 0.35 0.31 0.27 0.24 0.24 0.23 0.22 0.24 0.23 0.21 0.22 0.23 0.23 0.23 0.26 0.26 0.26 0.26 0.24 0.23 0.20 0.18 0.22 0.25 0.19 0.13 0.12 0.09 0.08 0.08 0.09 0.12
0.82 1.11 1.24 0.99 0.82 0.71 0.63 0.65 0.57 0.34 0.27 0.23 0.19 0.18 0.17 0.19 0.19 0.19 0.19 0.19 0.17 0.18 0.17 0.17 0.16 0.17 0.21 0.26 0.23 0.25 0.24 0.23 0.17 0.17 0.19 0.18 0.19 0.18 0.14 0.10 0.06 0.11 0.13
0.48 0.45 0.44 0.40 0.39 0.40 0.43 0.51 0.50 0.43 0.34 0.28 0.22 0.20 0.18 0.17 0.18 0.19 0.19 0.20 0.20 0.18 0.18 0.18 0.16 0.15 0.15 0.19 0.20 0.25 0.26 0.27 0.23 0.20 0.20 0.21 0.21 0.21 0.18 0.11 0.09 0.11 0.08
0.42 0.34 0.26 0.22 0.24 0.25 0.27 0.33 0.43 0.52 0.49 0.43 0.35 0.29 0.23 0.21 0.19 0.18 0.19 0.19 0.18 0.18 0.17 0.18 0.18 0.19 0.17 0.15 0.14 0.18 0.23 0.28 0.29 0.24 0.21 0.25 0.23 0.19 0.21 0.15 0.12 0.13 0.08
0.45 0.42 0.31 0.23 0.18 0.17 0.15 0.13 0.15 0.24 0.28 0.28 0.30 0.31 0.30 0.26 0.21 0.18 0.15 0.17 0.16 0.16 0.16 0.16 0.17 0.18 0.19 0.19 0.17 0.15 0.18 0.23 0.27 0.25 0.24 0.25 0.22 0.23 0.24 0.18 0.15 0.20 0.21
0.25 0.25 0.19 0.13 0.08 0.06 0.06 0.04 0.04 0.05 0.07 0.09 0.13 0.18 0.21 0.17 0.15 0.21 0.17 0.17 0.21 0.22 0.21 0.16 0.15 0.16 0.17 0.18 0.18 0.16 0.16 0.20 0.24 0.25 0.32 0.31 0.21 0.24 0.22 0.20 0.25 0.29 0.33
0.09 0.10 0.10 0.08 0.06 0.04 0.03 0.03 0.02 0.02 0.02 0.03 0.05 0.09 0.15 0.15 0.14 0.16 0.17 0.16 0.22 0.23 0.21 0.18 0.14 0.14 0.15 0.17 0.17 0.17 0.19 0.22 0.25 0.30 0.38 0.39 0.35 0.32 0.30 0.30 0.34 0.39 0.36
0.07 0.07 0.06 0.06 0.05 0.04 0.04 0.04 0.03 0.02 0.02 0.02 0.03 0.05 0.12 0.15 0.16 0.15 0.17 0.19 0.18 0.18 0.17 0.16 0.13 0.12 0.13 0.15 0.15 0.17 0.21 0.25 0.31 0.38 0.44 0.49 0.49 0.47 0.43 0.39 0.42 0.50 0.48
0.05 0.04 0.04 0.04 0.04 0.03 0.03 0.03 0.03 0.03 0.02 0.02 0.02 0.02 0.06 0.10 0.14 0.17 0.19 0.20 0.19 0.17 0.15 0.14 0.14 0.12 0.12 0.13 0.16 0.18 0.20 0.24 0.30 0.36 0.42 0.46 0.53 0.59 0.58 0.59 0.58 0.56 0.61
0.01 0.01 0.02 0.02 0.02 0.03 0.03 0.04 0.04 0.03 0.03 0.02 0.02 0.01 0.01 0.03 0.06 0.11 0.14 0.16 0.16 0.15 0.14 0.14 0.13 0.10 0.10 0.13 0.17 0.20 0.21 0.23 0.26 0.33 0.43 0.47 0.49 0.54 0.61 0.70 0.69 0.68 0.74
0.00 0.01 0.01 0.02 0.03 0.03 0.03 0.02 0.02 0.02 0.01 0.01 0.01 0.01 0.01 0.01 0.02 0.05 0.08 0.11 0.13 0.14 0.14 0.14 0.12 0.10 0.09 0.10 0.12 0.17 0.21 0.25 0.27 0.31 0.39 0.47 0.55 0.58 0.61 0.69 0.71 0.74 0.85
0.00 0.00 0.01 0.01 0.01 0.01 0.01 0.00 0.00 0.00 0.00 0.01 0.01 0.01 0.02 0.02 0.02 0.02 0.04 0.06 0.09 0.12 0.14 0.15 0.14 0.14 0.12 0.09 0.09 0.10 0.14 0.18 0.24 0.32 0.35 0.40 0.51 0.60 0.64 0.71 0.81 0.86 0.90
0.01 0.01 0.01 0.01 0.01 0.02 0.02 0.02 0.03 0.03 0.04 0.05 0.05 0.06 0.06 0.06 0.05 0.05 0.05 0.06 0.08 0.11 0.15 0.17 0.17 0.17 0.15 0.09 0.09 0.12 0.11 0.13 0.16 0.22 0.29 0.31 0.36 0.46 0.58 0.67 0.76 0.89 1.00
0.04 0.04 0.04 0.03 0.02 0.02 0.02 0.02 0.03 0.03 0.04 0.05 0.05 0.05 0.05 0.05 0.06 0.06 0.06 0.07 0.10 0.15 0.20 0.21 0.22 0.21 0.14 0.10 0.09 0.09 0.11 0.13 0.15 0.18 0.24 0.25 0.26 0.29 0.36 0.47 0.61 0.75 0.87
0.02 0.01 0.01 0.00 0.00 0.00 0.00 0.00 0.01 0.01 0.02 0.03 0.03 0.03 0.05 0.05 0.07 0.07 0.08 0.10 0.14 0.19 0.24 0.26 0.27 0.27 0.27 0.19 0.13 0.09 0.11 0.14 0.17 0.19 0.21 0.17 0.16 0.22 0.25 0.30 0.38 0.49 0.61
0.00 0.00 0.00 0.00 0.00 0.00 0.00 0.00 0.00 0.01 0.01 0.02 0.03 0.04 0.06 0.08 0.09 0.13 0.15 0.19 0.22 0.24 0.27 0.28 0.31 0.34 0.32 0.24 0.16 0.13 0.13 0.17 0.19 0.20 0.21 0.20 0.18 0.19 0.22 0.26 0.27 0.29 0.35
0.00 0.00 0.00 0.00 0.00 0.00 0.00 0.01 0.01 0.01 0.02 0.03 0.05 0.06 0.09 0.11 0.13 0.16 0.22 0.29 0.32 0.30 0.34 0.37 0.39 0.41 0.40 0.30 0.19 0.14 0.17 0.23 0.22 0.22 0.23 0.24 0.21 0.17 0.14 0.21 0.23 0.24 0.25
0.00 0.00 0.00 0.00 0.00 0.01 0.01 0.02 0.02 0.04 0.05 0.06 0.08 0.10 0.13 0.18 0.21 0.24 0.28 0.32 0.38 0.38 0.41 0.44 0.48 0.52 0.51 0.41 0.24 0.18 0.21 0.27 0.28 0.31 0.31 0.26 0.23 0.20 0.12 0.15 0.18 0.18 0.20
0.00 0.00 0.00 0.00 0.01 0.01 0.03 0.06 0.07 0.09 0.10 0.11 0.11 0.13 0.17 0.22 0.25 0.31 0.36 0.37 0.40 0.42 0.45 0.49 0.53 0.61 0.63 0.52 0.28 0.20 0.25 0.31 0.36 0.36 0.34 0.32 0.25 0.19 0.13 0.12 0.15 0.14 0.16
0.00 0.00 0.00 0.00 0.01 0.03 0.07 0.10 0.12 0.12 0.12 0.13 0.14 0.14 0.17 0.18 0.20 0.30 0.35 0.39 0.45 0.48 0.50 0.57 0.64 0.70 0.72 0.64 0.42 0.23 0.23 0.33 0.42 0.45 0.45 0.43 0.35 0.26 0.20 0.14 0.12 0.11 0.13
0.00 0.00 0.00 0.01 0.02 0.05 0.10 0.14 0.13 0.13 0.15 0.16 0.16 0.17 0.18 0.22 0.27 0.32 0.34 0.35 0.39 0.41 0.46 0.60 0.74 0.81 0.82 0.72 0.50 0.31 0.23 0.27 0.38 0.46 0.56 0.55 0.44 0.38 0.32 0.24 0.16 0.12 0.11
0.00 0.00 0.02 0.04 0.06 0.07 0.09 0.12 0.13 0.16 0.20 0.20 0.19 0.20 0.22 0.24 0.28 0.36 0.37 0.36 0.36 0.36 0.42 0.58 0.72 0.82 0.82 0.73 0.54 0.39 0.30 0.30 0.35 0.40 0.51 0.59 0.58 0.54 0.48 0.38 0.25 0.16 0.15
0.01 0.02 0.05 0.09 0.10 0.09 0.09 0.10 0.14 0.21 0.25 0.24 0.23 0.23 0.25 0.27 0.28 0.34 0.37 0.31 0.33 0.29 0.30 0.46 0.68 0.75 0.70 0.57 0.45 0.39 0.40 0.38 0.40 0.45 0.61 0.74 0.77 0.76 0.68 0.54 0.37 0.25 0.22
0.04 0.08 0.12 0.14 0.14 0.13 0.13 0.13 0.19 0.27 0.32 0.30 0.27 0.26 0.27 0.28 0.30 0.33 0.33 0.25 0.19 0.15 0.12 0.17 0.33 0.46 0.42 0.33 0.30 0.28 0.29 0.28 0.29 0.40 0.63 0.85 0.91 0.90 0.84 0.69 0.51 0.38 0.30

GEFSMW_prec_meanprecacc_042.txt.gz
Total_Precipitation_Accumulation
0.36 0.57 1.00 1.67 2.48 3.20 3.35 2.93 2.49 2.22 1.96 1.64 1.16 0.85 0.74 0.71 0.67 0.57 0.51 0.46 0.42 0.43 0.45 0.41 0.40 0.39 0.39 0.40 0.43 0.50 0.56 0.57 0.64 0.67 0.60 0.54 0.49 0.48 0.44 0.40 0.39 0.31 0.27
0.63 1.15 1.97 2.49 2.51 2.43 2.06 1.67 1.49 1.36 1.09 0.81 0.56 0.45 0.41 0.38 0.36 0.34 0.36 0.34 0.29 0.30 0.30 0.30 0.31 0.31 0.28 0.29 0.31 0.34 0.35 0.38 0.48 0.52 0.51 0.43 0.37 0.31 0.23 0.24 0.19 0.17 0.23
1.14 1.78 2.20 2.09 1.55 1.07 0.88 0.81 0.74 0.54 0.39 0.35 0.31 0.27 0.24 0.25 0.23 0.22 0.24 0.24 0.21 0.22 0.23 0.23 0.24 0.27 0.28 0.28 0.31 0.30 0.29 0.28 0.31 0.39 0.48 0.41 0.28 0.24 0.21 0.18 0.15 0.14 0.18
0.82 1.11 1.24 0.99 0.82 0.71 0.63 0.65 0.57 0.34 0.27 0.23 0.19 0.18 0.17 0.19 0.19 0.19 0.19 0.19 0.17 0.18 0.17 0.17 0.16 0.18 0.23 0.28 0.28 0.32 0.31 0.29 0.23 0.27 0.35 0.37 0.34 0.32 0.26 0.23 0.18 0.23 0.23
0.48 0.45 0.44 0.40 0.39 0.40 0.43 0.51 0.50 0.43 0.34 0.28 0.22 0.20 0.18 0.17 0.18 0.19 0.19 0.20 0.20 0.18 0.18 0.18 0.16 0.15 0.15 0.20 0.22 0.29 0.33 0.33 0.28 0.26 0.29 0.32 0.32 0.32 0.30 0.22 0.20 0.24 0.19
0.42 0.34 0.26 0.22 0.24 0.25 0.27 0.33 0.43 0.52 0.49 0.43 0.35 0.29 0.23 0.21 0.19 0.18 0.19 0.19 0.18 0.18 0.17 0.18 0.18 0.19 0.17 0.15 0.15 0.19 0.26 0.32 0.34 0.29 0.28 0.34 0.34 0.33 0.34 0.23 0.17 0.20 0.15
0.45 0.42 0.31 0.23 0.18 0.17 0.15 0.13 0.15 0.24 0.28 0.28 0.30 0.31 0.30 0.26 0.21 0.18 0.15 0.17 0.16 0.16 0.16 0.16 0.17 0.19 0.19 0.19 0.17 0.15 0.19 0.25 0.30 0.29 0.30 0.32 0.31 0.36 0.37 0.28 0.22 0.26 0.26
0.25 0.25 0.19 0.13 0.08 0.06 0.06 0.04 0.04 0.05 0.07 0.09 0.13 0.18 0.21 0.17 0.15 0.21 0.17 0.17 0.21 0.22 0.21 0.16 0.15 0.16 0.18 0.18 0.18 0.16 0.17 0.20 0.25 0.27 0.37 0.36 0.28 0.35 0.36 0.35 0.39 0.39 0.41
0.09 0.10 0.10 0.08 0.06 0.04 0.03 0.03 0.02 0.02 0.02 0.03 0.05 0.09 0.15 0.15 0.14 0.16 0.17 0.16 0.22 0.23 0.21 0.18 0.15 0.14 0.15 0.17 0.18 0.18 0.19 0.22 0.25 0.31 0.40 0.41 0.38 0.39 0.40 0.44 0.53 0.58 0.49
0.07 0.07 0.06 0.06 0.05 0.04 0.04 0.04 0.03 0.02 0.02 0.02 0.03 0.05 0.12 0.15 0.16 0.15 0.17 0.19 0.18 0.18 0.17 0.16 0.13 0.12 0.13 0.15 0.16 0.18 0.22 0.25 0.31 0.38 0.44 0.50 0.50 0.51 0.50 0.51 0.58 0.70 0.67
0.05 0.04 0.04 0.04 0.04 0.03 0.03 0.03 0.03 0.03 0.02 0.02 0.02 0.02 0.06 0.10 0.14 0.18 0.19 0.20 0.19 0.17 0.15 0.14 0.14 0.12 0.12 0.13 0.16 0.18 0.20 0.24 0.30 0.37 0.42 0.46 0.54 0.61 0.62 0.67 0.68 0.70 0.80
0.01 0.01 0.02 0.02 0.02 0.03 0.03 0.04 0.04 0.03 0.03 0.02 0.02 0.01 0.01 0.03 0.06 0.11 0.14 0.16 0.16 0.15 0.15 0.14 0.13 0.10 0.10 0.13 0.18 0.20 0.21 0.23 0.27 0.34 0.44 0.48 0.49 0.55 0.63 0.75 0.78 0.79 0.90
0.00 0.01 0.01 0.02 0.03 0.03 0.03 0.02 0.02 0.02 0.01 0.01 0.01 0.01 0.01 0.01 0.02 0.05 0.08 0.11 0.13 0.14 0.14 0.14 0.12 0.10 0.09 0.10 0.13 0.17 0.21 0.25 0.27 0.31 0.39 0.47 0.55 0.58 0.62 0.72 0.77 0.83 0.98
0.00 0.00 0.01 0.01 0.01 0.01 0.01 0.00 0.00 0.00 0.00 0.01 0.01 0.01 0.02 0.02 0.02 0.02 0.04 0.06 0.09 0.12 0.14 0.15 0.15 0.14 0.12 0.09 0.09 0.10 0.14 0.19 0.24 0.33 0.36 0.41 0.52 0.60 0.64 0.72 0.84 0.93 1.01
0.01 0.01 0.01 0.01 0.01 0.02 0.02 0.02 0.03 0.03 0.04 0.05 0.05 0.06 0.06 0.06 0.05 0.05 0.05 0.06 0.08 0.11 0.15 0.17 0.17 0.17 0.15 0.09 0.09 0.12 0.11 0.14 0.17 0.23 0.30 0.32 0.37 0.47 0.58 0.67 0.77 0.93 1.08
0.04 0.04 0.04 0.03 0.02 0.02 0.02 0.02 0.03 0.03 0.04 0.05 0.05 0.05 0.05 0.05 0.06 0.06 0.06 0.07 0.10 0.15 0.20 0.21 0.22 0.21 0.14 0.10 0.09 0.10 0.11 0.14 0.17 0.20 0.26 0.26 0.27 0.31 0.37 0.48 0.62 0.77 0.92
0.02 0.01 0.01 0.00 0.00 0.00 0.00 0.00 0.01 0.01 0.02 0.03 0.03 0.03 0.05 0.05 0.07 0.07 0.08 0.10 0.14 0.19 0.24 0.26 0.28 0.27 0.27 0.19 0.13 0.09 0.12 0.15 0.19 0.21 0.23 0.19 0.17 0.24 0.27 0.32 0.40 0.51 0.63
0.00 0.00 0.00 0.00 0.00 0.00 0.00 0.00 0.00 0.01 0.01 0.02 0.03 0.04 0.06 0.08 0.09 0.13 0.15 0.19 0.22 0.24 0.27 0.28 0.31 0.34 0.32 0.24 0.16 0.13 0.14 0.18 0.20 0.23 0.24 0.23 0.21 0.22 0.27 0.30 0.30 0.31 0.36
0.00 0.00 0.00 0.00 0.00 0.00 0.00 0.01 0.01 0.01 0.02 0.03 0.05 0.06 0.09 0.11 0.14 0.16 0.22 0.29 0.32 0.30 0.34 0.37 0.39 0.41 0.40 0.31 0.19 0.15 0.18 0.24 0.24 0.25 0.27 0.29 0.24 0.20 0.20 0.27 0.27 0.26 0.26
0.00 0.00 0.00 0.00 0.00 0.01 0.01 0.02 0.02 0.04 0.05 0.07 0.08 0.10 0.14 0.18 0.21 0.24 0.29 0.33 0.38 0.38 0.41 0.44 0.49 0.52 0.52 0.41 0.24 0.19 0.22 0.29 0.31 0.35 0.36 0.34 0.29 0.25 0.18 0.22 0.24 0.22 0.22
0.00 0.00 0.00 0.00 0.01 0.01 0.03 0.06 0.07 0.09 0.10 0.11 0.11 0.13 0.17 0.22 0.25 0.32 0.36 0.38 0.40 0.42 0.46 0.49 0.54 0.61 0.64 0.53 0.28 0.21 0.26 0.34 0.39 0.40 0.40 0.39 0.32 0.25 0.19 0.19 0.22 0.19 0.21
0.00 0.00 0.00 0.00 0.01 0.03 0.07 0.10 0.12 0.12 0.12 0.13 0.14 0.14 0.17 0.18 0.21 0.31 0.35 0.39 0.46 0.48 0.51 0.57 0.64 0.70 0.73 0.64 0.42 0.23 0.23 0.35 0.46 0.50 0.51 0.49 0.41 0.32 0.26 0.20 0.18 0.17 0.19
0.00 0.00 0.00 0.01 0.02 0.05 0.10 0.15 0.13 0.13 0.15 0.16 0.16 0.17 0.18 0.22 0.27 0.33 0.34 0.36 0.40 0.41 0.46 0.61 0.75 0.82 0.83 0.73 0.51 0.32 0.23 0.29 0.42 0.52 0.63 0.61 0.50 0.43 0.37 0.29 0.22 0.19 0.17
0.00 0.00 0.02 0.04 0.06 0.07 0.09 0.12 0.13 0.16 0.20 0.20 0.19 0.20 0.22 0.24 0.28 0.36 0.38 0.37 0.37 0.37 0.42 0.59 0.73 0.83 0.83 0.74 0.55 0.40 0.31 0.32 0.39 0.46 0.57 0.65 0.64 0.59 0.52 0.42 0.29 0.21 0.19
0.01 0.02 0.05 0.09 0.10 0.09 0.09 0.10 0.14 0.22 0.25 0.24 0.23 0.23 0.26 0.28 0.29 0.35 0.38 0.33 0.33 0.30 0.31 0.47 0.69 0.76 0.70 0.57 0.45 0.40 0.41 0.39 0.43 0.50 0.66 0.80 0.82 0.80 0.71 0.57 0.41 0.29 0.25
0.04 0.08 0.12 0.14 0.14 0.13 0.13 0.13 0.19 0.27 0.32 0.30 0.27 0.26 0.27 0.28 0.30 0.34 0.34 0.26 0.19 0.16 0.13 0.18 0.34 0.46 0.42 0.34 0.30 0.28 0.30 0.28 0.29 0.41 0.66 0.89 0.95 0.94 0.87 0.73 0.54 0.40 0.31

GEFSMW_prec_meanprecacc_048.txt.gz
Total_Precipitation_Accumulation
0.38 0.59 1.02 1.68 2.49 3.20 3.36 2.94 2.50 2.22 1.96 1.64 1.16 0.85 0.74 0.71 0.67 0.57 0.51 0.46 0.42 0.43 0.45 0.41 0.40 0.39 0.39 0.40 0.44 0.51 0.56 0.58 0.66 0.70 0.64 0.59 0.55 0.56 0.52 0.50 0.52 0.45 0.40
0.64 1.16 1.97 2.49 2.51 2.43 2.06 1.67 1.49 1.36 1.09 0.81 0.56 0.45 0.41 0.38 0.36 0.34 0.36 0.34 0.29 0.30 0.30 0.30 0.31 0.31 0.28 0.29 0.31 0.34 0.36 0.39 0.50 0.56 0.56 0.48 0.42 0.35 0.30 0.33 0.29 0.27 0.35
1.14 1.78 2.20 2.09 1.55 1.07 0.89 0.81 0.74 0.54 0.39 0.35 0.31 0.27 0.24 0.25 0.23 0.22 0.24 0.24 0.21 0.22 0.23 0.23 0.24 0.27 0.28 0.28 0.31 0.30 0.30 0.30 0.33 0.43 0.53 0.47 0.35 0.27 0.24 0.24 0.23 0.24 0.28
0.82 1.11 1.24 0.99 0.82 0.71 0.63 0.65 0.57 0.34 0.27 0.23 0.19 0.18 0.17 0.19 0.19 0.19 0.19 0.19 0.17 0.18 0.17 0.17 0.16 0.18 0.23 0.28 0.28 0.33 0.32 0.30 0.25 0.28 0.37 0.41 0.42 0.39 0.32 0.27 0.23 0.30 0.32
0.48 0.45 0.44 0.40 0.39 0.40 0.43 0.51 0.50 0.43 0.34 0.28 0.22 0.20 0.18 0.17 0.18 0.19 0.19 0.20 0.20 0.18 0.18 0.18 0.16 0.15 0.15 0.20 0.22 0.30 0.34 0.35 0.29 0.27 0.30 0.34 0.35 0.37 0.37 0.27 0.24 0.28 0.25
0.42 0.34 0.26 0.23 0.24 0.25 0.27 0.33 0.43 0.52 0.49 0.43 0.35 0.29 0.23 0.21 0.19 0.18 0.19 0.19 0.18 0.18 0.17 0.18 0.18 0.19 0.17 0.15 0.15 0.19 0.26 0.33 0.35 0.30 0.28 0.35 0.36 0.36 0.39 0.27 0.21 0.24 0.20
0.45 0.42 0.31 0.23 0.18 0.17 0.15 0.13 0.15 0.24 0.28 0.28 0.30 0.31 0.30 0.26 0.21 0.18 0.15 0.17 0.16 0.16 0.16 0.16 0.17 0.19 0.19 0.19 0.17 0.15 0.19 0.25 0.30 0.30 0.31 0.33 0.32 0.38 0.40 0.31 0.25 0.28 0.28
0.25 0.25 0.19 0.13 0.08 0.06 0.06 0.04 0.04 0.05 0.07 0.09 0.13 0.18 0.21 0.17 0.15 0.21 0.17 0.17 0.21 0.22 0.21 0.16 0.15 0.16 0.18 0.18 0.18 0.16 0.17 0.20 0.25 0.27 0.37 0.36 0.29 0.36 0.37 0.37 0.43 0.41 0.43
0.09 0.10 0.10 0.08 0.06 0.04 0.03 0.03 0.02 0.02 0.02 0.03 0.05 0.09 0.15 0.15 0.14 0.16 0.17 0.16 0.22 0.23 0.21 0.18 0.15 0.14 0.15 0.17 0.18 0.18 0.19 0.22 0.25 0.31 0.40 0.42 0.39 0.39 0.40 0.44 0.54 0.61 0.52
0.07 0.07 0.06 0.06 0.05 0.04 0.04 0.04 0.03 0.02 0.02 0.02 0.03 0.05 0.12 0.15 0.16 0.15 0.17 0.19 0.18 0.18 0.17 0.16 0.13 0.12 0.13 0.15 0.16 0.18 0.22 0.25 0.31 0.38 0.44 0.50 0.50 0.51 0.50 0.51 0.59 0.72 0.70
0.05 0.04 0.04 0.04 0.04 0.03 0.03 0.03 0.03 0.03 0.02 0.02 0.02 0.02 0.06 0.10 0.14 0.18 0.19 0.20 0.19 0.17 0.15 0.14 0.14 0.12 0.12 0.13 0.16 0.18 0.20 0.24 0.30 0.37 0.42 0.46 0.54 0.61 0.62 0.67 0.69 0.72 0.82
0.01 0.01 0.02 0.02 0.02 0.03 0.03 0.04 0.04 0.03 0.03 0.02 0.02 0.01 0.01 0.03 0.06 0.11 0.14 0.16 0.16 0.15 0.15 0.14 0.13 0.10 0.10 0.13 0.18 0.20 0.21 0.23 0.27 0.34 0.44 0.48 0.49 0.55 0.63 0.75 0.78 0.80 0.91
0.00 0.01 0.01 0.02 0.03 0.03 0.03 0.02 0.02 0.02 0.01 0.01 0.01 0.01 0.01 0.01 0.02 0.05 0.08 0.11 0.13 0.14 0.14 0.14 0.12 0.10 0.09 0.10 0.13 0.17 0.21 0.25 0.27 0.31 0.39 0.47 0.55 0.58 0.62 0.72 0.77 0.83 0.99
0.00 0.00 0.01 0.01 0.01 0.01 0.01 0.00 0.00 0.00 0.00 0.01 0.01 0.01 0.02 0.02 0.02 0.02 0.04 0.06 0.09 0.12 0.14 0.15 0.15 0.14 0.12 0.09 0.09 0.10 0.14 0.19 0.24 0.33 0.36 0.41 0.52 0.60 0.64 0.72 0.84 0.93 1.02
0.01 0.01 0.01 0.01 0.01 0.02 0.02 0.02 0.03 0.03 0.04 0.05 0.05 0.06 0.06 0.06 0.05 0.05 0.05 0.06 0.08 0.11 0.15 0.17 0.17 0.17 0.15 0.09 0.09 0.12 0.11 0.14 0.17 0.23 0.30 0.32 0.37 0.47 0.58 0.67 0.77 0.93 1.08
0.04 0.04 0.04 0.03 0.02 0.02 0.02 0.02 0.03 0.03 0.04 0.05 0.05 0.05 0.05 0.05 0.06 0.06 0.06 0.07 0.10 0.15 0.20 0.21 0.22 0.21 0.14 0.10 0.09 0.10 0.11 0.14 0.17 0.20 0.26 0.26 0.27 0.31 0.37 0.48 0.62 0.77 0.93
0.02 0.01 0.01 0.00 0.00 0.00 0.00 0.00 0.01 0.01 0.02 0.03 0.03 0.03 0.05 0.05 0.07 0.07 0.08 0.10 0.14 0.19 0.24 0.26 0.28 0.27 0.27 0.19 0.13 0.09 0.12 0.15 0.19 0.21 0.23 0.19 0.17 0.24 0.27 0.32 0.40 0.51 0.63
0.00 0.00 0.00 0.00 0.00 0.00 0.00 0.00 0.00 0.01 0.01 0.02 0.03 0.04 0.06 0.08 0.09 0.13 0.15 0.19 0.22 0.24 0.27 0.28 0.31 0.34 0.32 0.24 0.16 0.13 0.14 0.18 0.20 0.23 0.24 0.23 0.21 0.22 0.27 0.30 0.30 0.31 0.36
0.00 0.00 0.00 0.00 0.00 0.00 0.00 0.01 0.01 0.01 0.02 0.03 0.05 0.06 0.09 0.11 0.14 0.16 0.22 0.29 0.32 0.30 0.34 0.37 0.39 0.41 0.40 0.31 0.19 0.15 0.18 0.24 0.24 0.25 0.27 0.29 0.24 0.20 0.20 0.27 0.28 0.27 0.27
0.00 0.00 0.00 0.00 0.00 0.01 0.01 0.02 0.02 0.04 0.05 0.07 0.08 0.10 0.14 0.18 0.21 0.24 0.29 0.33 0.38 0.38 0.41 0.44 0.49 0.52 0.52 0.41 0.24 0.19 0.22 0.29 0.31 0.35 0.36 0.34 0.29 0.26 0.18 0.23 0.25 0.23 0.23
0.00 0.00 0.00 0.00 0.01 0.01 0.03 0.06 0.07 0.09 0.10 0.11 0.11 0.13 0.17 0.22 0.25 0.32 0.36 0.38 0.40 0.42 0.46 0.49 0.54 0.61 0.64 0.53 0.28 0.21 0.27 0.34 0.39 0.40 0.40 0.39 0.33 0.27 0.20 0.20 0.24 0.22 0.24
0.00 0.00 0.00 0.00 0.01 0.03 0.07 0.10 0.12 0.12 0.12 0.13 0.14 0.14 0.17 0.18 0.21 0.31 0.35 0.39 0.46 0.48 0.51 0.57 0.64 0.70 0.73 0.65 0.43 0.24 0.24 0.35 0.47 0.51 0.52 0.51 0.43 0.35 0.29 0.23 0.21 0.21 0.23
0.00 0.00 0.00 0.01 0.02 0.05 0.10 0.15 0.13 0.13 0.15 0.16 0.16 0.17 0.18 0.22 0.27 0.33 0.34 0.36 0.40 0.41 0.46 0.61 0.76 0.83 0.83 0.73 0.51 0.32 0.24 0.30 0.43 0.54 0.65 0.64 0.53 0.47 0.41 0.32 0.25 0.23 0.22
0.00 0.00 0.02 0.04 0.06 0.07 0.09 0.12 0.13 0.16 0.20 0.20 0.19 0.20 0.22 0.24 0.28 0.36 0.38 0.37 0.37 0.37 0.42 0.59 0.73 0.83 0.83 0.74 0.55 0.40 0.31 0.33 0.40 0.48 0.59 0.68 0.68 0.64 0.57 0.47 0.34 0.26 0.25
0.01 0.02 0.05 0.09 0.10 0.09 0.09 0.10 0.14 0.22 0.25 0.24 0.23 0.23 0.26 0.28 0.29 0.35 0.38 0.33 0.33 0.30 0.31 0.47 0.70 0.76 0.71 0.57 0.45 0.40 0.42 0.40 0.44 0.52 0.69 0.83 0.85 0.84 0.76 0.62 0.47 0.34 0.31
0.04 0.08 0.12 0.14 0.14 0.13 0.13 0.13 0.19 0.27 0.32 0.30 0.27 0.26 0.27 0.28 0.30 0.34 0.34 0.26 0.19 0.16 0.14 0.19 0.34 0.47 0.42 0.34 0.30 0.29 0.30 0.29 0.30 0.42 0.68 0.93 0.98 0.98 0.92 0.78 0.60 0.46 0.38

GEFSMW_prec_meanprecacc_054.txt.gz
Total_Precipitation_Accumulation
0.42 0.62 1.03 1.70 2.50 3.21 3.36 2.94 2.50 2.22 1.96 1.64 1.16 0.85 0.74 0.71 0.67 0.57 0.51 0.46 0.42 0.43 0.45 0.41 0.40 0.40 0.39 0.40 0.44 0.51 0.56 0.59 0.68 0.71 0.66 0.62 0.58 0.60 0.57 0.56 0.59 0.53 0.47
0.72 1.19 1.98 2.49 2.51 2.43 2.06 1.67 1.49 1.36 1.09 0.81 0.57 0.45 0.41 0.38 0.36 0.34 0.36 0.34 0.29 0.30 0.30 0.30 0.31 0.31 0.29 0.30 0.32 0.35 0.36 0.39 0.50 0.57 0.58 0.50 0.45 0.42 0.36 0.40 0.36 0.35 0.47
1.19 1.80 2.21 2.09 1.55 1.08 0.89 0.81 0.75 0.55 0.40 0.35 0.32 0.27 0.24 0.25 0.23 0.22 0.24 0.24 0.21 0.22 0.23 0.23 0.24 0.27 0.28 0.29 0.32 0.31 0.31 0.30 0.33 0.43 0.55 0.49 0.39 0.32 0.30 0.31 0.31 0.35 0.41
0.84 1.12 1.24 0.99 0.83 0.72 0.63 0.66 0.58 0.36 0.28 0.23 0.20 0.18 0.17 0.19 0.19 0.19 0.19 0.19 0.17 0.18 0.17 0.17 0.16 0.18 0.23 0.28 0.28 0.33 0.32 0.30 0.25 0.29 0.38 0.42 0.44 0.43 0.36 0.33 0.32 0.40 0.43
0.48 0.45 0.45 0.40 0.39 0.40 0.44 0.51 0.50 0.44 0.35 0.28 0.22 0.20 0.18 0.17 0.18 0.19 0.19 0.20 0.20 0.18 0.18 0.18 0.16 0.15 0.15 0.20 0.23 0.30 0.34 0.35 0.30 0.28 0.31 0.35 0.36 0.40 0.40 0.30 0.28 0.33 0.31
0.42 0.34 0.26 0.23 0.24 0.26 0.27 0.33 0.43 0.53 0.50 0.43 0.35 0.29 0.23 0.21 0.19 0.18 0.19 0.19 0.18 0.18 0.17 0.18 0.19 0.19 0.17 0.15 0.15 0.19 0.26 0.33 0.35 0.30 0.29 0.36 0.37 0.37 0.40 0.29 0.23 0.26 0.23
0.45 0.42 0.31 0.23 0.18 0.17 0.15 0.13 0.15 0.24 0.28 0.28 0.30 0.31 0.30 0.26 0.21 0.18 0.15 0.17 0.16 0.16 0.16 0.16 0.18 0.19 0.19 0.19 0.17 0.15 0.19 0.25 0.31 0.30 0.31 0.33 0.33 0.39 0.41 0.32 0.26 0.30 0.31
0.25 0.25 0.19 0.13 0.08 0.06 0.06 0.04 0.04 0.05 0.07 0.09 0.13 0.18 0.21 0.17 0.15 0.21 0.17 0.17 0.21 0.22 0.21 0.16 0.15 0.16 0.18 0.18 0.18 0.16 0.17 0.20 0.25 0.27 0.37 0.37 0.29 0.36 0.38 0.38 0.43 0.43 0.45
0.09 0.10 0.10 0.08 0.06 0.04 0.03 0.03 0.02 0.02 0.02 0.03 0.05 0.09 0.15 0.15 0.14 0.16 0.17 0.16 0.22 0.23 0.21 0.18 0.15 0.14 0.15 0.17 0.18 0.18 0.20 0.22 0.25 0.31 0.40 0.42 0.39 0.39 0.41 0.45 0.55 0.62 0.53
0.07 0.07 0.06 0.06 0.05 0.04 0.04 0.04 0.03 0.02 0.02 0.02 0.03 0.05 0.12 0.15 0.16 0.15 0.17 0.19 0.18 0.18 0.17 0.16 0.13 0.12 0.13 0.15 0.16 0.18 0.22 0.25 0.31 0.38 0.44 0.50 0.51 0.51 0.51 0.52 0.59 0.73 0.71
0.05 0.04 0.04 0.04 0.04 0.03 0.03 0.03 0.03 0.03 0.02 0.02 0.02 0.02 0.06 0.10 0.14 0.18 0.19 0.20 0.19 0.18 0.15 0.14 0.14 0.12 0.12 0.14 0.16 0.19 0.21 0.24 0.30 0.37 0.42 0.47 0.54 0.61 0.63 0.68 0.69 0.72 0.83
0.01 0.01 0.02 0.02 0.02 0.03 0.03 0.04 0.04 0.03 0.03 0.02 0.02 0.01 0.01 0.03 0.06 0.11 0.14 0.16 0.16 0.15 0.15 0.14 0.13 0.10 0.10 0.13 0.18 0.20 0.21 0.24 0.27 0.34 0.44 0.48 0.50 0.55 0.63 0.75 0.78 0.80 0.92
0.00 0.01 0.01 0.02 0.03 0.03 0.03 0.02 0.02 0.02 0.01 0.01 0.01 0.01 0.01 0.01 0.02 0.05 0.08 0.11 0.13 0.14 0.14 0.14 0.13 0.11 0.09 0.10 0.13 0.17 0.21 0.26 0.28 0.32 0.40 0.48 0.56 0.58 0.63 0.72 0.77 0.84 0.99
0.00 0.00 0.01 0.01 0.01 0.01 0.01 0.00 0.00 0.00 0.00 0.01 0.01 0.01 0.02 0.02 0.02 0.02 0.04 0.06 0.09 0.12 0.14 0.15 0.15 0.14 0.12 0.09 0.09 0.11 0.14 0.19 0.25 0.33 0.37 0.42 0.52 0.61 0.65 0.73 0.84 0.93 1.02
0.01 0.01 0.01 0.01 0.01 0.02 0.02 0.02 0.03 0.03 0.04 0.05 0.05 0.06 0.06 0.06 0.05 0.05 0.05 0.06 0.08 0.11 0.15 0.17 0.17 0.17 0.15 0.09 0.09 0.12 0.12 0.14 0.17 0.24 0.31 0.32 0.37 0.47 0.59 0.67 0.78 0.94 1.09
0.04 0.04 0.04 0.03 0.02 0.02 0.02 0.02 0.03 0.03 0.04 0.05 0.05 0.05 0.05 0.05 0.06 0.06 0.06 0.07 0.10 0.15 0.20 0.21 0.22 0.21 0.14 0.10 0.09 0.10 0.12 0.15 0.17 0.21 0.26 0.27 0.28 0.31 0.38 0.48 0.62 0.77 0.93
0.02 0.01 0.01 0.00 0.00 0.00 0.00 0.00 0.01 0.01 0.02 0.03 0.03 0.03 0.05 0.05 0.07 0.07 0.08 0.10 0.14 0.19 0.24 0.26 0.28 0.27 0.27 0.19 0.13 0.09 0.12 0.15 0.19 0.22 0.24 0.20 0.17 0.24 0.28 0.32 0.40 0.51 0.63
0.00 0.00 0.00 0.00 0.00 0.00 0.00 0.00 0.00 0.01 0.01 0.02 0.03 0.04 0.06 0.08 0.09 0.13 0.15 0.19 0.22 0.24 0.27 0.28 0.31 0.34 0.32 0.24 0.16 0.13 0.14 0.18 0.20 0.23 0.25 0.24 0.22 0.23 0.28 0.32 0.31 0.32 0.37
0.00 0.00 0.00 0.00 0.00 0.00 0.00 0.01 0.01 0.01 0.02 0.03 0.05 0.06 0.09 0.11 0.14 0.16 0.22 0.29 0.32 0.31 0.35 0.38 0.39 0.42 0.41 0.31 0.19 0.15 0.18 0.24 0.24 0.25 0.27 0.30 0.26 0.21 0.21 0.28 0.30 0.29 0.28
0.00 0.00 0.00 0.00 0.00 0.01 0.01 0.02 0.02 0.04 0.05 0.07 0.08 0.10 0.14 0.19 0.21 0.24 0.29 0.33 0.38 0.39 0.41 0.44 0.49 0.53 0.53 0.42 0.24 0.19 0.22 0.29 0.32 0.36 0.37 0.34 0.30 0.26 0.19 0.23 0.27 0.25 0.25
0.00 0.00 0.00 0.00 0.01 0.01 0.03 0.06 0.07 0.09 0.10 0.11 0.11 0.13 0.17 0.23 0.25 0.32 0.36 0.38 0.40 0.42 0.46 0.49 0.54 0.62 0.65 0.53 0.28 0.21 0.27 0.34 0.40 0.41 0.41 0.41 0.34 0.27 0.21 0.21 0.25 0.23 0.26
0.00 0.00 0.00 0.00 0.01 0.03 0.07 0.10 0.12 0.12 0.12 0.13 0.14 0.14 0.17 0.18 0.21 0.31 0.35 0.39 0.46 0.49 0.51 0.58 0.65 0.71 0.74 0.65 0.43 0.24 0.24 0.36 0.47 0.52 0.53 0.52 0.44 0.35 0.29 0.23 0.21 0.21 0.23
0.00 0.00 0.00 0.01 0.02 0.05 0.10 0.15 0.13 0.13 0.15 0.16 0.16 0.17 0.18 0.22 0.27 0.33 0.34 0.36 0.40 0.41 0.46 0.62 0.76 0.83 0.84 0.74 0.52 0.33 0.24 0.30 0.43 0.54 0.65 0.65 0.53 0.47 0.41 0.33 0.25 0.23 0.23
0.00 0.00 0.02 0.04 0.06 0.07 0.09 0.12 0.13 0.16 0.20 0.20 0.19 0.20 0.22 0.24 0.28 0.36 0.38 0.37 0.37 0.37 0.43 0.60 0.75 0.84 0.84 0.76 0.57 0.42 0.33 0.33 0.41 0.48 0.60 0.68 0.69 0.65 0.59 0.49 0.36 0.27 0.28
0.01 0.02 0.06 0.09 0.10 0.09 0.09 0.10 0.14 0.22 0.25 0.24 0.23 0.23 0.26 0.28 0.29 0.35 0.38 0.33 0.34 0.30 0.31 0.48 0.70 0.77 0.72 0.59 0.46 0.41 0.42 0.41 0.45 0.53 0.71 0.85 0.88 0.88 0.81 0.67 0.53 0.41 0.37
0.04 0.08 0.12 0.15 0.14 0.13 0.13 0.14 0.19 0.27 0.32 0.30 0.27 0.26 0.27 0.28 0.30 0.34 0.34 0.26 0.19 0.16 0.14 0.19 0.34 0.47 0.42 0.34 0.31 0.29 0.30 0.29 0.31 0.43 0.69 0.95 1.03 1.04 1.00 0.87 0.68 0.54 0.47

GEFSMW_prec_meanprecacc_060.txt.gz
Total_Precipitation_Accumulation
0.51 0.73 1.19 1.85 2.60 3.26 3.38 2.95 2.51 2.23 1.96 1.65 1.17 0.85 0.74 0.71 0.67 0.57 0.51 0.46 0.42 0.43 0.45 0.41 0.40 0.40 0.39 0.40 0.44 0.51 0.57 0.59 0.68 0.72 0.66 0.62 0.59 0.63 0.61 0.61 0.65 0.59 0.56
0.82 1.29 2.09 2.61 2.61 2.47 2.08 1.69 1.50 1.37 1.10 0.83 0.57 0.46 0.41 0.38 0.36 0.34 0.36 0.34 0.29 0.30 0.30 0.30 0.31 0.31 0.29 0.30 0.33 0.36 0.37 0.40 0.51 0.57 0.58 0.50 0.47 0.45 0.41 0.47 0.44 0.44 0.57
1.26 1.86 2.26 2.14 1.59 1.09 0.90 0.82 0.76 0.56 0.41 0.37 0.33 0.28 0.25 0.25 0.23 0.22 0.24 0.24 0.21 0.22 0.23 0.23 0.24 0.27 0.28 0.29 0.32 0.32 0.32 0.32 0.34 0.44 0.55 0.50 0.41 0.35 0.34 0.37 0.40 0.47 0.54
0.88 1.16 1.27 1.01 0.83 0.72 0.64 0.67 0.59 0.37 0.29 0.25 0.21 0.19 0.18 0.20 0.19 0.19 0.19 0.19 0.17 0.18 0.17 0.17 0.16 0.18 0.23 0.29 0.29 0.34 0.34 0.32 0.26 0.30 0.39 0.43 0.45 0.44 0.37 0.36 0.38 0.48 0.54
0.50 0.47 0.46 0.41 0.39 0.40 0.44 0.52 0.52 0.46 0.37 0.30 0.24 0.21 0.19 0.18 0.19 0.19 0.19 0.20 0.20 0.18 0.18 0.18 0.17 0.15 0.15 0.20 0.23 0.31 0.35 0.36 0.31 0.29 0.32 0.36 0.38 0.41 0.41 0.31 0.31 0.38 0.36
0.43 0.35 0.27 0.23 0.24 0.26 0.27 0.34 0.45 0.56 0.52 0.44 0.36 0.30 0.24 0.21 0.20 0.19 0.19 0.19 0.18 0.18 0.17 0.18 0.19 0.19 0.17 0.15 0.15 0.20 0.27 0.34 0.36 0.32 0.30 0.37 0.38 0.39 0.42 0.31 0.24 0.28 0.25
0.45 0.42 0.31 0.23 0.18 0.17 0.15 0.13 0.16 0.27 0.30 0.30 0.31 0.31 0.30 0.26 0.21 0.18 0.15 0.17 0.16 0.16 0.16 0.16 0.18 0.19 0.20 0.19 0.17 0.16 0.19 0.26 0.32 0.31 0.32 0.34 0.33 0.39 0.41 0.33 0.27 0.30 0.31
0.25 0.25 0.19 0.13 0.08 0.06 0.06 0.04 0.04 0.07 0.08 0.10 0.13 0.18 0.21 0.17 0.15 0.21 0.17 0.17 0.21 0.22 0.21 0.16 0.15 0.17 0.18 0.18 0.18 0.17 0.17 0.21 0.26 0.28 0.38 0.37 0.29 0.36 0.38 0.39 0.44 0.43 0.45
0.09 0.10 0.10 0.08 0.06 0.04 0.03 0.03 0.02 0.02 0.02 0.03 0.05 0.09 0.15 0.15 0.14 0.16 0.17 0.16 0.22 0.23 0.21 0.18 0.15 0.15 0.16 0.17 0.18 0.18 0.20 0.23 0.26 0.31 0.40 0.42 0.39 0.40 0.41 0.45 0.55 0.62 0.53
0.07 0.07 0.06 0.06 0.05 0.04 0.04 0.04 0.03 0.02 0.02 0.02 0.03 0.05 0.12 0.15 0.16 0.15 0.17 0.19 0.19 0.19 0.17 0.16 0.14 0.12 0.13 0.16 0.17 0.18 0.22 0.26 0.32 0.39 0.45 0.51 0.51 0.51 0.51 0.52 0.60 0.73 0.71
0.05 0.04 0.04 0.04 0.04 0.03 0.03 0.03 0.03 0.03 0.02 0.02 0.02 0.02 0.06 0.10 0.14 0.18 0.19 0.20 0.19 0.18 0.16 0.15 0.14 0.13 0.13 0.15 0.18 0.20 0.22 0.25 0.31 0.38 0.44 0.48 0.55 0.62 0.63 0.68 0.70 0.73 0.83
0.01 0.01 0.02 0.02 0.02 0.03 0.03 0.04 0.04 0.03 0.03 0.02 0.02 0.01 0.01 0.03 0.06 0.11 0.14 0.17 0.17 0.15 0.15 0.15 0.13 0.11 0.11 0.14 0.19 0.22 0.22 0.25 0.28 0.36 0.46 0.50 0.51 0.57 0.64 0.76 0.79 0.81 0.93
0.00 0.01 0.01 0.02 0.03 0.03 0.03 0.02 0.02 0.02 0.01 0.01 0.01 0.01 0.01 0.01 0.02 0.05 0.08 0.11 0.13 0.15 0.14 0.15 0.13 0.11 0.10 0.11 0.14 0.19 0.23 0.27 0.29 0.33 0.42 0.50 0.58 0.61 0.65 0.74 0.78 0.85 1.00
0.00 0.00 0.01 0.01 0.01 0.01 0.01 0.00 0.00 0.00 0.00 0.01 0.01 0.01 0.02 0.02 0.02 0.02 0.04 0.06 0.09 0.13 0.14 0.15 0.15 0.14 0.12 0.10 0.10 0.12 0.16 0.21 0.27 0.35 0.39 0.43 0.55 0.64 0.68 0.76 0.87 0.95 1.04
0.01 0.01 0.01 0.01 0.01 0.02 0.02 0.02 0.03 0.03 0.04 0.05 0.05 0.06 0.06 0.06 0.05 0.05 0.05 0.06 0.09 0.11 0.15 0.18 0.18 0.18 0.15 0.10 0.10 0.13 0.13 0.15 0.19 0.26 0.33 0.34 0.39 0.49 0.61 0.68 0.79 0.96 1.11
0.04 0.04 0.04 0.03 0.02 0.02 0.02 0.02 0.03 0.03 0.04 0.05 0.05 0.05 0.05 0.05 0.06 0.06 0.06 0.07 0.10 0.15 0.20 0.22 0.22 0.21 0.15 0.10 0.09 0.10 0.12 0.15 0.18 0.22 0.28 0.29 0.29 0.32 0.38 0.48 0.62 0.77 0.94
0.02 0.01 0.01 0.00 0.00 0.00 0.00 0.00 0.01 0.01 0.02 0.03 0.03 0.03 0.05 0.05 0.07 0.07 0.08 0.10 0.14 0.19 0.25 0.27 0.28 0.28 0.28 0.20 0.13 0.09 0.12 0.15 0.19 0.23 0.26 0.21 0.18 0.26 0.30 0.34 0.42 0.52 0.63
0.00 0.00 0.00 0.00 0.00 0.00 0.00 0.00 0.00 0.01 0.01 0.02 0.03 0.04 0.06 0.08 0.09 0.13 0.15 0.19 0.23 0.24 0.28 0.29 0.31 0.35 0.34 0.24 0.16 0.13 0.14 0.18 0.21 0.24 0.27 0.27 0.25 0.27 0.32 0.37 0.36 0.37 0.40
0.00 0.00 0.00 0.00 0.00 0.00 0.00 0.01 0.01 0.01 0.02 0.03 0.05 0.06 0.09 0.11 0.14 0.16 0.22 0.29 0.32 0.31 0.35 0.38 0.41 0.44 0.43 0.33 0.19 0.15 0.18 0.24 0.25 0.26 0.30 0.34 0.31 0.25 0.22 0.30 0.32 0.32 0.31
0.00 0.00 0.00 0.00 0.00 0.01 0.01 0.02 0.02 0.04 0.05 0.07 0.08 0.10 0.14 0.19 0.21 0.24 0.29 0.33 0.38 0.39 0.42 0.45 0.50 0.55 0.56 0.46 0.25 0.19 0.22 0.30 0.33 0.38 0.40 0.37 0.31 0.27 0.19 0.25 0.30 0.28 0.28
0.00 0.00 0.00 0.00 0.01 0.01 0.03 0.06 0.07 0.09 0.10 0.11 0.11 0.13 0.17 0.23 0.26 0.32 0.37 0.39 0.41 0.43 0.47 0.50 0.56 0.65 0.68 0.57 0.29 0.21 0.27 0.35 0.41 0.42 0.43 0.44 0.35 0.27 0.21 0.21 0.27 0.24 0.28
0.00 0.00 0.00 0.00 0.01 0.03 0.07 0.11 0.12 0.12 0.12 0.13 0.14 0.14 0.17 0.19 0.21 0.31 0.36 0.40 0.47 0.49 0.52 0.60 0.68 0.75 0.79 0.69 0.45 0.24 0.24 0.36 0.48 0.52 0.55 0.56 0.44 0.35 0.29 0.23 0.21 0.21 0.23
0.00 0.00 0.00 0.01 0.02 0.05 0.10 0.15 0.14 0.14 0.15 0.16 0.16 0.17 0.18 0.22 0.28 0.34 0.35 0.36 0.41 0.42 0.47 0.64 0.79 0.85 0.88 0.79 0.54 0.34 0.25 0.30 0.43 0.54 0.66 0.66 0.53 0.47 0.42 0.33 0.25 0.23 0.23
0.00 0.00 0.02 0.04 0.06 0.07 0.09 0.12 0.13 0.16 0.20 0.21 0.20 0.21 0.23 0.25 0.29 0.37 0.38 0.38 0.38 0.37 0.44 0.62 0.77 0.86 0.87 0.81 0.64 0.48 0.37 0.36 0.43 0.50 0.62 0.69 0.69 0.65 0.59 0.49 0.37 0.28 0.28
0.01 0.02 0.06 0.10 0.10 0.09 0.10 0.10 0.15 0.22 0.26 0.25 0.24 0.24 0.27 0.29 0.29 0.35 0.39 0.33 0.34 0.30 0.32 0.48 0.71 0.78 0.74 0.61 0.48 0.42 0.45 0.44 0.49 0.56 0.72 0.87 0.91 0.93 0.86 0.73 0.59 0.47 0.43
0.04 0.08 0.12 0.15 0.14 0.13 0.13 0.14 0.19 0.28 0.33 0.32 0.29 0.28 0.28 0.29 0.31 0.34 0.35 0.28 0.20 0.17 0.14 0.19 0.35 0.47 0.42 0.34 0.31 0.29 0.30 0.29 0.31 0.44 0.69 0.96 1.06 1.09 1.08 0.97 0.80 0.66 0.58

GEFSMW_prec_meanprecacc_066.txt.gz
Total_Precipitation_Accumulation
0.78 0.97 1.40 2.02 2.69 3.31 3.43 2.99 2.53 2.24 1.97 1.66 1.17 0.85 0.74 0.72 0.67 0.57 0.51 0.46 0.42 0.43 0.45 0.41 0.40 0.40 0.39 0.40 0.44 0.51 0.57 0.59 0.68 0.72 0.66 0.62 0.59 0.63 0.62 0.62 0.66 0.61 0.59
1.03 1.48 2.25 2.73 2.71 2.55 2.12 1.71 1.51 1.38 1.10 0.83 0.58 0.46 0.41 0.38 0.36 0.34 0.36 0.34 0.29 0.30 0.30 0.30 0.31 0.31 0.29 0.30 0.33 0.36 0.37 0.40 0.51 0.57 0.58 0.50 0.47 0.46 0.41 0.49 0.46 0.46 0.61
1.39 1.98 2.36 2.23 1.68 1.15 0.93 0.83 0.77 0.56 0.42 0.37 0.33 0.28 0.25 0.25 0.23 0.22 0.24 0.24 0.21 0.22 0.23 0.23 0.24 0.27 0.28 0.29 0.32 0.32 0.33 0.32 0.34 0.44 0.56 0.50 0.41 0.35 0.34 0.37 0.42 0.49 0.56
0.99 1.26 1.36 1.07 0.87 0.74 0.65 0.67 0.60 0.38 0.30 0.25 0.21 0.19 0.18 0.20 0.20 0.19 0.19 0.19 0.17 0.18 0.17 0.17 0.16 0.18 0.23 0.29 0.29 0.34 0.34 0.32 0.26 0.30 0.39 0.44 0.46 0.44 0.37 0.36 0.39 0.49 0.54
0.57 0.54 0.51 0.44 0.41 0.41 0.44 0.52 0.52 0.47 0.37 0.30 0.24 0.21 0.19 0.18 0.19 0.19 0.19 0.20 0.20 0.18 0.18 0.18 0.17 0.15 0.15 0.20 0.23 0.31 0.35 0.36 0.31 0.29 0.33 0.36 0.38 0.41 0.41 0.31 0.31 0.38 0.37
0.46 0.39 0.30 0.24 0.25 0.26 0.27 0.34 0.45 0.56 0.52 0.45 0.36 0.30 0.24 0.21 0.20 0.19 0.19 0.19 0.18 0.18 0.17 0.18 0.19 0.19 0.17 0.15 0.15 0.20 0.27 0.34 0.36 0.32 0.30 0.37 0.39 0.39 0.42 0.31 0.24 0.28 0.25
0.47 0.43 0.32 0.23 0.19 0.17 0.15 0.13 0.16 0.27 0.31 0.30 0.31 0.31 0.30 0.26 0.21 0.18 0.15 0.17 0.16 0.16 0.16 0.16 0.18 0.19 0.20 0.19 0.17 0.16 0.19 0.26 0.32 0.31 0.32 0.34 0.33 0.40 0.41 0.33 0.27 0.30 0.31
0.25 0.25 0.19 0.13 0.09 0.06 0.06 0.04 0.04 0.07 0.08 0.10 0.13 0.18 0.21 0.17 0.15 0.21 0.17 0.17 0.21 0.22 0.21 0.16 0.15 0.17 0.18 0.18 0.18 0.17 0.17 0.21 0.26 0.28 0.38 0.37 0.29 0.36 0.38 0.39 0.44 0.43 0.45
0.09 0.10 0.10 0.08 0.06 0.04 0.03 0.03 0.02 0.02 0.02 0.03 0.06 0.09 0.15 0.15 0.14 0.16 0.17 0.16 0.22 0.23 0.21 0.18 0.15 0.15 0.16 0.17 0.18 0.18 0.20 0.23 0.26 0.31 0.41 0.42 0.39 0.40 0.41 0.45 0.56 0.62 0.53
0.07 0.07 0.06 0.06 0.05 0.04 0.04 0.04 0.03 0.03 0.02 0.02 0.03 0.05 0.12 0.15 0.16 0.15 0.17 0.19 0.19 0.19 0.17 0.16 0.14 0.12 0.13 0.16 0.17 0.18 0.23 0.26 0.32 0.39 0.45 0.51 0.51 0.51 0.51 0.52 0.60 0.73 0.71
0.05 0.04 0.04 0.04 0.04 0.03 0.03 0.03 0.03 0.03 0.03 0.02 0.02 0.02 0.06 0.10 0.14 0.18 0.19 0.20 0.19 0.18 0.16 0.15 0.14 0.13 0.13 0.15 0.18 0.20 0.22 0.25 0.31 0.38 0.44 0.48 0.55 0.62 0.63 0.68 0.70 0.73 0.84
0.01 0.01 0.02 0.02 0.02 0.03 0.03 0.04 0.04 0.04 0.03 0.02 0.02 0.01 0.01 0.03 0.06 0.11 0.14 0.17 0.17 0.15 0.15 0.15 0.13 0.11 0.11 0.14 0.19 0.22 0.22 0.25 0.29 0.36 0.46 0.50 0.51 0.57 0.64 0.76 0.79 0.81 0.93
0.00 0.01 0.01 0.02 0.03 0.03 0.03 0.02 0.02 0.02 0.01 0.01 0.01 0.01 0.01 0.01 0.02 0.05 0.08 0.11 0.13 0.15 0.14 0.15 0.13 0.11 0.10 0.11 0.14 0.19 0.23 0.27 0.29 0.34 0.42 0.50 0.58 0.61 0.65 0.75 0.79 0.85 1.00
0.00 0.00 0.01 0.01 0.01 0.01 0.01 0.00 0.00 0.00 0.00 0.01 0.01 0.01 0.02 0.02 0.02 0.02 0.04 0.06 0.09 0.13 0.14 0.15 0.15 0.14 0.12 0.10 0.10 0.12 0.16 0.21 0.27 0.35 0.39 0.43 0.55 0.64 0.68 0.76 0.88 0.96 1.04
0.01 0.01 0.01 0.01 0.01 0.02 0.02 0.02 0.03 0.03 0.04 0.05 0.05 0.06 0.06 0.06 0.05 0.05 0.05 0.06 0.09 0.11 0.15 0.18 0.18 0.18 0.15 0.10 0.10 0.13 0.13 0.15 0.19 0.26 0.33 0.34 0.39 0.49 0.61 0.69 0.79 0.96 1.12
0.04 0.04 0.04 0.03 0.02 0.02 0.02 0.02 0.03 0.03 0.04 0.05 0.05 0.05 0.05 0.05 0.06 0.06 0.06 0.07 0.10 0.15 0.20 0.22 0.22 0.22 0.15 0.10 0.09 0.10 0.12 0.15 0.18 0.22 0.28 0.29 0.29 0.32 0.38 0.48 0.62 0.77 0.94
0.02 0.01 0.01 0.01 0.00 0.00 0.00 0.00 0.01 0.01 0.02 0.03 0.03 0.03 0.05 0.05 0.07 0.07 0.08 0.10 0.14 0.19 0.25 0.27 0.28 0.28 0.28 0.20 0.13 0.09 0.12 0.15 0.19 0.23 0.26 0.21 0.18 0.26 0.30 0.35 0.42 0.52 0.64
0.00 0.00 0.00 0.00 0.00 0.00 0.00 0.00 0.00 0.01 0.01 0.02 0.03 0.04 0.06 0.08 0.09 0.13 0.15 0.19 0.23 0.24 0.28 0.29 0.31 0.35 0.34 0.25 0.16 0.13 0.14 0.18 0.21 0.24 0.27 0.27 0.25 0.27 0.32 0.37 0.36 0.37 0.40
0.00 0.00 0.00 0.00 0.00 0.01 0.01 0.01 0.01 0.02 0.02 0.03 0.05 0.06 0.09 0.11 0.14 0.16 0.22 0.29 0.32 0.31 0.35 0.38 0.41 0.44 0.43 0.33 0.19 0.15 0.18 0.24 0.25 0.26 0.30 0.34 0.31 0.26 0.22 0.30 0.33 0.32 0.31
0.01 0.00 0.01 0.01 0.01 0.01 0.02 0.02 0.03 0.05 0.06 0.07 0.09 0.10 0.14 0.19 0.21 0.24 0.29 0.33 0.39 0.39 0.42 0.45 0.50 0.55 0.56 0.46 0.25 0.19 0.22 0.30 0.33 0.38 0.40 0.37 0.31 0.27 0.19 0.25 0.30 0.29 0.28
0.01 0.01 0.01 0.01 0.01 0.02 0.04 0.06 0.09 0.11 0.11 0.12 0.13 0.14 0.17 0.23 0.26 0.32 0.37 0.39 0.41 0.43 0.47 0.51 0.56 0.65 0.68 0.57 0.29 0.22 0.28 0.35 0.41 0.42 0.43 0.44 0.35 0.27 0.21 0.21 0.27 0.25 0.28
0.01 0.01 0.01 0.01 0.02 0.04 0.08 0.12 0.14 0.14 0.15 0.15 0.15 0.15 0.18 0.19 0.22 0.32 0.37 0.42 0.48 0.50 0.53 0.61 0.68 0.75 0.79 0.69 0.46 0.25 0.25 0.37 0.48 0.53 0.55 0.56 0.44 0.35 0.29 0.23 0.21 0.21 0.23
0.01 0.01 0.01 0.02 0.04 0.07 0.12 0.17 0.16 0.16 0.18 0.19 0.19 0.19 0.20 0.25 0.30 0.36 0.36 0.38 0.42 0.43 0.48 0.65 0.80 0.86 0.89 0.80 0.55 0.35 0.26 0.31 0.44 0.55 0.66 0.66 0.53 0.47 0.42 0.33 0.25 0.23 0.23
0.01 0.01 0.03 0.05 0.07 0.09 0.12 0.14 0.16 0.20 0.24 0.25 0.25 0.25 0.27 0.28 0.31 0.39 0.40 0.39 0.39 0.39 0.46 0.65 0.80 0.88 0.90 0.83 0.66 0.49 0.38 0.36 0.43 0.51 0.62 0.69 0.69 0.65 0.59 0.49 0.37 0.28 0.28
0.02 0.04 0.07 0.11 0.13 0.12 0.13 0.14 0.17 0.25 0.30 0.29 0.29 0.29 0.31 0.31 0.31 0.37 0.40 0.35 0.35 0.33 0.35 0.53 0.75 0.82 0.76 0.63 0.49 0.43 0.46 0.45 0.50 0.56 0.73 0.87 0.91 0.93 0.86 0.73 0.59 0.47 0.43
0.04 0.09 0.13 0.16 0.16 0.15 0.16 0.16 0.21 0.30 0.37 0.36 0.33 0.32 0.31 0.32 0.33 0.36 0.36 0.29 0.23 0.20 0.19 0.25 0.40 0.51 0.46 0.38 0.34 0.31 0.32 0.30 0.31 0.44 0.69 0.96 1.06 1.09 1.08 0.97 0.80 0.67 0.59

GEFSMW_prec_meanprecacc_072.txt.gz
Total_Precipitation_Accumulation
0.95 1.15 1.60 2.26 2.95 3.58 3.64 3.12 2.61 2.29 2.00 1.67 1.17 0.85 0.74 0.72 0.67 0.57 0.51 0.46 0.42 0.43 0.45 0.41 0.40 0.40 0.39 0.40 0.44 0.51 0.57 0.59 0.68 0.72 0.66 0.62 0.59 0.63 0.62 0.63 0.67 0.62 0.60
1.17 1.67 2.45 2.94 2.93 2.80 2.33 1.85 1.58 1.42 1.13 0.84 0.58 0.46 0.41 0.38 0.36 0.34 0.36 0.34 0.29 0.30 0.30 0.30 0.31 0.31 0.29 0.30 0.33 0.36 0.37 0.40 0.51 0.57 0.58 0.50 0.47 0.46 0.41 0.49 0.46 0.46 0.61
1.50 2.13 2.52 2.40 1.91 1.36 1.11 0.95 0.83 0.59 0.43 0.38 0.33 0.28 0.25 0.25 0.23 0.22 0.24 0.24 0.21 0.22 0.23 0.23 0.24 0.27 0.28 0.29 0.32 0.32 0.33 0.32 0.34 0.44 0.56 0.50 0.41 0.35 0.34 0.37 0.42 0.49 0.56
1.06 1.37 1.48 1.18 1.04 0.90 0.77 0.74 0.64 0.40 0.31 0.25 0.21 0.19 0.18 0.20 0.20 0.19 0.19 0.19 0.17 0.18 0.17 0.17 0.16 0.18 0.23 0.29 0.29 0.34 0.34 0.32 0.26 0.30 0.39 0.44 0.46 0.44 0.37 0.36 0.39 0.49 0.54
0.61 0.61 0.59 0.51 0.49 0.49 0.50 0.56 0.55 0.48 0.38 0.30 0.24 0.21 0.19 0.18 0.19 0.19 0.19 0.20 0.20 0.18 0.18 0.18 0.17 0.15 0.15 0.20 0.23 0.31 0.35 0.36 0.31 0.29 0.33 0.36 0.38 0.41 0.41 0.31 0.31 0.38 0.37
0.49 0.43 0.36 0.30 0.30 0.30 0.30 0.36 0.46 0.56 0.52 0.45 0.36 0.30 0.24 0.21 0.20 0.19 0.19 0.19 0.18 0.18 0.17 0.18 0.19 0.19 0.17 0.15 0.15 0.20 0.27 0.34 0.36 0.32 0.30 0.37 0.39 0.39 0.42 0.31 0.24 0.28 0.25
0.49 0.46 0.37 0.27 0.21 0.19 0.17 0.14 0.17 0.28 0.31 0.30 0.31 0.32 0.30 0.26 0.21 0.18 0.15 0.17 0.16 0.16 0.16 0.16 0.18 0.19 0.20 0.19 0.17 0.16 0.19 0.26 0.32 0.31 0.32 0.34 0.33 0.40 0.41 0.33 0.27 0.30 0.31
0.26 0.26 0.23 0.15 0.10 0.08 0.06 0.05 0.04 0.07 0.08 0.10 0.13 0.18 0.22 0.17 0.15 0.21 0.17 0.17 0.21 0.22 0.21 0.16 0.15 0.17 0.18 0.18 0.18 0.17 0.17 0.21 0.26 0.28 0.38 0.37 0.29 0.36 0.38 0.39 0.44 0.43 0.45
0.09 0.10 0.11 0.09 0.06 0.05 0.04 0.03 0.02 0.02 0.02 0.03 0.06 0.10 0.15 0.16 0.14 0.16 0.17 0.16 0.22 0.23 0.21 0.18 0.15 0.15 0.16 0.17 0.18 0.18 0.20 0.23 0.26 0.31 0.41 0.42 0.39 0.40 0.41 0.45 0.56 0.62 0.54
0.07 0.07 0.07 0.06 0.05 0.04 0.04 0.04 0.03 0.03 0.02 0.02 0.03 0.05 0.12 0.15 0.16 0.15 0.17 0.19 0.19 0.19 0.17 0.16 0.14 0.12 0.13 0.16 0.17 0.18 0.23 0.26 0.32 0.39 0.45 0.51 0.51 0.51 0.51 0.52 0.60 0.73 0.71
0.05 0.04 0.04 0.04 0.04 0.03 0.03 0.03 0.03 0.03 0.03 0.02 0.02 0.02 0.06 0.10 0.14 0.18 0.19 0.20 0.19 0.18 0.16 0.15 0.14 0.13 0.13 0.15 0.18 0.20 0.22 0.25 0.31 0.38 0.44 0.48 0.55 0.62 0.63 0.68 0.70 0.73 0.84
0.01 0.01 0.02 0.02 0.02 0.03 0.03 0.04 0.04 0.04 0.03 0.03 0.02 0.01 0.02 0.03 0.06 0.11 0.14 0.17 0.17 0.15 0.15 0.15 0.13 0.11 0.11 0.14 0.19 0.22 0.22 0.25 0.29 0.36 0.46 0.50 0.51 0.57 0.64 0.76 0.79 0.81 0.93
0.00 0.01 0.01 0.02 0.03 0.03 0.03 0.02 0.02 0.02 0.02 0.01 0.01 0.01 0.01 0.01 0.02 0.05 0.08 0.11 0.13 0.15 0.14 0.15 0.13 0.11 0.10 0.11 0.14 0.19 0.23 0.27 0.29 0.34 0.42 0.50 0.58 0.61 0.65 0.75 0.79 0.85 1.00
0.01 0.00 0.01 0.01 0.01 0.01 0.01 0.01 0.01 0.01 0.01 0.01 0.01 0.01 0.02 0.02 0.02 0.02 0.04 0.06 0.09 0.13 0.14 0.15 0.15 0.14 0.12 0.10 0.10 0.12 0.16 0.21 0.27 0.35 0.39 0.43 0.55 0.64 0.68 0.76 0.88 0.96 1.04
0.01 0.02 0.02 0.01 0.01 0.02 0.02 0.03 0.03 0.03 0.04 0.05 0.06 0.06 0.06 0.06 0.05 0.05 0.05 0.06 0.09 0.11 0.15 0.18 0.18 0.18 0.15 0.10 0.10 0.13 0.13 0.15 0.19 0.26 0.33 0.34 0.39 0.49 0.61 0.69 0.79 0.96 1.12
0.05 0.05 0.04 0.03 0.03 0.03 0.03 0.03 0.03 0.03 0.04 0.06 0.06 0.05 0.05 0.06 0.06 0.06 0.06 0.07 0.10 0.15 0.20 0.22 0.22 0.22 0.15 0.10 0.09 0.10 0.12 0.15 0.18 0.22 0.28 0.29 0.29 0.32 0.38 0.48 0.62 0.77 0.94
0.02 0.02 0.02 0.02 0.02 0.01 0.01 0.01 0.01 0.02 0.02 0.03 0.03 0.04 0.05 0.06 0.07 0.07 0.08 0.10 0.14 0.19 0.25 0.27 0.28 0.28 0.28 0.20 0.13 0.09 0.12 0.15 0.19 0.23 0.26 0.21 0.18 0.26 0.30 0.35 0.42 0.52 0.64
0.02 0.02 0.02 0.01 0.01 0.01 0.01 0.01 0.01 0.02 0.02 0.03 0.04 0.05 0.07 0.08 0.10 0.13 0.15 0.19 0.23 0.24 0.28 0.29 0.31 0.35 0.34 0.25 0.16 0.13 0.14 0.18 0.21 0.24 0.27 0.27 0.25 0.27 0.32 0.37 0.36 0.37 0.40
0.02 0.02 0.02 0.01 0.01 0.01 0.01 0.02 0.02 0.03 0.04 0.05 0.06 0.08 0.10 0.12 0.14 0.17 0.22 0.29 0.32 0.31 0.35 0.38 0.41 0.44 0.44 0.33 0.19 0.15 0.18 0.24 0.25 0.27 0.30 0.34 0.31 0.26 0.22 0.31 0.33 0.32 0.31
0.02 0.02 0.02 0.02 0.02 0.02 0.03 0.03 0.04 0.06 0.08 0.10 0.12 0.13 0.16 0.21 0.22 0.25 0.30 0.35 0.40 0.40 0.43 0.46 0.51 0.56 0.57 0.47 0.27 0.20 0.23 0.30 0.33 0.38 0.40 0.37 0.31 0.27 0.19 0.25 0.30 0.29 0.28
0.03 0.02 0.02 0.01 0.02 0.02 0.05 0.08 0.11 0.14 0.16 0.17 0.17 0.18 0.21 0.26 0.29 0.35 0.40 0.42 0.44 0.46 0.50 0.53 0.59 0.67 0.70 0.58 0.31 0.23 0.28 0.36 0.42 0.43 0.43 0.44 0.35 0.27 0.21 0.22 0.27 0.25 0.28
0.01 0.01 0.01 0.02 0.02 0.05 0.09 0.13 0.16 0.18 0.20 0.20 0.21 0.21 0.24 0.25 0.27 0.37 0.41 0.46 0.52 0.54 0.56 0.63 0.70 0.76 0.80 0.70 0.47 0.26 0.26 0.38 0.49 0.53 0.55 0.56 0.45 0.35 0.29 0.23 0.21 0.21 0.23
0.01 0.01 0.01 0.02 0.04 0.08 0.13 0.19 0.18 0.19 0.21 0.23 0.23 0.24 0.25 0.30 0.35 0.39 0.39 0.40 0.44 0.45 0.49 0.66 0.81 0.87 0.90 0.81 0.56 0.36 0.27 0.33 0.45 0.56 0.67 0.67 0.54 0.48 0.42 0.34 0.26 0.23 0.23
0.01 0.02 0.03 0.05 0.08 0.10 0.13 0.16 0.18 0.22 0.26 0.28 0.28 0.29 0.30 0.31 0.34 0.41 0.41 0.40 0.40 0.40 0.47 0.66 0.81 0.89 0.90 0.84 0.67 0.50 0.39 0.38 0.45 0.52 0.63 0.70 0.71 0.67 0.60 0.50 0.37 0.28 0.29
0.02 0.04 0.08 0.12 0.13 0.13 0.13 0.14 0.18 0.26 0.31 0.31 0.30 0.31 0.33 0.33 0.33 0.39 0.42 0.36 0.37 0.34 0.36 0.53 0.76 0.83 0.77 0.64 0.51 0.45 0.47 0.46 0.51 0.58 0.74 0.88 0.93 0.94 0.87 0.74 0.60 0.48 0.44
0.05 0.09 0.13 0.16 0.16 0.15 0.16 0.17 0.21 0.31 0.37 0.37 0.34 0.33 0.33 0.33 0.34 0.37 0.37 0.30 0.23 0.20 0.19 0.25 0.40 0.52 0.46 0.38 0.35 0.32 0.34 0.32 0.34 0.46 0.71 0.97 1.07 1.11 1.09 0.98 0.81 0.68 0.59

GEFSMW_prec_meanprecacc_078.txt.gz
Total_Precipitation_Accumulation
1.05 1.27 1.71 2.36 3.10 3.80 3.86 3.29 2.76 2.43 2.11 1.75 1.23 0.90 0.77 0.72 0.68 0.57 0.51 0.46 0.42 0.43 0.45 0.41 0.40 0.40 0.39 0.40 0.44 0.51 0.57 0.59 0.68 0.72 0.67 0.62 0.59 0.64 0.63 0.64 0.69 0.64 0.62
1.28 1.77 2.55 3.04 3.04 3.00 2.55 2.01 1.72 1.54 1.23 0.91 0.63 0.50 0.43 0.39 0.36 0.34 0.36 0.34 0.29 0.30 0.30 0.30 0.31 0.31 0.29 0.30 0.33 0.36 0.37 0.40 0.51 0.58 0.58 0.51 0.47 0.46 0.41 0.49 0.47 0.47 0.63
1.56 2.20 2.59 2.48 2.01 1.50 1.26 1.08 0.95 0.68 0.51 0.43 0.37 0.31 0.26 0.25 0.23 0.22 0.25 0.24 0.21 0.22 0.23 0.23 0.24 0.27 0.28 0.29 0.32 0.32 0.33 0.32 0.34 0.44 0.56 0.51 0.41 0.35 0.34 0.37 0.42 0.49 0.56
1.08 1.40 1.52 1.25 1.12 1.02 0.91 0.86 0.75 0.46 0.36 0.29 0.24 0.21 0.19 0.20 0.20 0.19 0.19 0.19 0.17 0.18 0.17 0.17 0.16 0.18 0.23 0.29 0.29 0.34 0.34 0.32 0.26 0.30 0.39 0.44 0.46 0.45 0.38 0.36 0.39 0.49 0.54
0.63 0.63 0.63 0.57 0.56 0.57 0.60 0.63 0.61 0.53 0.41 0.33 0.26 0.23 0.20 0.18 0.19 0.19 0.19 0.20 0.20 0.18 0.18 0.18 0.17 0.15 0.15 0.20 0.23 0.31 0.35 0.36 0.31 0.29 0.33 0.36 0.38 0.41 0.41 0.31 0.31 0.38 0.37
0.50 0.46 0.39 0.32 0.33 0.36 0.34 0.39 0.50 0.59 0.54 0.46 0.37 0.31 0.24 0.22 0.20 0.19 0.19 0.19 0.18 0.18 0.17 0.18 0.19 0.19 0.17 0.15 0.15 0.20 0.27 0.34 0.36 0.32 0.30 0.37 0.39 0.39 0.42 0.31 0.24 0.28 0.25
0.49 0.47 0.38 0.28 0.23 0.22 0.19 0.16 0.18 0.29 0.32 0.31 0.32 0.32 0.30 0.26 0.21 0.18 0.16 0.17 0.16 0.16 0.16 0.16 0.18 0.19 0.20 0.19 0.17 0.16 0.19 0.26 0.32 0.31 0.32 0.34 0.33 0.40 0.41 0.33 0.27 0.30 0.31
0.26 0.27 0.24 0.16 0.11 0.09 0.08 0.06 0.06 0.08 0.09 0.10 0.14 0.18 0.22 0.17 0.15 0.21 0.17 0.18 0.21 0.22 0.21 0.16 0.15 0.17 0.18 0.18 0.18 0.17 0.17 0.21 0.26 0.28 0.38 0.37 0.29 0.36 0.38 0.39 0.44 0.43 0.45
0.09 0.11 0.12 0.09 0.07 0.06 0.05 0.04 0.03 0.03 0.03 0.03 0.06 0.10 0.15 0.16 0.14 0.17 0.17 0.16 0.22 0.23 0.21 0.18 0.15 0.15 0.16 0.17 0.18 0.18 0.20 0.23 0.26 0.31 0.41 0.42 0.39 0.40 0.41 0.45 0.56 0.62 0.54
0.07 0.07 0.07 0.06 0.05 0.05 0.05 0.05 0.04 0.03 0.02 0.02 0.03 0.05 0.12 0.15 0.16 0.15 0.17 0.19 0.19 0.19 0.17 0.16 0.14 0.12 0.13 0.16 0.17 0.18 0.23 0.26 0.32 0.39 0.45 0.51 0.51 0.51 0.51 0.52 0.60 0.73 0.71
0.05 0.04 0.04 0.04 0.04 0.03 0.03 0.03 0.03 0.03 0.03 0.02 0.02 0.02 0.06 0.10 0.14 0.18 0.19 0.20 0.19 0.18 0.16 0.15 0.14 0.13 0.13 0.15 0.18 0.20 0.22 0.25 0.31 0.38 0.44 0.48 0.55 0.62 0.63 0.68 0.70 0.73 0.84
0.01 0.01 0.02 0.02 0.02 0.03 0.03 0.04 0.04 0.04 0.03 0.03 0.02 0.02 0.02 0.03 0.07 0.11 0.15 0.17 0.17 0.15 0.15 0.15 0.13 0.11 0.11 0.14 0.19 0.22 0.22 0.25 0.29 0.36 0.46 0.50 0.51 0.57 0.65 0.76 0.79 0.81 0.93
0.01 0.01 0.01 0.02 0.03 0.03 0.03 0.02 0.02 0.02 0.02 0.01 0.01 0.01 0.01 0.01 0.03 0.05 0.08 0.11 0.13 0.15 0.14 0.15 0.13 0.11 0.10 0.11 0.14 0.19 0.23 0.27 0.29 0.34 0.42 0.50 0.58 0.61 0.65 0.75 0.79 0.85 1.00
0.01 0.01 0.01 0.01 0.01 0.01 0.01 0.01 0.01 0.01 0.01 0.01 0.01 0.02 0.02 0.02 0.02 0.02 0.04 0.06 0.09 0.13 0.14 0.15 0.15 0.14 0.12 0.10 0.10 0.12 0.16 0.21 0.27 0.35 0.39 0.43 0.55 0.64 0.69 0.76 0.88 0.96 1.04
0.01 0.02 0.02 0.02 0.02 0.02 0.02 0.03 0.03 0.04 0.04 0.05 0.06 0.06 0.06 0.06 0.06 0.05 0.05 0.06 0.09 0.11 0.15 0.18 0.18 0.18 0.15 0.10 0.10 0.13 0.13 0.15 0.19 0.26 0.33 0.34 0.39 0.49 0.61 0.69 0.79 0.96 1.12
0.06 0.05 0.04 0.04 0.03 0.03 0.03 0.03 0.03 0.03 0.04 0.06 0.06 0.06 0.06 0.06 0.07 0.06 0.06 0.07 0.10 0.15 0.20 0.22 0.22 0.22 0.15 0.10 0.09 0.10 0.12 0.15 0.18 0.22 0.28 0.29 0.29 0.32 0.38 0.48 0.62 0.77 0.94
0.03 0.03 0.03 0.03 0.03 0.02 0.02 0.01 0.02 0.02 0.03 0.04 0.04 0.05 0.06 0.06 0.08 0.08 0.08 0.10 0.14 0.19 0.25 0.27 0.28 0.28 0.28 0.20 0.13 0.09 0.12 0.15 0.19 0.23 0.26 0.21 0.18 0.26 0.30 0.35 0.42 0.52 0.64
0.03 0.03 0.03 0.03 0.02 0.02 0.02 0.02 0.02 0.02 0.03 0.04 0.04 0.06 0.07 0.09 0.11 0.14 0.16 0.19 0.23 0.25 0.28 0.29 0.32 0.35 0.34 0.25 0.16 0.13 0.14 0.18 0.21 0.24 0.27 0.27 0.25 0.27 0.33 0.37 0.37 0.37 0.40
0.04 0.03 0.03 0.03 0.03 0.02 0.02 0.02 0.03 0.04 0.04 0.05 0.07 0.09 0.12 0.14 0.16 0.18 0.23 0.31 0.33 0.32 0.36 0.39 0.41 0.44 0.44 0.33 0.20 0.15 0.18 0.24 0.25 0.27 0.31 0.35 0.32 0.26 0.23 0.31 0.33 0.32 0.32
0.04 0.03 0.03 0.03 0.03 0.04 0.04 0.04 0.05 0.07 0.09 0.11 0.13 0.15 0.18 0.22 0.24 0.27 0.32 0.36 0.41 0.41 0.44 0.47 0.52 0.57 0.57 0.48 0.28 0.21 0.24 0.30 0.33 0.39 0.41 0.38 0.32 0.28 0.20 0.26 0.31 0.29 0.29
0.04 0.03 0.02 0.02 0.03 0.04 0.05 0.08 0.11 0.15 0.17 0.19 0.19 0.20 0.23 0.28 0.30 0.36 0.41 0.43 0.45 0.47 0.51 0.54 0.60 0.68 0.71 0.59 0.32 0.25 0.29 0.36 0.42 0.44 0.44 0.45 0.36 0.28 0.22 0.23 0.28 0.25 0.29
0.02 0.02 0.02 0.02 0.03 0.05 0.09 0.14 0.17 0.19 0.20 0.21 0.22 0.22 0.25 0.26 0.29 0.38 0.43 0.47 0.53 0.55 0.56 0.64 0.70 0.77 0.81 0.71 0.48 0.28 0.27 0.39 0.49 0.53 0.56 0.56 0.46 0.36 0.30 0.24 0.22 0.22 0.24
0.02 0.02 0.02 0.03 0.05 0.08 0.14 0.19 0.18 0.19 0.22 0.23 0.24 0.25 0.26 0.30 0.35 0.40 0.40 0.41 0.44 0.45 0.50 0.67 0.81 0.87 0.91 0.83 0.58 0.38 0.29 0.34 0.46 0.57 0.68 0.68 0.55 0.50 0.44 0.35 0.27 0.25 0.24
0.02 0.02 0.03 0.06 0.08 0.10 0.13 0.16 0.18 0.22 0.27 0.28 0.28 0.29 0.30 0.32 0.34 0.42 0.42 0.41 0.41 0.40 0.47 0.67 0.81 0.90 0.91 0.86 0.69 0.52 0.41 0.40 0.47 0.53 0.65 0.71 0.72 0.68 0.61 0.51 0.39 0.30 0.30
0.02 0.04 0.08 0.12 0.13 0.13 0.13 0.15 0.18 0.26 0.31 0.31 0.30 0.31 0.33 0.33 0.33 0.39 0.42 0.36 0.37 0.34 0.36 0.54 0.77 0.83 0.77 0.64 0.52 0.45 0.48 0.47 0.52 0.59 0.76 0.90 0.95 0.97 0.91 0.77 0.63 0.52 0.47
0.05 0.09 0.13 0.16 0.16 0.15 0.16 0.17 0.21 0.31 0.37 0.37 0.34 0.33 0.33 0.33 0.34 0.37 0.37 0.30 0.23 0.21 0.19 0.25 0.40 0.52 0.46 0.38 0.35 0.33 0.34 0.32 0.34 0.46 0.71 0.98 1.09 1.13 1.12 1.02 0.85 0.73 0.64

GEFSMW_prec_meanprecacc_084.txt.gz
Total_Precipitation_Accumulation
1.16 1.36 1.79 2.45 3.20 3.93 4.05 3.46 2.91 2.56 2.26 1.90 1.35 0.99 0.83 0.75 0.68 0.58 0.51 0.46 0.42 0.44 0.45 0.41 0.41 0.40 0.39 0.40 0.44 0.52 0.57 0.60 0.69 0.73 0.68 0.63 0.60 0.64 0.63 0.65 0.71 0.67 0.66
1.39 1.87 2.64 3.13 3.14 3.09 2.65 2.12 1.85 1.68 1.38 1.08 0.75 0.58 0.48 0.41 0.36 0.34 0.36 0.34 0.29 0.30 0.30 0.30 0.31 0.31 0.29 0.30 0.33 0.36 0.37 0.40 0.51 0.58 0.60 0.52 0.49 0.47 0.42 0.50 0.48 0.50 0.66
1.64 2.28 2.66 2.57 2.09 1.60 1.36 1.19 1.07 0.82 0.68 0.61 0.47 0.38 0.30 0.27 0.25 0.24 0.25 0.24 0.21 0.22 0.23 0.23 0.24 0.27 0.28 0.29 0.33 0.32 0.33 0.32 0.34 0.44 0.56 0.52 0.43 0.37 0.35 0.38 0.42 0.50 0.59
1.15 1.48 1.59 1.33 1.20 1.11 1.01 0.97 0.87 0.58 0.48 0.41 0.33 0.27 0.22 0.22 0.22 0.20 0.20 0.19 0.17 0.18 0.17 0.17 0.16 0.18 0.23 0.29 0.29 0.34 0.34 0.32 0.26 0.30 0.39 0.44 0.46 0.45 0.39 0.37 0.39 0.49 0.55
0.65 0.67 0.68 0.64 0.62 0.63 0.68 0.74 0.74 0.63 0.51 0.42 0.34 0.29 0.23 0.21 0.20 0.20 0.20 0.21 0.20 0.18 0.18 0.18 0.17 0.15 0.15 0.20 0.23 0.31 0.35 0.36 0.31 0.29 0.33 0.36 0.38 0.41 0.41 0.32 0.31 0.38 0.37
0.52 0.50 0.44 0.39 0.40 0.42 0.40 0.49 0.61 0.69 0.63 0.54 0.43 0.35 0.28 0.25 0.23 0.21 0.20 0.20 0.18 0.18 0.17 0.18 0.19 0.19 0.18 0.15 0.15 0.20 0.27 0.34 0.36 0.32 0.30 0.37 0.39 0.39 0.42 0.31 0.24 0.28 0.25
0.51 0.49 0.41 0.32 0.27 0.26 0.23 0.24 0.27 0.37 0.39 0.36 0.37 0.35 0.33 0.29 0.24 0.20 0.17 0.17 0.16 0.16 0.16 0.16 0.18 0.19 0.20 0.19 0.17 0.16 0.19 0.26 0.32 0.31 0.32 0.34 0.33 0.40 0.41 0.33 0.27 0.30 0.31
0.27 0.28 0.26 0.20 0.13 0.11 0.11 0.10 0.12 0.14 0.15 0.15 0.18 0.21 0.24 0.19 0.17 0.23 0.18 0.18 0.21 0.22 0.21 0.16 0.15 0.17 0.18 0.18 0.18 0.17 0.17 0.21 0.26 0.28 0.38 0.37 0.29 0.36 0.38 0.39 0.44 0.43 0.45
0.09 0.12 0.13 0.12 0.09 0.08 0.07 0.07 0.08 0.08 0.07 0.07 0.09 0.12 0.17 0.17 0.16 0.18 0.18 0.16 0.22 0.23 0.21 0.18 0.15 0.15 0.16 0.17 0.18 0.18 0.20 0.23 0.26 0.32 0.41 0.42 0.39 0.40 0.41 0.45 0.56 0.62 0.54
0.07 0.07 0.07 0.07 0.06 0.06 0.07 0.07 0.07 0.06 0.05 0.05 0.05 0.07 0.13 0.16 0.17 0.16 0.18 0.19 0.19 0.19 0.17 0.16 0.14 0.12 0.13 0.16 0.17 0.19 0.23 0.26 0.32 0.39 0.45 0.51 0.51 0.51 0.51 0.52 0.60 0.73 0.71
0.05 0.04 0.04 0.04 0.04 0.04 0.05 0.05 0.06 0.05 0.04 0.04 0.03 0.04 0.07 0.10 0.15 0.18 0.19 0.21 0.20 0.18 0.16 0.15 0.14 0.13 0.13 0.15 0.18 0.20 0.22 0.25 0.32 0.38 0.44 0.48 0.55 0.62 0.63 0.68 0.70 0.73 0.84
0.01 0.02 0.02 0.04 0.04 0.03 0.04 0.04 0.05 0.04 0.04 0.03 0.03 0.03 0.03 0.04 0.07 0.12 0.15 0.17 0.17 0.15 0.15 0.15 0.13 0.11 0.11 0.14 0.19 0.22 0.22 0.25 0.29 0.36 0.46 0.50 0.52 0.58 0.65 0.76 0.79 0.81 0.93
0.01 0.01 0.02 0.05 0.06 0.04 0.03 0.03 0.03 0.03 0.02 0.02 0.01 0.02 0.02 0.02 0.04 0.06 0.09 0.11 0.14 0.15 0.15 0.15 0.13 0.11 0.10 0.11 0.14 0.19 0.23 0.27 0.29 0.34 0.42 0.50 0.58 0.61 0.65 0.75 0.79 0.85 1.00
0.01 0.01 0.01 0.02 0.02 0.01 0.01 0.01 0.03 0.06 0.03 0.02 0.02 0.03 0.03 0.03 0.04 0.03 0.05 0.07 0.10 0.13 0.15 0.16 0.15 0.15 0.13 0.10 0.10 0.12 0.16 0.21 0.27 0.35 0.39 0.43 0.55 0.64 0.69 0.76 0.88 0.96 1.04
0.02 0.02 0.03 0.04 0.04 0.03 0.03 0.04 0.04 0.05 0.07 0.08 0.08 0.10 0.09 0.09 0.09 0.08 0.07 0.08 0.10 0.12 0.16 0.18 0.19 0.18 0.16 0.10 0.10 0.13 0.13 0.16 0.19 0.26 0.33 0.34 0.40 0.49 0.61 0.69 0.80 0.97 1.12
0.06 0.06 0.05 0.05 0.05 0.05 0.05 0.04 0.05 0.06 0.06 0.09 0.09 0.09 0.10 0.10 0.12 0.12 0.12 0.12 0.14 0.18 0.23 0.23 0.23 0.23 0.16 0.11 0.09 0.10 0.12 0.15 0.18 0.23 0.29 0.30 0.30 0.33 0.38 0.49 0.63 0.78 0.95
0.04 0.03 0.03 0.04 0.04 0.03 0.02 0.02 0.03 0.03 0.04 0.07 0.08 0.09 0.09 0.11 0.13 0.14 0.15 0.17 0.20 0.23 0.27 0.29 0.30 0.29 0.29 0.21 0.13 0.10 0.12 0.16 0.20 0.23 0.27 0.22 0.18 0.26 0.31 0.36 0.43 0.53 0.64
0.04 0.04 0.03 0.03 0.03 0.02 0.03 0.03 0.03 0.04 0.06 0.07 0.10 0.12 0.14 0.16 0.18 0.20 0.22 0.25 0.28 0.29 0.31 0.31 0.33 0.37 0.36 0.26 0.17 0.14 0.15 0.18 0.21 0.25 0.28 0.28 0.26 0.28 0.34 0.40 0.39 0.39 0.42
0.04 0.03 0.04 0.04 0.04 0.04 0.05 0.05 0.07 0.09 0.11 0.13 0.16 0.18 0.21 0.23 0.24 0.25 0.29 0.36 0.39 0.38 0.42 0.44 0.45 0.47 0.46 0.35 0.21 0.17 0.20 0.25 0.25 0.27 0.32 0.36 0.33 0.28 0.25 0.33 0.35 0.35 0.34
0.04 0.04 0.04 0.05 0.06 0.08 0.09 0.09 0.11 0.13 0.15 0.18 0.20 0.20 0.24 0.28 0.29 0.31 0.36 0.40 0.46 0.46 0.49 0.52 0.58 0.62 0.62 0.51 0.31 0.24 0.26 0.32 0.35 0.40 0.43 0.40 0.33 0.30 0.23 0.28 0.34 0.32 0.31
0.05 0.04 0.04 0.04 0.04 0.06 0.08 0.12 0.16 0.21 0.23 0.24 0.23 0.24 0.27 0.32 0.33 0.39 0.44 0.45 0.47 0.49 0.53 0.57 0.62 0.71 0.74 0.63 0.35 0.27 0.31 0.38 0.44 0.45 0.46 0.47 0.39 0.30 0.23 0.24 0.30 0.28 0.32
0.03 0.03 0.03 0.03 0.04 0.06 0.11 0.15 0.19 0.21 0.22 0.23 0.24 0.24 0.27 0.29 0.31 0.41 0.45 0.49 0.55 0.56 0.58 0.66 0.72 0.79 0.83 0.74 0.50 0.29 0.29 0.40 0.50 0.54 0.56 0.57 0.47 0.38 0.31 0.25 0.23 0.24 0.26
0.02 0.02 0.03 0.04 0.05 0.09 0.15 0.20 0.19 0.20 0.23 0.25 0.25 0.27 0.27 0.32 0.37 0.42 0.42 0.42 0.46 0.46 0.50 0.68 0.82 0.88 0.92 0.84 0.59 0.39 0.31 0.36 0.47 0.57 0.68 0.69 0.56 0.50 0.44 0.36 0.29 0.27 0.27
0.03 0.03 0.05 0.07 0.10 0.12 0.15 0.18 0.20 0.24 0.28 0.29 0.29 0.30 0.31 0.32 0.35 0.42 0.42 0.41 0.41 0.41 0.47 0.68 0.82 0.91 0.93 0.87 0.70 0.54 0.43 0.41 0.47 0.54 0.65 0.72 0.72 0.68 0.62 0.52 0.40 0.31 0.31
0.02 0.04 0.08 0.12 0.14 0.13 0.14 0.15 0.19 0.27 0.31 0.31 0.31 0.31 0.33 0.33 0.33 0.39 0.42 0.36 0.37 0.34 0.37 0.54 0.77 0.84 0.77 0.65 0.52 0.46 0.48 0.47 0.52 0.59 0.76 0.90 0.95 0.97 0.91 0.78 0.65 0.54 0.50
0.05 0.09 0.13 0.16 0.16 0.15 0.16 0.17 0.21 0.31 0.37 0.37 0.34 0.33 0.33 0.33 0.34 0.37 0.37 0.30 0.23 0.21 0.19 0.25 0.40 0.52 0.46 0.38 0.35 0.33 0.34 0.32 0.34 0.46 0.71 0.99 1.09 1.13 1.12 1.03 0.87 0.75 0.68

GEFSMW_prec_meanprecacc_090.txt.gz
Total_Precipitation_Accumulation
1.31 1.56 2.04 2.73 3.56 4.20 4.26 3.73 3.16 2.78 2.36 1.98 1.43 1.07 0.88 0.78 0.71 0.59 0.52 0.47 0.42 0.44 0.46 0.41 0.41 0.40 0.39 0.41 0.45 0.52 0.57 0.60 0.69 0.73 0.68 0.63 0.60 0.64 0.64 0.65 0.71 0.67 0.67
1.53 2.03 2.88 3.40 3.41 3.29 2.80 2.31 2.03 1.80 1.45 1.12 0.80 0.63 0.52 0.43 0.38 0.35 0.36 0.34 0.30 0.30 0.30 0.30 0.31 0.31 0.30 0.30 0.33 0.36 0.37 0.40 0.51 0.58 0.60 0.52 0.49 0.47 0.42 0.50 0.48 0.50 0.67
1.70 2.39 2.85 2.82 2.30 1.79 1.51 1.32 1.23 0.94 0.75 0.65 0.52 0.43 0.34 0.29 0.27 0.26 0.26 0.24 0.21 0.22 0.23 0.23 0.24 0.27 0.28 0.29 0.33 0.32 0.33 0.32 0.34 0.44 0.56 0.52 0.44 0.37 0.35 0.38 0.43 0.50 0.59
1.18 1.53 1.69 1.47 1.36 1.28 1.18 1.12 1.03 0.72 0.56 0.47 0.39 0.31 0.26 0.24 0.23 0.21 0.21 0.19 0.17 0.18 0.17 0.17 0.16 0.18 0.23 0.29 0.29 0.34 0.34 0.32 0.26 0.30 0.39 0.44 0.46 0.46 0.39 0.37 0.39 0.49 0.55
0.66 0.69 0.73 0.72 0.72 0.74 0.82 0.88 0.89 0.76 0.58 0.48 0.42 0.34 0.27 0.24 0.21 0.21 0.21 0.21 0.20 0.18 0.18 0.18 0.17 0.15 0.16 0.20 0.23 0.31 0.35 0.36 0.31 0.29 0.33 0.36 0.38 0.41 0.41 0.32 0.31 0.38 0.37
0.53 0.51 0.46 0.45 0.49 0.53 0.51 0.58 0.73 0.81 0.71 0.61 0.51 0.43 0.33 0.28 0.24 0.22 0.21 0.20 0.18 0.18 0.17 0.18 0.19 0.19 0.18 0.15 0.15 0.20 0.27 0.34 0.36 0.32 0.30 0.37 0.39 0.39 0.42 0.31 0.24 0.28 0.25
0.54 0.51 0.43 0.35 0.33 0.36 0.35 0.33 0.36 0.47 0.49 0.44 0.43 0.44 0.40 0.32 0.25 0.21 0.17 0.18 0.16 0.16 0.16 0.17 0.18 0.19 0.20 0.19 0.17 0.16 0.19 0.26 0.32 0.31 0.32 0.34 0.33 0.40 0.41 0.33 0.27 0.30 0.31
0.31 0.30 0.27 0.21 0.15 0.14 0.17 0.18 0.19 0.21 0.25 0.24 0.24 0.26 0.28 0.22 0.18 0.23 0.18 0.18 0.21 0.22 0.21 0.16 0.15 0.17 0.18 0.18 0.18 0.17 0.17 0.21 0.26 0.28 0.38 0.37 0.29 0.36 0.38 0.39 0.44 0.43 0.45
0.11 0.12 0.14 0.13 0.11 0.10 0.10 0.11 0.13 0.15 0.16 0.17 0.15 0.15 0.19 0.19 0.17 0.18 0.18 0.16 0.22 0.23 0.21 0.18 0.15 0.15 0.16 0.17 0.18 0.18 0.20 0.23 0.26 0.32 0.41 0.42 0.39 0.40 0.41 0.45 0.56 0.62 0.54
0.08 0.08 0.08 0.08 0.07 0.08 0.09 0.12 0.14 0.13 0.12 0.11 0.09 0.09 0.15 0.18 0.17 0.16 0.18 0.19 0.19 0.19 0.18 0.17 0.14 0.12 0.14 0.16 0.17 0.19 0.23 0.26 0.32 0.39 0.45 0.51 0.51 0.51 0.51 0.52 0.60 0.73 0.71
0.05 0.05 0.05 0.05 0.05 0.05 0.07 0.09 0.10 0.10 0.09 0.06 0.05 0.06 0.09 0.11 0.15 0.18 0.20 0.21 0.20 0.18 0.16 0.16 0.15 0.13 0.13 0.15 0.18 0.20 0.22 0.25 0.32 0.38 0.44 0.48 0.55 0.62 0.63 0.68 0.70 0.73 0.84
0.02 0.02 0.03 0.05 0.05 0.05 0.06 0.08 0.09 0.07 0.06 0.05 0.04 0.03 0.03 0.05 0.08 0.12 0.15 0.18 0.17 0.16 0.16 0.16 0.14 0.11 0.11 0.15 0.19 0.22 0.23 0.25 0.29 0.36 0.46 0.50 0.52 0.58 0.65 0.76 0.79 0.81 0.93
0.01 0.02 0.04 0.08 0.10 0.08 0.07 0.07 0.10 0.09 0.05 0.04 0.03 0.04 0.03 0.04 0.05 0.07 0.10 0.13 0.15 0.17 0.17 0.17 0.15 0.13 0.12 0.13 0.15 0.20 0.23 0.28 0.29 0.34 0.42 0.50 0.58 0.61 0.65 0.75 0.79 0.85 1.00
0.02 0.02 0.03 0.06 0.06 0.04 0.04 0.06 0.08 0.13 0.11 0.11 0.10 0.10 0.09 0.08 0.07 0.06 0.07 0.09 0.13 0.16 0.19 0.21 0.21 0.19 0.17 0.16 0.14 0.14 0.17 0.22 0.27 0.36 0.39 0.43 0.55 0.64 0.69 0.77 0.88 0.96 1.05
0.05 0.04 0.05 0.09 0.11 0.10 0.10 0.11 0.13 0.15 0.17 0.20 0.23 0.25 0.24 0.21 0.16 0.14 0.14 0.16 0.20 0.23 0.29 0.31 0.29 0.28 0.23 0.16 0.14 0.16 0.15 0.17 0.20 0.27 0.34 0.35 0.40 0.50 0.62 0.70 0.81 0.98 1.13
0.08 0.08 0.08 0.10 0.11 0.12 0.13 0.15 0.18 0.19 0.19 0.21 0.23 0.24 0.26 0.24 0.23 0.24 0.26 0.30 0.33 0.39 0.41 0.39 0.39 0.38 0.28 0.22 0.18 0.17 0.17 0.18 0.21 0.25 0.31 0.32 0.31 0.34 0.40 0.50 0.64 0.79 0.96
0.07 0.07 0.08 0.09 0.09 0.10 0.09 0.11 0.13 0.16 0.19 0.26 0.31 0.33 0.33 0.31 0.33 0.36 0.38 0.40 0.42 0.45 0.47 0.46 0.46 0.44 0.41 0.31 0.22 0.17 0.17 0.20 0.24 0.27 0.30 0.25 0.21 0.28 0.32 0.37 0.44 0.54 0.65
0.09 0.09 0.09 0.09 0.09 0.10 0.11 0.13 0.15 0.17 0.20 0.24 0.29 0.34 0.39 0.43 0.47 0.54 0.58 0.59 0.60 0.58 0.55 0.52 0.52 0.53 0.49 0.39 0.28 0.23 0.21 0.23 0.25 0.28 0.30 0.30 0.27 0.30 0.36 0.41 0.40 0.40 0.43
0.08 0.08 0.08 0.09 0.11 0.12 0.14 0.16 0.21 0.27 0.31 0.33 0.38 0.43 0.47 0.51 0.56 0.61 0.66 0.69 0.70 0.64 0.63 0.64 0.66 0.66 0.64 0.51 0.34 0.28 0.28 0.31 0.30 0.32 0.35 0.39 0.35 0.30 0.27 0.35 0.36 0.35 0.35
0.06 0.05 0.06 0.08 0.11 0.14 0.18 0.21 0.25 0.30 0.36 0.39 0.40 0.43 0.50 0.55 0.55 0.58 0.62 0.61 0.64 0.62 0.65 0.69 0.74 0.77 0.74 0.63 0.41 0.34 0.33 0.37 0.38 0.43 0.45 0.42 0.34 0.31 0.23 0.29 0.34 0.33 0.32
0.06 0.05 0.05 0.05 0.07 0.10 0.13 0.19 0.26 0.34 0.36 0.36 0.36 0.39 0.46 0.54 0.55 0.58 0.61 0.58 0.57 0.58 0.62 0.65 0.70 0.78 0.80 0.68 0.40 0.32 0.36 0.42 0.47 0.48 0.48 0.49 0.40 0.31 0.24 0.25 0.31 0.28 0.32
0.04 0.04 0.04 0.05 0.06 0.10 0.15 0.20 0.25 0.26 0.29 0.29 0.28 0.28 0.31 0.33 0.36 0.45 0.49 0.54 0.59 0.60 0.62 0.70 0.76 0.82 0.86 0.75 0.52 0.31 0.32 0.43 0.52 0.56 0.58 0.59 0.49 0.39 0.32 0.26 0.24 0.24 0.27
0.04 0.04 0.05 0.06 0.08 0.12 0.17 0.22 0.22 0.22 0.24 0.26 0.26 0.27 0.28 0.32 0.37 0.43 0.43 0.44 0.48 0.49 0.53 0.71 0.84 0.89 0.93 0.85 0.60 0.40 0.31 0.37 0.48 0.57 0.69 0.69 0.56 0.50 0.45 0.36 0.29 0.27 0.27
0.03 0.04 0.05 0.08 0.11 0.13 0.15 0.18 0.20 0.24 0.28 0.30 0.30 0.31 0.32 0.33 0.35 0.43 0.43 0.42 0.42 0.41 0.48 0.68 0.82 0.91 0.93 0.87 0.70 0.54 0.43 0.41 0.47 0.54 0.65 0.72 0.72 0.68 0.62 0.52 0.40 0.31 0.32
0.02 0.04 0.08 0.12 0.14 0.13 0.14 0.15 0.19 0.27 0.31 0.31 0.31 0.31 0.33 0.34 0.33 0.39 0.42 0.36 0.37 0.34 0.37 0.54 0.77 0.84 0.77 0.65 0.52 0.46 0.48 0.47 0.52 0.59 0.76 0.90 0.95 0.97 0.91 0.78 0.65 0.54 0.50
0.05 0.09 0.13 0.16 0.16 0.15 0.16 0.17 0.21 0.31 0.37 0.37 0.34 0.33 0.33 0.33 0.34 0.37 0.37 0.30 0.23 0.21 0.19 0.25 0.40 0.52 0.46 0.38 0.35 0.33 0.34 0.32 0.34 0.46 0.71 0.99 1.09 1.13 1.12 1.03 0.87 0.75 0.68

GEFSMW_prec_meanprecacc_096.txt.gz
Total_Precipitation_Accumulation
1.41 1.66 2.15 2.88 3.74 4.41 4.51 3.93 3.35 2.96 2.52 2.11 1.55 1.16 0.96 0.85 0.76 0.63 0.54 0.48 0.44 0.45 0.47 0.42 0.42 0.41 0.40 0.41 0.45 0.52 0.57 0.60 0.69 0.73 0.68 0.63 0.60 0.64 0.64 0.66 0.72 0.68 0.68
1.60 2.10 2.98 3.54 3.60 3.51 3.04 2.55 2.24 1.98 1.60 1.23 0.90 0.73 0.61 0.50 0.43 0.39 0.38 0.36 0.31 0.31 0.31 0.30 0.32 0.32 0.30 0.30 0.33 0.37 0.38 0.40 0.51 0.58 0.60 0.52 0.49 0.47 0.42 0.50 0.48 0.50 0.67
1.73 2.43 2.93 2.93 2.44 1.98 1.72 1.57 1.46 1.11 0.93 0.80 0.64 0.53 0.43 0.34 0.30 0.29 0.28 0.25 0.22 0.23 0.23 0.23 0.24 0.27 0.28 0.29 0.33 0.32 0.33 0.32 0.34 0.44 0.56 0.52 0.44 0.37 0.35 0.38 0.43 0.50 0.59
1.20 1.57 1.75 1.57 1.45 1.42 1.34 1.34 1.24 0.90 0.74 0.63 0.50 0.38 0.31 0.27 0.24 0.22 0.22 0.20 0.18 0.18 0.18 0.17 0.16 0.18 0.23 0.29 0.29 0.34 0.34 0.32 0.26 0.30 0.39 0.44 0.46 0.46 0.39 0.37 0.39 0.49 0.55
0.67 0.72 0.76 0.79 0.82 0.87 0.97 1.05 1.08 0.94 0.74 0.62 0.52 0.41 0.32 0.27 0.23 0.23 0.22 0.22 0.20 0.18 0.18 0.18 0.17 0.15 0.16 0.20 0.23 0.31 0.35 0.36 0.31 0.29 0.33 0.36 0.38 0.41 0.41 0.32 0.31 0.38 0.37
0.54 0.53 0.49 0.50 0.57 0.63 0.64 0.74 0.91 0.97 0.84 0.72 0.60 0.50 0.39 0.33 0.26 0.23 0.22 0.20 0.18 0.18 0.17 0.18 0.19 0.19 0.18 0.15 0.15 0.20 0.27 0.34 0.36 0.32 0.30 0.37 0.39 0.39 0.42 0.31 0.24 0.28 0.25
0.55 0.52 0.44 0.37 0.36 0.41 0.43 0.42 0.48 0.58 0.61 0.55 0.53 0.51 0.47 0.37 0.27 0.22 0.18 0.18 0.16 0.16 0.16 0.17 0.18 0.19 0.20 0.19 0.17 0.16 0.19 0.26 0.32 0.31 0.32 0.34 0.33 0.40 0.41 0.33 0.27 0.30 0.31
0.33 0.31 0.29 0.22 0.16 0.17 0.22 0.24 0.27 0.30 0.34 0.34 0.33 0.32 0.34 0.25 0.20 0.24 0.19 0.18 0.21 0.22 0.21 0.16 0.15 0.17 0.18 0.18 0.18 0.17 0.17 0.21 0.26 0.28 0.38 0.37 0.29 0.36 0.38 0.39 0.44 0.43 0.45
0.12 0.13 0.15 0.14 0.11 0.11 0.14 0.17 0.22 0.23 0.25 0.27 0.26 0.22 0.24 0.22 0.19 0.20 0.19 0.16 0.22 0.24 0.22 0.18 0.15 0.15 0.16 0.17 0.18 0.18 0.20 0.23 0.26 0.32 0.41 0.42 0.39 0.40 0.41 0.45 0.56 0.62 0.54
0.08 0.08 0.08 0.08 0.08 0.08 0.11 0.14 0.18 0.19 0.22 0.23 0.21 0.16 0.20 0.21 0.20 0.18 0.19 0.20 0.19 0.19 0.18 0.17 0.14 0.12 0.14 0.16 0.17 0.19 0.23 0.26 0.32 0.39 0.45 0.51 0.51 0.51 0.51 0.52 0.60 0.73 0.71
0.05 0.05 0.05 0.05 0.05 0.06 0.08 0.10 0.13 0.14 0.16 0.16 0.16 0.14 0.14 0.16 0.18 0.20 0.21 0.22 0.20 0.19 0.16 0.16 0.15 0.13 0.13 0.15 0.18 0.20 0.22 0.26 0.32 0.38 0.44 0.48 0.55 0.62 0.63 0.68 0.70 0.73 0.84
0.02 0.02 0.04 0.06 0.06 0.06 0.06 0.09 0.11 0.11 0.11 0.12 0.12 0.11 0.10 0.09 0.12 0.15 0.16 0.18 0.18 0.17 0.16 0.16 0.14 0.12 0.12 0.15 0.20 0.22 0.23 0.25 0.29 0.36 0.47 0.50 0.52 0.58 0.65 0.76 0.79 0.81 0.93
0.02 0.02 0.04 0.08 0.11 0.08 0.07 0.08 0.12 0.12 0.10 0.10 0.09 0.09 0.08 0.08 0.09 0.10 0.12 0.14 0.16 0.18 0.18 0.18 0.16 0.14 0.13 0.14 0.17 0.22 0.25 0.29 0.31 0.35 0.43 0.50 0.58 0.61 0.66 0.75 0.79 0.85 1.00
0.03 0.04 0.05 0.08 0.08 0.07 0.07 0.10 0.14 0.20 0.19 0.16 0.15 0.15 0.13 0.12 0.10 0.08 0.09 0.11 0.14 0.17 0.21 0.24 0.24 0.22 0.19 0.18 0.18 0.19 0.20 0.24 0.30 0.37 0.40 0.44 0.55 0.65 0.69 0.77 0.88 0.96 1.05
0.06 0.06 0.07 0.11 0.14 0.14 0.16 0.19 0.23 0.26 0.27 0.25 0.28 0.30 0.30 0.25 0.20 0.18 0.17 0.19 0.22 0.26 0.34 0.35 0.34 0.32 0.28 0.21 0.19 0.20 0.18 0.20 0.23 0.29 0.36 0.37 0.42 0.52 0.64 0.71 0.82 0.99 1.14
0.09 0.09 0.10 0.13 0.14 0.16 0.18 0.21 0.26 0.28 0.26 0.28 0.29 0.31 0.35 0.32 0.30 0.30 0.32 0.36 0.39 0.46 0.49 0.46 0.45 0.45 0.36 0.30 0.26 0.23 0.21 0.22 0.24 0.28 0.35 0.35 0.35 0.37 0.43 0.53 0.66 0.81 0.97
0.08 0.09 0.11 0.12 0.13 0.14 0.15 0.17 0.21 0.24 0.28 0.35 0.41 0.44 0.45 0.43 0.43 0.46 0.46 0.47 0.49 0.53 0.56 0.55 0.55 0.53 0.51 0.42 0.31 0.25 0.24 0.27 0.30 0.33 0.36 0.30 0.25 0.33 0.36 0.40 0.47 0.56 0.67
0.12 0.13 0.14 0.14 0.14 0.15 0.16 0.20 0.25 0.27 0.32 0.37 0.43 0.47 0.53 0.56 0.58 0.65 0.67 0.69 0.69 0.67 0.67 0.65 0.65 0.65 0.62 0.51 0.38 0.32 0.29 0.31 0.32 0.35 0.37 0.36 0.33 0.34 0.39 0.44 0.43 0.42 0.45
0.11 0.11 0.13 0.15 0.16 0.17 0.20 0.23 0.29 0.37 0.42 0.45 0.50 0.54 0.57 0.62 0.67 0.69 0.73 0.77 0.79 0.76 0.76 0.79 0.80 0.79 0.74 0.62 0.44 0.38 0.36 0.39 0.39 0.40 0.42 0.45 0.41 0.35 0.31 0.37 0.38 0.37 0.37
0.10 0.08 0.09 0.12 0.16 0.20 0.24 0.29 0.34 0.41 0.48 0.52 0.51 0.50 0.55 0.61 0.62 0.64 0.68 0.68 0.70 0.68 0.71 0.74 0.81 0.85 0.84 0.74 0.53 0.46 0.42 0.45 0.47 0.51 0.52 0.48 0.40 0.36 0.27 0.31 0.36 0.34 0.32
0.10 0.08 0.07 0.08 0.10 0.14 0.18 0.25 0.34 0.43 0.44 0.42 0.41 0.42 0.49 0.58 0.59 0.64 0.66 0.62 0.60 0.61 0.65 0.69 0.74 0.82 0.83 0.72 0.44 0.37 0.41 0.47 0.53 0.54 0.55 0.55 0.46 0.36 0.28 0.28 0.32 0.30 0.34
0.08 0.08 0.07 0.07 0.09 0.13 0.17 0.24 0.29 0.30 0.32 0.31 0.30 0.30 0.33 0.35 0.37 0.47 0.52 0.56 0.61 0.62 0.64 0.71 0.78 0.84 0.87 0.77 0.53 0.33 0.33 0.44 0.54 0.58 0.61 0.63 0.53 0.42 0.35 0.28 0.25 0.26 0.28
0.09 0.09 0.09 0.10 0.11 0.15 0.21 0.26 0.24 0.24 0.26 0.27 0.27 0.28 0.29 0.33 0.38 0.43 0.44 0.45 0.49 0.50 0.55 0.72 0.86 0.91 0.95 0.86 0.61 0.40 0.32 0.37 0.48 0.58 0.69 0.69 0.57 0.51 0.45 0.36 0.29 0.27 0.27
0.07 0.09 0.09 0.11 0.14 0.16 0.19 0.20 0.22 0.25 0.30 0.31 0.31 0.31 0.32 0.33 0.36 0.43 0.43 0.42 0.42 0.42 0.48 0.68 0.83 0.92 0.93 0.87 0.71 0.54 0.43 0.41 0.47 0.54 0.65 0.72 0.72 0.68 0.62 0.52 0.40 0.31 0.32
0.05 0.07 0.11 0.15 0.15 0.14 0.15 0.16 0.20 0.27 0.32 0.31 0.31 0.31 0.33 0.34 0.33 0.39 0.42 0.36 0.37 0.34 0.37 0.54 0.77 0.84 0.77 0.65 0.52 0.46 0.48 0.47 0.52 0.59 0.76 0.90 0.95 0.97 0.91 0.78 0.65 0.54 0.50
0.07 0.10 0.14 0.16 0.16 0.15 0.16 0.17 0.21 0.31 0.37 0.37 0.34 0.33 0.33 0.33 0.34 0.37 0.37 0.30 0.23 0.21 0.19 0.25 0.40 0.52 0.46 0.38 0.35 0.33 0.34 0.32 0.34 0.46 0.71 0.99 1.09 1.13 1.12 1.03 0.87 0.75 0.68

GEFSMW_prec_meanprecacc_102.txt.gz
Total_Precipitation_Accumulation
1.44 1.70 2.21 2.95 3.83 4.52 4.61 4.06 3.48 3.08 2.64 2.22 1.67 1.27 1.04 0.93 0.84 0.70 0.60 0.54 0.49 0.49 0.51 0.46 0.45 0.44 0.43 0.44 0.47 0.54 0.59 0.61 0.70 0.75 0.70 0.65 0.61 0.66 0.66 0.68 0.75 0.71 0.71
1.61 2.12 3.03 3.59 3.66 3.59 3.13 2.66 2.36 2.09 1.72 1.34 1.03 0.85 0.71 0.59 0.51 0.46 0.44 0.40 0.35 0.34 0.33 0.33 0.35 0.34 0.32 0.33 0.35 0.39 0.39 0.41 0.52 0.59 0.62 0.54 0.50 0.48 0.43 0.51 0.49 0.52 0.69
1.74 2.45 2.96 2.97 2.48 2.04 1.80 1.66 1.57 1.23 1.04 0.90 0.76 0.66 0.53 0.41 0.36 0.35 0.34 0.29 0.24 0.24 0.25 0.25 0.26 0.29 0.30 0.31 0.34 0.34 0.34 0.33 0.34 0.44 0.57 0.54 0.45 0.38 0.36 0.39 0.43 0.51 0.60
1.21 1.58 1.77 1.60 1.50 1.46 1.42 1.45 1.36 1.02 0.85 0.72 0.60 0.48 0.39 0.33 0.31 0.28 0.27 0.24 0.20 0.19 0.18 0.18 0.17 0.19 0.24 0.30 0.30 0.34 0.34 0.32 0.26 0.30 0.40 0.44 0.47 0.47 0.40 0.38 0.40 0.49 0.56
0.68 0.73 0.78 0.83 0.88 0.93 1.05 1.17 1.20 1.04 0.82 0.70 0.61 0.52 0.41 0.35 0.31 0.29 0.27 0.26 0.23 0.19 0.19 0.19 0.17 0.16 0.16 0.21 0.23 0.31 0.35 0.36 0.31 0.29 0.33 0.36 0.38 0.42 0.41 0.32 0.31 0.38 0.37
0.55 0.54 0.50 0.54 0.63 0.70 0.76 0.87 1.02 1.06 0.92 0.79 0.68 0.60 0.49 0.42 0.34 0.30 0.27 0.24 0.20 0.19 0.18 0.19 0.19 0.19 0.18 0.15 0.16 0.20 0.27 0.34 0.37 0.32 0.30 0.37 0.39 0.39 0.42 0.31 0.24 0.28 0.25
0.55 0.53 0.45 0.39 0.39 0.46 0.52 0.52 0.58 0.67 0.69 0.63 0.60 0.59 0.55 0.45 0.35 0.28 0.22 0.21 0.18 0.17 0.16 0.17 0.18 0.19 0.20 0.19 0.17 0.16 0.19 0.26 0.32 0.31 0.32 0.34 0.33 0.40 0.41 0.33 0.27 0.31 0.31
0.34 0.32 0.29 0.24 0.18 0.20 0.28 0.31 0.34 0.38 0.41 0.42 0.41 0.40 0.42 0.32 0.26 0.29 0.22 0.20 0.22 0.23 0.22 0.17 0.16 0.17 0.18 0.19 0.19 0.17 0.17 0.21 0.26 0.28 0.38 0.37 0.29 0.36 0.38 0.39 0.44 0.44 0.46
0.12 0.14 0.16 0.15 0.13 0.13 0.17 0.22 0.29 0.32 0.32 0.35 0.34 0.29 0.31 0.29 0.26 0.24 0.21 0.18 0.24 0.25 0.23 0.19 0.16 0.15 0.17 0.18 0.19 0.19 0.21 0.23 0.26 0.32 0.41 0.43 0.39 0.40 0.41 0.45 0.56 0.63 0.54
0.08 0.09 0.09 0.09 0.09 0.09 0.13 0.19 0.27 0.31 0.31 0.30 0.29 0.24 0.28 0.29 0.27 0.22 0.22 0.22 0.21 0.21 0.19 0.18 0.14 0.13 0.14 0.16 0.18 0.19 0.23 0.27 0.32 0.40 0.45 0.51 0.51 0.52 0.51 0.52 0.60 0.73 0.72
0.05 0.05 0.05 0.06 0.06 0.07 0.09 0.12 0.18 0.22 0.24 0.25 0.25 0.22 0.22 0.23 0.24 0.24 0.24 0.24 0.22 0.20 0.18 0.17 0.15 0.14 0.14 0.16 0.19 0.21 0.22 0.26 0.32 0.38 0.44 0.48 0.56 0.62 0.64 0.69 0.70 0.74 0.84
0.02 0.03 0.04 0.06 0.06 0.06 0.07 0.10 0.13 0.14 0.17 0.19 0.18 0.17 0.18 0.17 0.18 0.19 0.20 0.21 0.20 0.18 0.17 0.17 0.15 0.13 0.13 0.17 0.21 0.23 0.24 0.26 0.30 0.37 0.47 0.50 0.52 0.58 0.65 0.77 0.79 0.81 0.94
0.02 0.03 0.04 0.09 0.11 0.09 0.08 0.09 0.14 0.14 0.16 0.15 0.13 0.13 0.16 0.16 0.15 0.14 0.15 0.16 0.19 0.20 0.20 0.20 0.18 0.16 0.15 0.16 0.18 0.23 0.27 0.31 0.33 0.37 0.44 0.51 0.59 0.61 0.66 0.75 0.79 0.85 1.00
0.04 0.04 0.05 0.08 0.08 0.07 0.08 0.11 0.16 0.21 0.23 0.21 0.19 0.20 0.22 0.20 0.17 0.13 0.13 0.14 0.18 0.20 0.24 0.26 0.26 0.24 0.21 0.20 0.20 0.20 0.23 0.27 0.32 0.40 0.43 0.46 0.56 0.65 0.70 0.78 0.89 0.97 1.06
0.06 0.06 0.08 0.12 0.15 0.15 0.17 0.21 0.25 0.28 0.30 0.30 0.32 0.35 0.36 0.33 0.26 0.22 0.22 0.24 0.27 0.30 0.38 0.39 0.37 0.35 0.31 0.24 0.22 0.23 0.21 0.23 0.26 0.32 0.38 0.39 0.44 0.54 0.66 0.73 0.84 1.01 1.16
0.09 0.10 0.11 0.13 0.15 0.17 0.19 0.23 0.28 0.30 0.29 0.31 0.33 0.35 0.39 0.38 0.36 0.36 0.38 0.41 0.45 0.52 0.54 0.50 0.49 0.49 0.38 0.33 0.29 0.27 0.25 0.26 0.28 0.32 0.39 0.39 0.39 0.42 0.48 0.58 0.71 0.85 1.01
0.09 0.09 0.11 0.13 0.14 0.15 0.16 0.19 0.23 0.26 0.30 0.39 0.45 0.48 0.49 0.48 0.50 0.52 0.52 0.52 0.53 0.57 0.59 0.58 0.58 0.57 0.55 0.45 0.34 0.28 0.27 0.30 0.34 0.38 0.41 0.35 0.30 0.37 0.40 0.44 0.51 0.60 0.71
0.12 0.13 0.14 0.14 0.15 0.16 0.17 0.22 0.27 0.30 0.35 0.40 0.47 0.51 0.57 0.61 0.63 0.69 0.71 0.72 0.72 0.70 0.70 0.67 0.66 0.68 0.66 0.55 0.42 0.37 0.32 0.34 0.36 0.40 0.42 0.40 0.36 0.38 0.43 0.48 0.46 0.45 0.48
0.12 0.11 0.14 0.17 0.17 0.18 0.22 0.26 0.31 0.40 0.45 0.48 0.53 0.58 0.60 0.65 0.70 0.73 0.76 0.80 0.81 0.78 0.79 0.81 0.82 0.81 0.77 0.65 0.47 0.41 0.39 0.42 0.42 0.44 0.46 0.49 0.44 0.39 0.36 0.42 0.42 0.41 0.41
0.11 0.09 0.10 0.13 0.18 0.22 0.26 0.32 0.37 0.45 0.52 0.56 0.55 0.54 0.59 0.64 0.65 0.67 0.70 0.69 0.71 0.70 0.73 0.76 0.83 0.87 0.86 0.76 0.55 0.47 0.44 0.48 0.50 0.54 0.55 0.51 0.43 0.39 0.31 0.36 0.41 0.39 0.37
0.12 0.10 0.09 0.10 0.12 0.16 0.21 0.28 0.37 0.47 0.49 0.47 0.44 0.45 0.52 0.61 0.62 0.66 0.67 0.63 0.62 0.63 0.68 0.71 0.76 0.83 0.84 0.73 0.45 0.38 0.42 0.49 0.55 0.56 0.57 0.58 0.49 0.38 0.30 0.31 0.36 0.34 0.38
0.11 0.09 0.09 0.09 0.11 0.15 0.19 0.26 0.32 0.35 0.36 0.35 0.33 0.32 0.35 0.37 0.39 0.49 0.53 0.57 0.62 0.63 0.65 0.73 0.79 0.85 0.88 0.77 0.54 0.33 0.33 0.45 0.55 0.58 0.62 0.64 0.54 0.43 0.36 0.29 0.27 0.27 0.30
0.11 0.12 0.11 0.12 0.13 0.17 0.23 0.29 0.27 0.27 0.28 0.29 0.29 0.29 0.30 0.34 0.39 0.44 0.44 0.46 0.50 0.51 0.56 0.73 0.88 0.92 0.95 0.87 0.61 0.40 0.32 0.37 0.48 0.58 0.69 0.70 0.57 0.51 0.45 0.37 0.29 0.28 0.28
0.11 0.13 0.14 0.17 0.18 0.20 0.22 0.23 0.23 0.27 0.31 0.32 0.32 0.32 0.33 0.34 0.36 0.43 0.43 0.42 0.42 0.42 0.49 0.69 0.84 0.92 0.94 0.88 0.71 0.54 0.43 0.41 0.47 0.54 0.65 0.72 0.72 0.68 0.62 0.52 0.40 0.31 0.32
0.09 0.11 0.16 0.21 0.22 0.20 0.18 0.18 0.21 0.29 0.33 0.32 0.31 0.31 0.33 0.34 0.34 0.40 0.42 0.36 0.37 0.35 0.37 0.54 0.77 0.84 0.77 0.65 0.52 0.46 0.48 0.47 0.52 0.59 0.76 0.90 0.95 0.97 0.91 0.78 0.65 0.54 0.50
0.11 0.15 0.19 0.22 0.22 0.19 0.18 0.18 0.22 0.31 0.38 0.37 0.34 0.33 0.33 0.33 0.34 0.37 0.37 0.30 0.23 0.21 0.19 0.25 0.40 0.52 0.46 0.38 0.35 0.33 0.34 0.32 0.34 0.46 0.71 0.99 1.09 1.13 1.13 1.03 0.87 0.75 0.69

GEFSMW_prec_meanprecacc_108.txt.gz
Total_Precipitation_Accumulation
1.46 1.73 2.25 3.00 3.93 4.66 4.77 4.25 3.73 3.33 2.84 2.40 1.82 1.42 1.18 1.04 0.92 0.78 0.66 0.58 0.53 0.53 0.55 0.49 0.48 0.47 0.48 0.48 0.51 0.58 0.63 0.63 0.71 0.76 0.73 0.68 0.63 0.67 0.67 0.69 0.77 0.73 0.73
1.63 2.15 3.06 3.64 3.75 3.71 3.27 2.80 2.53 2.29 1.89 1.49 1.18 0.99 0.84 0.68 0.57 0.51 0.49 0.44 0.38 0.37 0.35 0.35 0.36 0.37 0.36 0.37 0.40 0.44 0.45 0.45 0.53 0.61 0.66 0.58 0.53 0.50 0.44 0.52 0.50 0.53 0.72
1.76 2.48 2.99 3.02 2.58 2.17 1.94 1.80 1.72 1.40 1.22 1.08 0.93 0.80 0.66 0.51 0.44 0.41 0.39 0.32 0.27 0.26 0.26 0.26 0.27 0.32 0.32 0.34 0.38 0.38 0.38 0.37 0.37 0.46 0.60 0.57 0.50 0.42 0.38 0.40 0.44 0.51 0.61
1.22 1.60 1.80 1.63 1.56 1.57 1.55 1.60 1.50 1.19 1.02 0.88 0.72 0.57 0.47 0.41 0.36 0.33 0.32 0.28 0.23 0.21 0.19 0.18 0.19 0.21 0.26 0.33 0.32 0.37 0.37 0.35 0.29 0.31 0.40 0.45 0.49 0.49 0.44 0.40 0.41 0.50 0.56
0.68 0.74 0.79 0.85 0.93 1.00 1.16 1.32 1.36 1.23 1.00 0.86 0.75 0.65 0.50 0.45 0.39 0.36 0.34 0.32 0.26 0.22 0.20 0.20 0.19 0.18 0.19 0.23 0.25 0.33 0.37 0.38 0.32 0.30 0.33 0.37 0.39 0.42 0.43 0.34 0.33 0.39 0.37
0.55 0.55 0.52 0.58 0.68 0.77 0.86 1.01 1.19 1.24 1.10 0.94 0.82 0.72 0.61 0.54 0.46 0.40 0.36 0.31 0.24 0.22 0.20 0.21 0.21 0.21 0.20 0.18 0.17 0.21 0.29 0.36 0.38 0.32 0.30 0.38 0.39 0.39 0.42 0.31 0.25 0.28 0.25
0.56 0.55 0.48 0.42 0.43 0.51 0.60 0.63 0.72 0.85 0.86 0.77 0.72 0.70 0.67 0.54 0.44 0.36 0.29 0.27 0.22 0.20 0.19 0.20 0.20 0.21 0.22 0.21 0.19 0.17 0.21 0.27 0.33 0.33 0.33 0.34 0.34 0.40 0.41 0.33 0.27 0.31 0.31
0.34 0.35 0.32 0.26 0.21 0.25 0.36 0.40 0.47 0.54 0.60 0.57 0.53 0.51 0.51 0.41 0.35 0.38 0.28 0.25 0.26 0.26 0.24 0.19 0.18 0.19 0.20 0.20 0.20 0.18 0.19 0.23 0.27 0.29 0.39 0.38 0.29 0.36 0.39 0.39 0.46 0.45 0.47
0.12 0.16 0.19 0.17 0.15 0.17 0.22 0.30 0.40 0.45 0.49 0.50 0.45 0.38 0.38 0.36 0.35 0.34 0.28 0.22 0.27 0.28 0.25 0.20 0.17 0.17 0.18 0.19 0.20 0.20 0.22 0.25 0.28 0.33 0.42 0.44 0.40 0.41 0.41 0.46 0.57 0.64 0.56
0.09 0.10 0.11 0.11 0.10 0.12 0.17 0.25 0.34 0.40 0.43 0.45 0.41 0.33 0.37 0.36 0.35 0.31 0.30 0.28 0.26 0.26 0.23 0.20 0.16 0.16 0.17 0.18 0.20 0.21 0.25 0.28 0.34 0.41 0.46 0.52 0.52 0.52 0.52 0.53 0.61 0.75 0.73
0.05 0.05 0.05 0.07 0.08 0.08 0.11 0.16 0.22 0.27 0.31 0.34 0.35 0.32 0.32 0.31 0.33 0.33 0.30 0.31 0.29 0.28 0.23 0.20 0.19 0.17 0.17 0.19 0.23 0.23 0.24 0.27 0.33 0.39 0.45 0.50 0.57 0.63 0.65 0.70 0.71 0.75 0.85
0.02 0.03 0.04 0.06 0.07 0.08 0.09 0.12 0.16 0.17 0.23 0.26 0.25 0.26 0.28 0.27 0.28 0.27 0.26 0.27 0.27 0.25 0.23 0.21 0.19 0.16 0.16 0.21 0.25 0.25 0.25 0.28 0.32 0.39 0.50 0.53 0.54 0.60 0.67 0.79 0.81 0.83 0.96
0.02 0.03 0.04 0.09 0.12 0.10 0.10 0.11 0.16 0.17 0.19 0.20 0.18 0.21 0.27 0.27 0.25 0.22 0.20 0.22 0.24 0.25 0.24 0.24 0.23 0.20 0.19 0.20 0.22 0.27 0.30 0.35 0.38 0.42 0.50 0.56 0.64 0.65 0.70 0.79 0.82 0.87 1.03
0.04 0.04 0.05 0.08 0.09 0.08 0.10 0.14 0.18 0.24 0.26 0.26 0.25 0.26 0.30 0.30 0.27 0.20 0.18 0.19 0.23 0.24 0.28 0.32 0.33 0.30 0.26 0.25 0.25 0.27 0.30 0.36 0.41 0.49 0.50 0.54 0.64 0.72 0.77 0.84 0.95 1.02 1.10
0.06 0.06 0.08 0.12 0.16 0.16 0.19 0.23 0.27 0.32 0.35 0.37 0.40 0.43 0.44 0.40 0.33 0.29 0.28 0.30 0.33 0.36 0.46 0.48 0.46 0.43 0.38 0.30 0.29 0.32 0.31 0.37 0.38 0.43 0.49 0.49 0.53 0.61 0.73 0.79 0.91 1.07 1.22
0.10 0.10 0.11 0.14 0.16 0.17 0.20 0.25 0.31 0.34 0.35 0.39 0.42 0.45 0.50 0.48 0.46 0.44 0.45 0.49 0.53 0.61 0.65 0.61 0.59 0.59 0.45 0.38 0.34 0.31 0.33 0.35 0.39 0.43 0.49 0.49 0.46 0.47 0.52 0.61 0.74 0.88 1.06
0.09 0.09 0.12 0.14 0.15 0.16 0.18 0.22 0.25 0.31 0.38 0.48 0.56 0.59 0.60 0.59 0.59 0.62 0.63 0.63 0.65 0.69 0.71 0.69 0.68 0.65 0.61 0.48 0.35 0.29 0.30 0.34 0.39 0.44 0.47 0.41 0.35 0.41 0.44 0.49 0.54 0.62 0.73
0.13 0.15 0.18 0.17 0.18 0.19 0.20 0.25 0.31 0.36 0.42 0.49 0.57 0.63 0.70 0.72 0.75 0.82 0.83 0.83 0.83 0.81 0.79 0.75 0.75 0.75 0.71 0.59 0.45 0.39 0.34 0.36 0.38 0.42 0.44 0.43 0.39 0.41 0.47 0.52 0.51 0.50 0.52
0.15 0.15 0.19 0.20 0.21 0.22 0.26 0.30 0.38 0.49 0.55 0.59 0.66 0.70 0.74 0.80 0.84 0.86 0.87 0.89 0.92 0.87 0.87 0.88 0.88 0.87 0.83 0.69 0.50 0.42 0.40 0.44 0.44 0.46 0.48 0.52 0.46 0.42 0.38 0.44 0.45 0.45 0.44
0.15 0.13 0.14 0.17 0.23 0.29 0.32 0.38 0.45 0.55 0.65 0.70 0.70 0.68 0.75 0.81 0.79 0.78 0.81 0.80 0.82 0.79 0.81 0.83 0.89 0.92 0.90 0.79 0.56 0.48 0.45 0.49 0.52 0.57 0.57 0.53 0.44 0.40 0.32 0.37 0.42 0.40 0.39
0.14 0.14 0.14 0.16 0.21 0.25 0.29 0.38 0.47 0.57 0.61 0.61 0.58 0.58 0.65 0.72 0.72 0.75 0.76 0.71 0.68 0.69 0.72 0.77 0.80 0.86 0.86 0.73 0.45 0.38 0.42 0.50 0.56 0.57 0.57 0.58 0.49 0.38 0.30 0.31 0.36 0.35 0.38
0.15 0.13 0.12 0.14 0.18 0.23 0.26 0.34 0.40 0.43 0.46 0.44 0.42 0.42 0.46 0.47 0.48 0.57 0.61 0.63 0.67 0.67 0.69 0.77 0.82 0.88 0.90 0.78 0.54 0.33 0.33 0.45 0.55 0.59 0.62 0.64 0.54 0.43 0.36 0.29 0.27 0.27 0.30
0.18 0.18 0.17 0.17 0.19 0.22 0.28 0.33 0.32 0.32 0.34 0.37 0.37 0.37 0.36 0.40 0.45 0.50 0.49 0.50 0.54 0.54 0.58 0.76 0.89 0.94 0.97 0.87 0.61 0.41 0.32 0.37 0.49 0.58 0.69 0.70 0.57 0.51 0.45 0.37 0.29 0.28 0.28
0.18 0.21 0.22 0.23 0.24 0.26 0.28 0.28 0.28 0.31 0.36 0.39 0.39 0.38 0.37 0.37 0.38 0.45 0.45 0.43 0.43 0.43 0.50 0.70 0.85 0.93 0.94 0.88 0.71 0.54 0.43 0.41 0.47 0.54 0.65 0.72 0.72 0.68 0.62 0.52 0.40 0.31 0.32
0.13 0.16 0.23 0.28 0.28 0.26 0.25 0.25 0.28 0.34 0.38 0.37 0.36 0.35 0.36 0.36 0.35 0.41 0.43 0.37 0.38 0.35 0.38 0.55 0.78 0.85 0.78 0.65 0.52 0.46 0.48 0.47 0.53 0.59 0.76 0.90 0.95 0.97 0.91 0.78 0.65 0.54 0.50
0.15 0.19 0.24 0.28 0.28 0.25 0.24 0.23 0.26 0.34 0.41 0.40 0.36 0.34 0.34 0.35 0.36 0.39 0.39 0.32 0.25 0.22 0.20 0.26 0.41 0.52 0.47 0.38 0.35 0.33 0.34 0.32 0.34 0.46 0.71 0.99 1.09 1.13 1.13 1.03 0.87 0.75 0.69

GEFSMW_prec_meanprecacc_114.txt.gz
Total_Precipitation_Accumulation
1.51 1.80 2.31 3.07 4.03 4.81 5.01 4.48 3.94 3.54 3.02 2.55 1.95 1.54 1.33 1.20 1.00 0.83 0.70 0.62 0.57 0.56 0.58 0.51 0.50 0.48 0.49 0.49 0.52 0.59 0.64 0.65 0.72 0.78 0.76 0.70 0.64 0.69 0.68 0.70 0.78 0.75 0.75
1.68 2.22 3.13 3.73 3.87 3.87 3.47 3.01 2.70 2.46 2.04 1.60 1.27 1.08 0.98 0.81 0.65 0.57 0.54 0.47 0.42 0.41 0.39 0.38 0.38 0.37 0.37 0.39 0.42 0.46 0.46 0.46 0.55 0.63 0.67 0.59 0.54 0.50 0.44 0.53 0.51 0.54 0.73
1.81 2.54 3.07 3.10 2.67 2.31 2.09 1.95 1.87 1.53 1.35 1.21 1.04 0.90 0.82 0.66 0.55 0.50 0.43 0.35 0.30 0.29 0.29 0.28 0.28 0.32 0.34 0.37 0.40 0.39 0.39 0.38 0.39 0.47 0.61 0.58 0.51 0.43 0.39 0.42 0.45 0.53 0.62
1.28 1.67 1.88 1.70 1.61 1.64 1.67 1.74 1.64 1.30 1.13 0.99 0.83 0.66 0.57 0.49 0.43 0.39 0.36 0.32 0.26 0.23 0.21 0.20 0.20 0.21 0.27 0.35 0.33 0.37 0.37 0.35 0.29 0.32 0.41 0.46 0.49 0.50 0.44 0.41 0.42 0.50 0.56
0.73 0.79 0.86 0.90 0.97 1.04 1.24 1.43 1.49 1.35 1.11 0.96 0.84 0.74 0.59 0.52 0.47 0.44 0.42 0.38 0.31 0.26 0.23 0.22 0.20 0.18 0.19 0.24 0.26 0.34 0.38 0.38 0.32 0.31 0.34 0.37 0.39 0.42 0.43 0.35 0.33 0.39 0.38
0.60 0.60 0.57 0.61 0.71 0.81 0.93 1.10 1.29 1.36 1.22 1.05 0.93 0.82 0.70 0.62 0.54 0.48 0.44 0.39 0.34 0.30 0.24 0.23 0.22 0.21 0.20 0.19 0.18 0.23 0.30 0.37 0.38 0.33 0.31 0.38 0.40 0.40 0.42 0.31 0.25 0.29 0.25
0.61 0.61 0.54 0.45 0.46 0.55 0.65 0.68 0.80 0.94 0.96 0.89 0.82 0.79 0.75 0.62 0.49 0.41 0.35 0.35 0.31 0.28 0.24 0.22 0.22 0.22 0.23 0.22 0.20 0.19 0.22 0.29 0.34 0.33 0.33 0.34 0.34 0.40 0.42 0.33 0.27 0.31 0.31
0.38 0.40 0.35 0.28 0.23 0.27 0.39 0.44 0.53 0.62 0.71 0.70 0.65 0.61 0.59 0.47 0.40 0.44 0.34 0.31 0.34 0.34 0.30 0.23 0.20 0.20 0.20 0.21 0.21 0.19 0.21 0.24 0.28 0.29 0.39 0.38 0.30 0.36 0.39 0.40 0.46 0.45 0.47
0.15 0.19 0.22 0.21 0.18 0.19 0.25 0.34 0.44 0.53 0.58 0.61 0.59 0.49 0.45 0.42 0.40 0.39 0.34 0.29 0.35 0.35 0.32 0.26 0.21 0.20 0.20 0.21 0.22 0.21 0.23 0.25 0.28 0.33 0.42 0.44 0.41 0.41 0.42 0.46 0.57 0.64 0.56
0.12 0.12 0.13 0.15 0.13 0.14 0.19 0.29 0.39 0.49 0.51 0.54 0.52 0.44 0.46 0.42 0.40 0.37 0.36 0.35 0.32 0.31 0.29 0.25 0.22 0.21 0.21 0.22 0.23 0.23 0.26 0.29 0.34 0.41 0.47 0.53 0.53 0.53 0.53 0.54 0.62 0.75 0.73
0.08 0.07 0.07 0.10 0.11 0.12 0.14 0.20 0.28 0.36 0.40 0.42 0.43 0.42 0.40 0.37 0.38 0.39 0.37 0.36 0.34 0.33 0.29 0.27 0.24 0.23 0.22 0.24 0.27 0.26 0.25 0.28 0.34 0.40 0.46 0.51 0.58 0.64 0.67 0.71 0.72 0.75 0.86
0.06 0.05 0.05 0.07 0.10 0.12 0.13 0.16 0.20 0.22 0.28 0.31 0.32 0.35 0.36 0.34 0.34 0.34 0.33 0.34 0.33 0.33 0.31 0.30 0.26 0.21 0.19 0.25 0.29 0.29 0.27 0.29 0.33 0.41 0.51 0.53 0.55 0.62 0.70 0.80 0.82 0.84 0.97
0.06 0.06 0.06 0.10 0.13 0.12 0.13 0.17 0.20 0.19 0.22 0.23 0.23 0.27 0.35 0.36 0.34 0.30 0.31 0.32 0.33 0.35 0.32 0.32 0.30 0.26 0.23 0.23 0.26 0.30 0.32 0.37 0.41 0.46 0.53 0.59 0.65 0.68 0.73 0.81 0.83 0.89 1.04
0.07 0.08 0.09 0.11 0.11 0.11 0.13 0.17 0.22 0.26 0.28 0.29 0.29 0.31 0.36 0.39 0.37 0.30 0.30 0.30 0.32 0.34 0.37 0.40 0.41 0.38 0.32 0.29 0.29 0.31 0.33 0.39 0.45 0.54 0.55 0.59 0.68 0.76 0.81 0.88 0.98 1.05 1.13
0.10 0.10 0.13 0.19 0.20 0.21 0.23 0.26 0.31 0.35 0.38 0.41 0.46 0.50 0.52 0.50 0.46 0.43 0.43 0.44 0.44 0.46 0.57 0.60 0.57 0.51 0.44 0.34 0.34 0.37 0.35 0.42 0.44 0.48 0.53 0.54 0.58 0.66 0.77 0.83 0.94 1.10 1.25
0.16 0.17 0.20 0.25 0.24 0.22 0.24 0.27 0.34 0.38 0.40 0.45 0.49 0.54 0.61 0.61 0.57 0.57 0.61 0.63 0.64 0.72 0.77 0.72 0.69 0.67 0.52 0.45 0.41 0.38 0.38 0.41 0.43 0.47 0.53 0.53 0.50 0.50 0.56 0.65 0.78 0.91 1.08
0.16 0.16 0.21 0.23 0.23 0.20 0.20 0.24 0.29 0.37 0.46 0.57 0.65 0.70 0.72 0.73 0.72 0.74 0.80 0.80 0.79 0.80 0.82 0.79 0.76 0.72 0.68 0.55 0.41 0.35 0.35 0.38 0.43 0.47 0.49 0.43 0.37 0.43 0.46 0.51 0.57 0.65 0.75
0.28 0.26 0.28 0.31 0.28 0.23 0.24 0.30 0.38 0.45 0.52 0.57 0.64 0.71 0.79 0.84 0.88 0.96 1.01 1.02 1.00 0.98 0.95 0.88 0.85 0.83 0.77 0.64 0.49 0.44 0.39 0.39 0.41 0.44 0.46 0.44 0.40 0.41 0.47 0.52 0.51 0.51 0.53
0.29 0.34 0.39 0.42 0.35 0.32 0.33 0.39 0.47 0.59 0.65 0.67 0.73 0.79 0.85 0.94 1.00 1.04 1.07 1.12 1.14 1.06 1.02 1.00 0.98 0.95 0.89 0.75 0.55 0.47 0.44 0.48 0.47 0.47 0.49 0.53 0.47 0.42 0.38 0.45 0.46 0.45 0.44
0.37 0.40 0.40 0.40 0.40 0.43 0.47 0.50 0.56 0.67 0.76 0.80 0.80 0.80 0.90 0.98 0.99 0.97 1.01 1.01 1.01 0.94 0.92 0.93 0.96 0.98 0.96 0.84 0.60 0.51 0.47 0.52 0.54 0.59 0.59 0.55 0.45 0.41 0.32 0.37 0.42 0.40 0.39
0.48 0.44 0.42 0.43 0.44 0.43 0.45 0.54 0.61 0.70 0.74 0.75 0.74 0.75 0.81 0.89 0.90 0.92 0.90 0.84 0.80 0.79 0.81 0.84 0.88 0.93 0.91 0.79 0.50 0.42 0.47 0.54 0.59 0.60 0.59 0.59 0.50 0.38 0.30 0.31 0.36 0.35 0.38
0.51 0.45 0.36 0.33 0.35 0.38 0.43 0.51 0.57 0.57 0.60 0.61 0.61 0.60 0.61 0.61 0.62 0.72 0.74 0.74 0.77 0.77 0.79 0.87 0.92 0.95 0.95 0.83 0.58 0.37 0.36 0.46 0.56 0.59 0.62 0.64 0.54 0.43 0.36 0.29 0.27 0.27 0.30
0.43 0.39 0.36 0.33 0.34 0.37 0.43 0.49 0.49 0.50 0.51 0.54 0.54 0.52 0.51 0.56 0.61 0.64 0.61 0.60 0.62 0.61 0.65 0.82 0.94 0.98 0.99 0.89 0.63 0.42 0.33 0.38 0.49 0.59 0.70 0.70 0.58 0.52 0.46 0.37 0.30 0.28 0.28
0.36 0.37 0.38 0.37 0.41 0.44 0.47 0.45 0.43 0.45 0.50 0.52 0.51 0.52 0.51 0.51 0.51 0.56 0.54 0.52 0.51 0.50 0.56 0.75 0.89 0.96 0.97 0.90 0.73 0.56 0.45 0.43 0.49 0.55 0.66 0.73 0.73 0.69 0.62 0.52 0.40 0.31 0.32
0.26 0.27 0.34 0.39 0.43 0.44 0.42 0.42 0.42 0.46 0.47 0.45 0.45 0.43 0.43 0.42 0.40 0.45 0.48 0.43 0.44 0.42 0.43 0.60 0.81 0.88 0.81 0.68 0.54 0.47 0.49 0.48 0.53 0.60 0.76 0.90 0.95 0.97 0.91 0.78 0.65 0.54 0.50
0.24 0.29 0.33 0.38 0.39 0.38 0.37 0.36 0.38 0.45 0.50 0.49 0.44 0.39 0.38 0.38 0.39 0.42 0.43 0.36 0.28 0.25 0.22 0.27 0.42 0.53 0.47 0.39 0.35 0.33 0.34 0.32 0.34 0.46 0.71 0.99 1.09 1.13 1.13 1.03 0.87 0.75 0.69

GEFSMW_prec_meanprecacc_120.txt.gz
Total_Precipitation_Accumulation
1.55 1.89 2.43 3.21 4.22 5.03 5.24 4.69 4.14 3.72 3.25 2.79 2.16 1.69 1.45 1.31 1.10 0.92 0.77 0.67 0.61 0.61 0.63 0.55 0.53 0.50 0.50 0.52 0.54 0.61 0.66 0.66 0.74 0.80 0.77 0.72 0.65 0.69 0.70 0.72 0.80 0.76 0.77
1.72 2.29 3.25 3.87 4.08 4.11 3.75 3.29 2.95 2.69 2.25 1.78 1.44 1.23 1.11 0.95 0.78 0.66 0.60 0.52 0.46 0.45 0.43 0.42 0.40 0.39 0.40 0.43 0.45 0.47 0.48 0.48 0.56 0.64 0.68 0.60 0.55 0.51 0.45 0.54 0.53 0.56 0.74
1.85 2.60 3.16 3.22 2.87 2.47 2.24 2.15 2.11 1.77 1.57 1.40 1.23 1.10 1.02 0.84 0.69 0.59 0.48 0.40 0.34 0.33 0.33 0.32 0.31 0.34 0.37 0.39 0.41 0.40 0.40 0.39 0.40 0.48 0.61 0.58 0.51 0.43 0.39 0.42 0.46 0.54 0.63
1.32 1.74 1.96 1.79 1.72 1.74 1.76 1.86 1.83 1.52 1.35 1.21 1.00 0.80 0.70 0.61 0.52 0.46 0.42 0.39 0.32 0.28 0.25 0.25 0.23 0.23 0.29 0.36 0.34 0.39 0.39 0.36 0.30 0.33 0.41 0.46 0.49 0.50 0.45 0.41 0.42 0.51 0.57
0.78 0.86 0.94 0.96 1.04 1.13 1.33 1.56 1.64 1.55 1.34 1.17 1.01 0.88 0.72 0.64 0.58 0.55 0.51 0.46 0.38 0.32 0.28 0.27 0.24 0.21 0.21 0.25 0.28 0.36 0.40 0.40 0.34 0.32 0.34 0.38 0.39 0.42 0.43 0.35 0.33 0.39 0.38
0.63 0.65 0.63 0.67 0.79 0.90 1.03 1.23 1.41 1.51 1.44 1.27 1.09 0.96 0.83 0.73 0.64 0.59 0.55 0.48 0.41 0.37 0.31 0.28 0.27 0.24 0.22 0.20 0.20 0.26 0.33 0.39 0.40 0.34 0.31 0.38 0.40 0.40 0.42 0.31 0.25 0.29 0.25
0.64 0.65 0.57 0.50 0.51 0.60 0.72 0.78 0.90 1.08 1.14 1.08 0.97 0.91 0.85 0.69 0.56 0.48 0.43 0.43 0.38 0.34 0.29 0.26 0.25 0.24 0.25 0.23 0.22 0.22 0.25 0.31 0.37 0.35 0.34 0.34 0.34 0.40 0.42 0.33 0.27 0.31 0.31
0.40 0.42 0.38 0.31 0.25 0.30 0.42 0.50 0.61 0.73 0.86 0.84 0.78 0.72 0.67 0.52 0.44 0.48 0.38 0.37 0.40 0.39 0.36 0.28 0.24 0.23 0.23 0.23 0.23 0.22 0.23 0.26 0.31 0.31 0.40 0.38 0.30 0.36 0.39 0.40 0.46 0.45 0.47
0.16 0.20 0.24 0.23 0.19 0.20 0.27 0.37 0.49 0.60 0.69 0.73 0.70 0.59 0.53 0.48 0.45 0.43 0.39 0.34 0.41 0.42 0.39 0.32 0.25 0.23 0.24 0.23 0.23 0.23 0.25 0.27 0.29 0.35 0.43 0.44 0.41 0.41 0.42 0.46 0.57 0.64 0.56
0.13 0.13 0.14 0.17 0.15 0.16 0.20 0.31 0.43 0.55 0.60 0.63 0.61 0.51 0.53 0.49 0.46 0.42 0.41 0.39 0.38 0.37 0.35 0.30 0.25 0.25 0.26 0.26 0.26 0.26 0.28 0.30 0.36 0.42 0.48 0.54 0.54 0.54 0.54 0.55 0.63 0.76 0.74
0.09 0.08 0.09 0.12 0.13 0.14 0.16 0.23 0.31 0.41 0.46 0.49 0.49 0.47 0.47 0.46 0.46 0.45 0.42 0.41 0.40 0.40 0.35 0.32 0.29 0.26 0.25 0.28 0.31 0.29 0.28 0.30 0.36 0.42 0.47 0.52 0.59 0.66 0.68 0.72 0.73 0.76 0.86
0.07 0.06 0.08 0.10 0.13 0.15 0.16 0.18 0.23 0.26 0.31 0.36 0.37 0.40 0.43 0.42 0.41 0.40 0.39 0.40 0.38 0.38 0.37 0.34 0.29 0.24 0.22 0.28 0.33 0.33 0.31 0.32 0.35 0.42 0.52 0.54 0.56 0.63 0.71 0.81 0.83 0.84 0.97
0.07 0.08 0.09 0.13 0.17 0.16 0.17 0.19 0.23 0.25 0.27 0.28 0.28 0.34 0.43 0.43 0.40 0.36 0.38 0.39 0.39 0.41 0.39 0.38 0.35 0.30 0.27 0.28 0.30 0.33 0.36 0.39 0.42 0.47 0.54 0.60 0.66 0.69 0.73 0.81 0.84 0.89 1.04
0.08 0.09 0.12 0.14 0.14 0.14 0.16 0.20 0.28 0.36 0.39 0.38 0.39 0.42 0.48 0.50 0.47 0.39 0.39 0.39 0.41 0.42 0.45 0.47 0.47 0.43 0.38 0.34 0.33 0.35 0.36 0.41 0.48 0.55 0.57 0.60 0.69 0.76 0.81 0.88 0.99 1.06 1.14
0.11 0.12 0.15 0.22 0.22 0.23 0.26 0.28 0.34 0.43 0.51 0.56 0.61 0.66 0.69 0.68 0.59 0.54 0.54 0.55 0.57 0.59 0.68 0.71 0.65 0.59 0.51 0.41 0.41 0.42 0.38 0.45 0.46 0.50 0.56 0.57 0.60 0.67 0.78 0.84 0.95 1.11 1.25
0.19 0.19 0.21 0.27 0.26 0.25 0.27 0.30 0.36 0.42 0.46 0.53 0.57 0.63 0.72 0.74 0.68 0.65 0.69 0.73 0.76 0.83 0.88 0.85 0.81 0.78 0.61 0.56 0.51 0.45 0.44 0.46 0.47 0.50 0.56 0.55 0.52 0.52 0.58 0.67 0.79 0.92 1.08
0.17 0.17 0.22 0.25 0.25 0.22 0.21 0.26 0.31 0.40 0.49 0.60 0.70 0.75 0.81 0.86 0.84 0.84 0.88 0.89 0.89 0.89 0.91 0.88 0.85 0.82 0.77 0.64 0.50 0.44 0.43 0.45 0.49 0.52 0.54 0.47 0.40 0.45 0.47 0.52 0.57 0.65 0.75
0.29 0.28 0.29 0.34 0.34 0.27 0.27 0.33 0.41 0.50 0.58 0.63 0.70 0.77 0.86 0.93 0.99 1.08 1.11 1.13 1.14 1.10 1.05 0.97 0.93 0.91 0.85 0.72 0.58 0.52 0.47 0.47 0.49 0.51 0.52 0.50 0.44 0.44 0.49 0.54 0.52 0.51 0.53
0.31 0.37 0.42 0.46 0.42 0.41 0.39 0.47 0.59 0.69 0.74 0.76 0.82 0.88 0.95 1.04 1.11 1.15 1.18 1.22 1.26 1.19 1.13 1.08 1.05 1.03 0.98 0.84 0.65 0.56 0.52 0.54 0.52 0.52 0.53 0.56 0.49 0.44 0.40 0.46 0.47 0.46 0.45
0.40 0.45 0.46 0.45 0.50 0.55 0.58 0.61 0.68 0.79 0.88 0.90 0.90 0.92 1.05 1.11 1.13 1.12 1.14 1.14 1.15 1.07 1.02 1.00 1.03 1.06 1.04 0.93 0.68 0.57 0.52 0.56 0.58 0.62 0.63 0.58 0.48 0.44 0.35 0.40 0.44 0.42 0.41
0.55 0.52 0.51 0.53 0.55 0.54 0.57 0.64 0.72 0.82 0.87 0.89 0.90 0.94 1.02 1.12 1.11 1.12 1.08 1.02 0.96 0.94 0.94 0.94 0.95 0.99 0.98 0.85 0.56 0.49 0.53 0.60 0.65 0.65 0.64 0.63 0.53 0.41 0.33 0.33 0.38 0.36 0.39
0.58 0.55 0.49 0.45 0.46 0.50 0.54 0.63 0.71 0.72 0.76 0.78 0.79 0.83 0.84 0.86 0.90 0.97 0.96 0.91 0.91 0.90 0.90 0.96 0.99 1.01 1.00 0.88 0.63 0.42 0.41 0.51 0.60 0.63 0.65 0.66 0.57 0.45 0.38 0.30 0.28 0.28 0.30
0.49 0.48 0.49 0.47 0.49 0.53 0.59 0.64 0.65 0.66 0.67 0.73 0.75 0.75 0.73 0.78 0.85 0.86 0.81 0.75 0.74 0.72 0.75 0.91 1.03 1.06 1.06 0.96 0.70 0.48 0.39 0.44 0.54 0.63 0.75 0.75 0.62 0.56 0.50 0.40 0.32 0.29 0.28
0.45 0.44 0.46 0.49 0.58 0.64 0.69 0.66 0.61 0.63 0.68 0.72 0.71 0.72 0.74 0.71 0.71 0.75 0.72 0.68 0.64 0.61 0.65 0.84 0.99 1.07 1.08 1.01 0.82 0.64 0.51 0.49 0.53 0.59 0.70 0.76 0.75 0.71 0.63 0.53 0.40 0.32 0.32
0.36 0.37 0.45 0.50 0.57 0.61 0.65 0.67 0.63 0.64 0.66 0.65 0.61 0.59 0.60 0.60 0.58 0.63 0.67 0.60 0.59 0.55 0.55 0.71 0.94 1.00 0.92 0.77 0.62 0.53 0.54 0.52 0.56 0.62 0.78 0.91 0.96 0.98 0.92 0.79 0.65 0.54 0.50
0.33 0.38 0.43 0.49 0.53 0.55 0.59 0.59 0.57 0.63 0.68 0.68 0.60 0.53 0.51 0.53 0.54 0.58 0.60 0.54 0.42 0.37 0.32 0.36 0.49 0.60 0.54 0.44 0.39 0.35 0.35 0.33 0.35 0.47 0.72 0.99 1.09 1.14 1.13 1.03 0.87 0.75 0.69

GEFSMW_prec_meanprecacc_126.txt.gz
Total_Precipitation_Accumulation
1.57 1.92 2.48 3.27 4.28 5.10 5.34 4.82 4.26 3.79 3.32 2.85 2.23 1.78 1.56 1.39 1.17 0.99 0.84 0.74 0.69 0.69 0.71 0.61 0.59 0.55 0.55 0.58 0.60 0.67 0.71 0.71 0.77 0.85 0.82 0.75 0.68 0.72 0.73 0.75 0.84 0.79 0.80
1.73 2.33 3.30 3.92 4.12 4.16 3.84 3.43 3.08 2.78 2.33 1.88 1.53 1.33 1.20 1.01 0.85 0.72 0.66 0.58 0.52 0.51 0.49 0.48 0.45 0.44 0.45 0.50 0.51 0.52 0.52 0.52 0.59 0.68 0.73 0.64 0.58 0.53 0.46 0.56 0.55 0.57 0.77
1.86 2.62 3.18 3.25 2.91 2.50 2.28 2.25 2.22 1.87 1.69 1.53 1.33 1.23 1.14 0.94 0.77 0.65 0.54 0.45 0.38 0.37 0.38 0.37 0.37 0.41 0.41 0.45 0.48 0.45 0.44 0.43 0.43 0.51 0.64 0.62 0.54 0.46 0.40 0.42 0.46 0.55 0.66
1.33 1.75 1.98 1.81 1.74 1.77 1.79 1.92 1.93 1.65 1.54 1.37 1.09 0.88 0.78 0.69 0.58 0.52 0.49 0.46 0.38 0.33 0.30 0.30 0.29 0.29 0.33 0.41 0.39 0.42 0.43 0.41 0.34 0.36 0.44 0.48 0.51 0.52 0.48 0.43 0.43 0.52 0.58
0.79 0.87 0.96 0.97 1.06 1.15 1.36 1.61 1.71 1.64 1.47 1.27 1.12 0.98 0.79 0.71 0.67 0.64 0.61 0.55 0.46 0.37 0.32 0.32 0.29 0.25 0.24 0.27 0.30 0.39 0.44 0.44 0.38 0.35 0.37 0.40 0.41 0.44 0.46 0.38 0.36 0.40 0.38
0.64 0.66 0.64 0.68 0.81 0.93 1.06 1.26 1.44 1.57 1.52 1.35 1.17 1.07 0.92 0.81 0.73 0.68 0.64 0.56 0.47 0.42 0.36 0.34 0.32 0.29 0.25 0.22 0.23 0.30 0.38 0.43 0.44 0.38 0.34 0.40 0.42 0.42 0.45 0.34 0.28 0.31 0.26
0.64 0.67 0.59 0.51 0.52 0.63 0.75 0.80 0.92 1.12 1.21 1.18 1.05 0.99 0.95 0.79 0.63 0.57 0.53 0.51 0.44 0.39 0.33 0.30 0.30 0.28 0.27 0.26 0.25 0.26 0.30 0.35 0.41 0.39 0.37 0.37 0.36 0.42 0.43 0.35 0.29 0.33 0.32
0.40 0.43 0.39 0.32 0.26 0.31 0.45 0.53 0.65 0.78 0.94 0.95 0.88 0.79 0.76 0.62 0.53 0.57 0.46 0.44 0.45 0.44 0.41 0.33 0.28 0.27 0.26 0.25 0.27 0.25 0.26 0.30 0.34 0.34 0.43 0.41 0.31 0.38 0.40 0.41 0.48 0.47 0.49
0.16 0.20 0.25 0.24 0.20 0.21 0.29 0.39 0.53 0.65 0.78 0.85 0.81 0.67 0.61 0.56 0.53 0.52 0.46 0.41 0.47 0.47 0.45 0.39 0.32 0.29 0.29 0.28 0.28 0.26 0.27 0.29 0.32 0.37 0.46 0.47 0.43 0.43 0.43 0.47 0.58 0.66 0.58
0.13 0.13 0.15 0.18 0.16 0.16 0.21 0.33 0.46 0.58 0.66 0.71 0.68 0.57 0.60 0.55 0.55 0.52 0.49 0.45 0.43 0.43 0.42 0.37 0.32 0.33 0.33 0.31 0.32 0.30 0.32 0.34 0.39 0.46 0.51 0.56 0.56 0.56 0.56 0.56 0.64 0.77 0.75
0.09 0.08 0.09 0.13 0.14 0.15 0.18 0.24 0.33 0.44 0.49 0.53 0.53 0.51 0.51 0.50 0.51 0.52 0.49 0.46 0.45 0.45 0.41 0.38 0.35 0.34 0.33 0.34 0.37 0.35 0.34 0.35 0.41 0.45 0.50 0.55 0.61 0.68 0.70 0.74 0.74 0.77 0.87
0.07 0.06 0.08 0.10 0.13 0.16 0.16 0.19 0.25 0.29 0.34 0.39 0.41 0.44 0.47 0.47 0.45 0.45 0.46 0.47 0.45 0.45 0.44 0.41 0.36 0.31 0.29 0.35 0.41 0.40 0.37 0.38 0.40 0.46 0.55 0.57 0.59 0.66 0.73 0.83 0.84 0.85 0.98
0.07 0.08 0.10 0.14 0.17 0.17 0.18 0.20 0.24 0.28 0.31 0.31 0.32 0.39 0.47 0.48 0.45 0.41 0.43 0.46 0.46 0.47 0.47 0.46 0.42 0.36 0.34 0.34 0.37 0.40 0.42 0.45 0.47 0.51 0.59 0.64 0.70 0.72 0.76 0.84 0.86 0.91 1.06
0.08 0.09 0.12 0.15 0.14 0.14 0.17 0.21 0.29 0.38 0.44 0.45 0.46 0.49 0.56 0.57 0.54 0.49 0.49 0.50 0.50 0.51 0.55 0.57 0.56 0.51 0.46 0.41 0.40 0.42 0.42 0.46 0.52 0.60 0.61 0.64 0.74 0.81 0.86 0.92 1.02 1.08 1.16
0.11 0.12 0.15 0.22 0.23 0.24 0.27 0.28 0.35 0.44 0.55 0.64 0.72 0.79 0.85 0.86 0.76 0.71 0.69 0.70 0.70 0.70 0.79 0.81 0.76 0.70 0.61 0.51 0.50 0.50 0.44 0.50 0.51 0.56 0.61 0.62 0.65 0.72 0.84 0.89 1.00 1.14 1.29
0.19 0.19 0.22 0.28 0.26 0.25 0.27 0.30 0.38 0.44 0.49 0.59 0.66 0.73 0.85 0.91 0.85 0.80 0.84 0.86 0.87 0.93 0.99 0.96 0.92 0.88 0.69 0.64 0.59 0.54 0.52 0.53 0.55 0.59 0.63 0.61 0.58 0.58 0.63 0.71 0.82 0.95 1.11
0.18 0.17 0.22 0.26 0.26 0.23 0.22 0.27 0.32 0.42 0.52 0.64 0.76 0.80 0.88 0.96 0.99 0.99 1.03 1.04 1.01 0.98 0.99 0.96 0.93 0.89 0.84 0.71 0.57 0.52 0.52 0.55 0.59 0.61 0.62 0.54 0.46 0.51 0.52 0.56 0.60 0.67 0.77
0.30 0.29 0.30 0.35 0.35 0.29 0.28 0.34 0.42 0.52 0.60 0.66 0.74 0.81 0.91 0.99 1.08 1.21 1.26 1.28 1.28 1.21 1.14 1.04 1.00 0.97 0.91 0.78 0.64 0.60 0.54 0.55 0.57 0.60 0.61 0.57 0.50 0.49 0.54 0.58 0.56 0.55 0.57
0.32 0.37 0.43 0.48 0.45 0.42 0.40 0.48 0.60 0.70 0.77 0.79 0.85 0.92 0.99 1.10 1.18 1.22 1.29 1.35 1.37 1.29 1.22 1.16 1.12 1.10 1.06 0.92 0.72 0.62 0.59 0.62 0.59 0.57 0.58 0.60 0.53 0.49 0.44 0.50 0.52 0.51 0.51
0.41 0.46 0.47 0.48 0.54 0.58 0.60 0.62 0.70 0.81 0.90 0.92 0.93 0.97 1.11 1.18 1.19 1.19 1.23 1.23 1.24 1.18 1.12 1.09 1.12 1.14 1.12 1.02 0.76 0.63 0.57 0.60 0.61 0.65 0.66 0.63 0.54 0.50 0.41 0.44 0.49 0.46 0.45
0.56 0.54 0.53 0.55 0.58 0.57 0.60 0.68 0.76 0.85 0.91 0.92 0.93 0.99 1.08 1.19 1.19 1.22 1.21 1.14 1.11 1.10 1.12 1.11 1.11 1.13 1.09 0.95 0.63 0.54 0.56 0.64 0.68 0.67 0.66 0.66 0.58 0.45 0.37 0.36 0.40 0.38 0.41
0.60 0.58 0.51 0.47 0.49 0.53 0.57 0.67 0.75 0.76 0.80 0.81 0.83 0.88 0.90 0.92 0.98 1.09 1.13 1.10 1.09 1.09 1.11 1.16 1.16 1.13 1.10 0.97 0.70 0.48 0.46 0.56 0.64 0.67 0.69 0.70 0.60 0.48 0.40 0.32 0.30 0.31 0.32
0.51 0.50 0.51 0.49 0.51 0.55 0.61 0.67 0.69 0.71 0.73 0.79 0.82 0.82 0.82 0.87 0.95 1.00 0.98 0.93 0.90 0.85 0.87 1.01 1.12 1.14 1.15 1.05 0.78 0.55 0.46 0.50 0.59 0.68 0.79 0.78 0.66 0.59 0.52 0.43 0.35 0.32 0.31
0.47 0.47 0.48 0.51 0.60 0.66 0.72 0.70 0.66 0.69 0.77 0.83 0.84 0.86 0.88 0.86 0.85 0.90 0.88 0.83 0.79 0.73 0.75 0.93 1.07 1.15 1.16 1.09 0.91 0.73 0.58 0.54 0.58 0.63 0.75 0.80 0.79 0.73 0.66 0.55 0.42 0.33 0.33
0.38 0.39 0.47 0.53 0.60 0.64 0.69 0.72 0.70 0.73 0.77 0.76 0.74 0.80 0.84 0.80 0.74 0.79 0.85 0.76 0.74 0.70 0.70 0.86 1.07 1.13 1.06 0.92 0.75 0.64 0.62 0.59 0.62 0.67 0.82 0.94 0.98 0.99 0.92 0.79 0.65 0.54 0.50
0.35 0.40 0.46 0.54 0.60 0.62 0.65 0.64 0.65 0.72 0.78 0.79 0.73 0.68 0.68 0.70 0.73 0.76 0.78 0.74 0.64 0.60 0.53 0.57 0.69 0.78 0.71 0.59 0.50 0.44 0.42 0.39 0.39 0.49 0.74 1.00 1.10 1.14 1.13 1.03 0.87 0.75 0.69

GEFSMW_prec_meanprecacc_132.txt.gz
Total_Precipitation_Accumulation
1.57 1.92 2.48 3.28 4.29 5.14 5.40 4.87 4.31 3.86 3.41 2.95 2.33 1.88 1.67 1.50 1.26 1.04 0.89 0.80 0.75 0.75 0.77 0.68 0.66 0.60 0.60 0.63 0.64 0.71 0.76 0.76 0.80 0.91 0.91 0.80 0.70 0.74 0.74 0.78 0.87 0.80 0.81
1.74 2.34 3.31 3.93 4.14 4.19 3.87 3.47 3.12 2.84 2.40 1.97 1.65 1.44 1.31 1.11 0.92 0.78 0.74 0.62 0.56 0.56 0.54 0.55 0.52 0.50 0.52 0.54 0.56 0.57 0.58 0.58 0.62 0.73 0.81 0.73 0.65 0.57 0.47 0.57 0.56 0.60 0.80
1.86 2.63 3.20 3.27 2.93 2.52 2.30 2.28 2.26 1.92 1.77 1.64 1.46 1.37 1.28 1.07 0.87 0.73 0.63 0.51 0.42 0.40 0.41 0.42 0.43 0.46 0.46 0.50 0.52 0.49 0.49 0.49 0.47 0.54 0.71 0.71 0.64 0.54 0.45 0.45 0.48 0.57 0.68
1.33 1.76 2.00 1.83 1.76 1.79 1.82 1.96 1.99 1.71 1.61 1.47 1.19 0.98 0.87 0.79 0.68 0.60 0.57 0.54 0.44 0.37 0.34 0.34 0.33 0.33 0.37 0.47 0.42 0.45 0.47 0.46 0.39 0.40 0.47 0.52 0.57 0.59 0.57 0.49 0.46 0.53 0.59
0.79 0.88 0.97 0.99 1.08 1.16 1.38 1.64 1.79 1.72 1.53 1.35 1.22 1.09 0.91 0.84 0.78 0.74 0.71 0.65 0.55 0.45 0.37 0.37 0.34 0.30 0.29 0.34 0.35 0.45 0.48 0.47 0.41 0.38 0.40 0.43 0.45 0.47 0.51 0.46 0.42 0.44 0.40
0.65 0.67 0.65 0.71 0.83 0.95 1.10 1.32 1.53 1.64 1.60 1.43 1.27 1.17 1.05 0.95 0.85 0.79 0.75 0.65 0.56 0.51 0.43 0.40 0.38 0.33 0.29 0.29 0.29 0.36 0.42 0.47 0.48 0.42 0.37 0.43 0.44 0.45 0.48 0.39 0.33 0.35 0.29
0.65 0.67 0.60 0.52 0.53 0.65 0.79 0.85 1.00 1.20 1.29 1.26 1.15 1.08 1.08 0.94 0.75 0.69 0.64 0.61 0.51 0.45 0.41 0.39 0.38 0.33 0.32 0.31 0.31 0.32 0.36 0.42 0.46 0.44 0.40 0.39 0.38 0.43 0.45 0.38 0.33 0.37 0.36
0.40 0.44 0.40 0.32 0.26 0.32 0.49 0.59 0.74 0.89 1.05 1.04 0.97 0.89 0.89 0.76 0.64 0.69 0.57 0.52 0.50 0.48 0.47 0.42 0.36 0.34 0.33 0.31 0.34 0.31 0.31 0.34 0.38 0.37 0.45 0.43 0.33 0.39 0.41 0.43 0.50 0.51 0.54
0.17 0.22 0.27 0.25 0.20 0.22 0.32 0.45 0.62 0.76 0.89 0.97 0.92 0.77 0.72 0.67 0.64 0.64 0.58 0.49 0.55 0.53 0.54 0.47 0.39 0.38 0.39 0.39 0.38 0.33 0.32 0.34 0.36 0.40 0.48 0.48 0.44 0.44 0.44 0.48 0.60 0.69 0.63
0.13 0.14 0.17 0.19 0.16 0.17 0.23 0.36 0.51 0.67 0.77 0.84 0.81 0.68 0.72 0.66 0.66 0.65 0.61 0.57 0.53 0.52 0.54 0.48 0.40 0.40 0.40 0.41 0.42 0.37 0.39 0.41 0.44 0.49 0.54 0.59 0.58 0.57 0.57 0.57 0.65 0.78 0.77
0.10 0.11 0.11 0.14 0.14 0.16 0.19 0.25 0.35 0.48 0.57 0.62 0.63 0.62 0.64 0.63 0.63 0.64 0.62 0.59 0.56 0.58 0.54 0.50 0.45 0.41 0.39 0.41 0.46 0.46 0.43 0.43 0.47 0.50 0.54 0.59 0.66 0.72 0.73 0.76 0.76 0.79 0.89
0.08 0.08 0.09 0.11 0.14 0.17 0.18 0.21 0.26 0.31 0.38 0.43 0.46 0.50 0.56 0.58 0.55 0.54 0.58 0.62 0.58 0.55 0.55 0.52 0.47 0.39 0.36 0.42 0.47 0.49 0.45 0.45 0.48 0.55 0.64 0.65 0.65 0.72 0.78 0.87 0.88 0.89 1.02
0.07 0.08 0.10 0.14 0.17 0.18 0.19 0.21 0.26 0.30 0.33 0.34 0.36 0.43 0.54 0.55 0.51 0.48 0.54 0.60 0.61 0.58 0.56 0.56 0.52 0.46 0.42 0.42 0.44 0.48 0.51 0.54 0.56 0.61 0.69 0.73 0.78 0.80 0.82 0.89 0.91 0.96 1.10
0.08 0.09 0.12 0.15 0.15 0.15 0.17 0.21 0.30 0.40 0.46 0.47 0.49 0.54 0.63 0.65 0.61 0.56 0.56 0.59 0.63 0.63 0.64 0.66 0.67 0.62 0.56 0.50 0.48 0.50 0.52 0.57 0.62 0.69 0.69 0.71 0.80 0.87 0.93 0.99 1.09 1.14 1.21
0.11 0.12 0.15 0.22 0.23 0.24 0.27 0.29 0.35 0.46 0.56 0.67 0.76 0.86 0.95 0.97 0.86 0.79 0.78 0.81 0.82 0.83 0.91 0.92 0.87 0.80 0.71 0.59 0.59 0.58 0.53 0.59 0.59 0.63 0.68 0.68 0.70 0.77 0.89 0.94 1.07 1.22 1.38
0.19 0.20 0.22 0.28 0.27 0.26 0.28 0.31 0.38 0.45 0.50 0.60 0.70 0.80 0.96 1.02 0.95 0.90 0.94 0.98 0.99 1.07 1.13 1.09 1.04 1.00 0.78 0.73 0.67 0.63 0.62 0.63 0.64 0.67 0.71 0.68 0.65 0.64 0.69 0.76 0.88 1.02 1.19
0.18 0.17 0.23 0.27 0.28 0.24 0.23 0.27 0.33 0.43 0.54 0.67 0.80 0.86 0.95 1.03 1.05 1.05 1.11 1.14 1.13 1.11 1.13 1.11 1.06 0.99 0.92 0.78 0.63 0.58 0.59 0.65 0.70 0.72 0.74 0.64 0.54 0.59 0.59 0.62 0.66 0.73 0.83
0.31 0.29 0.31 0.36 0.37 0.30 0.29 0.35 0.43 0.53 0.62 0.69 0.78 0.86 0.97 1.05 1.16 1.28 1.33 1.37 1.41 1.38 1.30 1.19 1.14 1.11 1.01 0.85 0.70 0.66 0.62 0.65 0.66 0.68 0.70 0.67 0.58 0.56 0.61 0.64 0.61 0.59 0.60
0.32 0.38 0.44 0.49 0.47 0.45 0.43 0.50 0.61 0.72 0.79 0.81 0.88 0.97 1.05 1.16 1.24 1.30 1.37 1.45 1.50 1.45 1.39 1.33 1.27 1.24 1.16 1.01 0.79 0.70 0.67 0.70 0.67 0.65 0.65 0.66 0.58 0.55 0.49 0.55 0.56 0.54 0.53
0.42 0.47 0.48 0.50 0.57 0.62 0.63 0.65 0.72 0.84 0.93 0.95 0.96 1.01 1.17 1.25 1.27 1.27 1.31 1.33 1.35 1.31 1.26 1.24 1.26 1.25 1.23 1.14 0.85 0.70 0.65 0.69 0.69 0.74 0.73 0.70 0.59 0.55 0.45 0.48 0.52 0.50 0.48
0.57 0.55 0.54 0.57 0.61 0.60 0.63 0.71 0.79 0.89 0.95 0.95 0.97 1.04 1.14 1.27 1.30 1.33 1.31 1.25 1.21 1.20 1.23 1.22 1.22 1.23 1.20 1.08 0.77 0.67 0.70 0.77 0.80 0.78 0.75 0.75 0.65 0.50 0.40 0.39 0.43 0.42 0.44
0.62 0.60 0.54 0.49 0.51 0.55 0.60 0.69 0.78 0.79 0.84 0.85 0.87 0.92 0.95 0.97 1.05 1.19 1.23 1.22 1.20 1.19 1.22 1.26 1.26 1.23 1.20 1.08 0.82 0.61 0.59 0.68 0.76 0.78 0.78 0.77 0.66 0.52 0.44 0.36 0.33 0.33 0.34
0.52 0.52 0.53 0.51 0.53 0.58 0.65 0.71 0.74 0.76 0.79 0.85 0.88 0.87 0.87 0.93 1.01 1.07 1.07 1.04 1.01 0.96 0.96 1.10 1.20 1.21 1.21 1.12 0.86 0.64 0.54 0.58 0.66 0.76 0.88 0.86 0.72 0.64 0.57 0.48 0.39 0.36 0.34
0.48 0.49 0.51 0.53 0.62 0.69 0.75 0.73 0.70 0.75 0.83 0.88 0.90 0.94 0.97 0.93 0.93 0.99 0.97 0.95 0.93 0.89 0.89 1.04 1.16 1.22 1.22 1.16 1.00 0.82 0.69 0.66 0.68 0.73 0.85 0.89 0.87 0.80 0.72 0.61 0.47 0.36 0.36
0.39 0.42 0.51 0.56 0.63 0.67 0.72 0.75 0.73 0.76 0.81 0.81 0.80 0.88 0.94 0.89 0.83 0.89 0.96 0.90 0.90 0.92 0.92 1.05 1.24 1.27 1.18 1.04 0.87 0.75 0.75 0.73 0.77 0.81 0.95 1.06 1.08 1.07 0.98 0.83 0.68 0.57 0.52
0.37 0.43 0.49 0.57 0.62 0.66 0.69 0.69 0.69 0.75 0.82 0.85 0.80 0.76 0.76 0.78 0.80 0.85 0.89 0.87 0.77 0.75 0.70 0.74 0.86 0.95 0.87 0.74 0.63 0.56 0.54 0.51 0.51 0.59 0.83 1.08 1.16 1.19 1.18 1.08 0.91 0.79 0.71

GEFSMW_prec_meanprecacc_138.txt.gz
Total_Precipitation_Accumulation
1.61 1.96 2.52 3.31 4.33 5.18 5.45 4.93 4.37 3.92 3.47 3.02 2.41 1.95 1.75 1.61 1.43 1.22 0.97 0.84 0.78 0.79 0.80 0.70 0.68 0.63 0.65 0.66 0.66 0.73 0.77 0.78 0.83 0.96 0.99 0.86 0.76 0.79 0.79 0.83 0.93 0.85 0.85
1.77 2.37 3.34 3.97 4.19 4.24 3.92 3.52 3.19 2.91 2.48 2.06 1.74 1.51 1.38 1.19 1.02 0.91 0.82 0.66 0.60 0.60 0.57 0.58 0.54 0.53 0.56 0.58 0.58 0.59 0.59 0.60 0.64 0.77 0.85 0.76 0.69 0.61 0.52 0.63 0.63 0.66 0.86
1.88 2.67 3.23 3.31 3.00 2.58 2.36 2.33 2.32 1.97 1.82 1.74 1.60 1.49 1.40 1.18 0.96 0.82 0.72 0.57 0.46 0.45 0.46 0.46 0.47 0.50 0.49 0.52 0.55 0.51 0.51 0.51 0.50 0.57 0.73 0.72 0.65 0.55 0.48 0.50 0.53 0.62 0.73
1.37 1.82 2.05 1.90 1.86 1.87 1.89 2.04 2.07 1.76 1.67 1.56 1.29 1.08 0.96 0.87 0.74 0.66 0.65 0.64 0.51 0.42 0.39 0.39 0.38 0.38 0.41 0.50 0.45 0.47 0.49 0.49 0.42 0.41 0.48 0.53 0.58 0.60 0.58 0.52 0.51 0.58 0.63
0.83 0.93 1.03 1.05 1.15 1.24 1.44 1.72 1.88 1.81 1.62 1.43 1.28 1.16 0.98 0.93 0.88 0.83 0.81 0.74 0.64 0.51 0.43 0.44 0.40 0.36 0.33 0.36 0.38 0.48 0.50 0.49 0.42 0.40 0.42 0.44 0.46 0.47 0.52 0.47 0.45 0.49 0.44
0.68 0.71 0.70 0.77 0.88 0.99 1.15 1.38 1.61 1.73 1.68 1.50 1.33 1.22 1.11 1.03 0.93 0.88 0.84 0.72 0.63 0.58 0.50 0.47 0.45 0.40 0.34 0.32 0.31 0.38 0.44 0.50 0.50 0.43 0.38 0.43 0.45 0.45 0.49 0.40 0.33 0.37 0.31
0.68 0.70 0.64 0.56 0.56 0.68 0.83 0.91 1.06 1.28 1.38 1.35 1.21 1.14 1.15 1.00 0.82 0.75 0.70 0.67 0.58 0.50 0.45 0.43 0.43 0.38 0.36 0.36 0.35 0.35 0.39 0.44 0.49 0.46 0.41 0.40 0.38 0.44 0.46 0.39 0.33 0.37 0.37
0.47 0.47 0.43 0.36 0.31 0.37 0.54 0.66 0.83 1.00 1.18 1.17 1.06 0.96 0.97 0.86 0.74 0.77 0.64 0.59 0.56 0.53 0.51 0.46 0.40 0.37 0.38 0.37 0.41 0.37 0.34 0.36 0.40 0.38 0.47 0.44 0.33 0.40 0.42 0.44 0.51 0.52 0.55
0.25 0.30 0.32 0.30 0.26 0.28 0.38 0.52 0.71 0.87 1.03 1.12 1.07 0.94 0.89 0.81 0.75 0.74 0.68 0.57 0.62 0.60 0.63 0.53 0.43 0.44 0.46 0.47 0.47 0.41 0.39 0.39 0.39 0.43 0.51 0.50 0.45 0.45 0.45 0.49 0.61 0.70 0.63
0.21 0.23 0.23 0.25 0.22 0.22 0.28 0.40 0.56 0.75 0.86 0.96 0.94 0.85 0.94 0.85 0.80 0.76 0.71 0.65 0.60 0.59 0.63 0.57 0.47 0.48 0.49 0.50 0.52 0.46 0.48 0.50 0.51 0.55 0.59 0.63 0.60 0.59 0.58 0.58 0.66 0.79 0.79
0.14 0.15 0.17 0.20 0.20 0.19 0.21 0.26 0.37 0.52 0.64 0.69 0.72 0.73 0.80 0.80 0.79 0.78 0.74 0.69 0.64 0.65 0.62 0.58 0.53 0.50 0.49 0.51 0.54 0.55 0.54 0.53 0.57 0.58 0.61 0.64 0.70 0.76 0.76 0.79 0.78 0.81 0.92
0.11 0.11 0.13 0.17 0.18 0.19 0.19 0.22 0.27 0.34 0.45 0.48 0.51 0.55 0.64 0.68 0.67 0.65 0.69 0.73 0.68 0.65 0.64 0.62 0.57 0.49 0.47 0.53 0.57 0.58 0.58 0.59 0.59 0.64 0.72 0.72 0.72 0.79 0.83 0.92 0.92 0.93 1.06
0.11 0.11 0.13 0.19 0.21 0.21 0.21 0.23 0.27 0.31 0.37 0.39 0.41 0.47 0.58 0.61 0.59 0.58 0.63 0.69 0.71 0.68 0.66 0.67 0.62 0.56 0.53 0.54 0.56 0.61 0.67 0.68 0.71 0.73 0.78 0.80 0.86 0.88 0.90 0.96 0.97 1.01 1.14
0.11 0.12 0.14 0.19 0.19 0.19 0.21 0.24 0.31 0.41 0.47 0.50 0.52 0.57 0.66 0.69 0.68 0.65 0.66 0.70 0.75 0.76 0.79 0.81 0.80 0.75 0.69 0.65 0.63 0.65 0.68 0.69 0.73 0.81 0.81 0.80 0.87 0.96 1.02 1.08 1.18 1.24 1.32
0.15 0.15 0.18 0.27 0.30 0.33 0.32 0.32 0.38 0.48 0.59 0.69 0.78 0.89 1.00 1.03 0.96 0.92 0.91 0.94 0.97 1.00 1.08 1.08 1.02 0.96 0.89 0.76 0.75 0.72 0.69 0.74 0.70 0.73 0.79 0.78 0.80 0.87 0.98 1.03 1.17 1.32 1.49
0.22 0.22 0.25 0.33 0.33 0.33 0.34 0.35 0.42 0.48 0.53 0.63 0.72 0.82 0.98 1.08 1.03 1.00 1.07 1.12 1.15 1.25 1.29 1.20 1.15 1.12 0.94 0.91 0.89 0.81 0.82 0.82 0.79 0.81 0.86 0.83 0.78 0.77 0.82 0.89 0.99 1.12 1.29
0.21 0.21 0.26 0.30 0.32 0.29 0.27 0.30 0.36 0.46 0.56 0.69 0.81 0.88 0.97 1.06 1.09 1.11 1.18 1.23 1.23 1.23 1.25 1.21 1.15 1.08 1.04 0.93 0.77 0.73 0.74 0.81 0.85 0.87 0.91 0.80 0.70 0.74 0.72 0.75 0.77 0.83 0.92
0.36 0.40 0.44 0.43 0.39 0.32 0.31 0.37 0.46 0.56 0.63 0.70 0.80 0.88 0.99 1.08 1.18 1.31 1.37 1.40 1.46 1.45 1.40 1.31 1.24 1.24 1.18 1.03 0.86 0.81 0.75 0.78 0.80 0.81 0.83 0.81 0.72 0.69 0.72 0.73 0.69 0.65 0.66
0.36 0.44 0.55 0.60 0.53 0.48 0.45 0.52 0.64 0.75 0.81 0.83 0.90 0.99 1.08 1.21 1.29 1.34 1.41 1.48 1.54 1.50 1.49 1.47 1.43 1.42 1.37 1.23 1.00 0.89 0.84 0.87 0.83 0.81 0.80 0.80 0.71 0.67 0.59 0.62 0.62 0.60 0.59
0.46 0.51 0.52 0.54 0.63 0.66 0.66 0.68 0.75 0.86 0.94 0.96 0.97 1.03 1.20 1.29 1.31 1.30 1.35 1.37 1.40 1.37 1.35 1.35 1.39 1.39 1.40 1.33 1.03 0.85 0.79 0.84 0.85 0.88 0.86 0.81 0.70 0.66 0.57 0.60 0.63 0.59 0.55
0.62 0.58 0.57 0.60 0.63 0.63 0.66 0.73 0.82 0.92 0.96 0.98 0.98 1.05 1.16 1.30 1.33 1.36 1.33 1.29 1.27 1.27 1.30 1.30 1.31 1.33 1.31 1.21 0.90 0.80 0.82 0.89 0.91 0.88 0.85 0.85 0.76 0.61 0.51 0.49 0.52 0.51 0.52
0.66 0.63 0.56 0.52 0.53 0.57 0.62 0.72 0.81 0.82 0.87 0.89 0.91 0.96 0.98 1.00 1.07 1.21 1.26 1.26 1.25 1.25 1.28 1.34 1.35 1.33 1.30 1.17 0.91 0.69 0.69 0.78 0.84 0.86 0.87 0.88 0.79 0.64 0.54 0.47 0.45 0.45 0.44
0.55 0.55 0.56 0.54 0.56 0.61 0.68 0.75 0.78 0.81 0.83 0.90 0.93 0.93 0.93 0.98 1.05 1.10 1.11 1.09 1.06 1.01 1.02 1.16 1.27 1.29 1.28 1.18 0.93 0.71 0.63 0.67 0.75 0.85 0.97 0.95 0.82 0.74 0.68 0.61 0.51 0.46 0.42
0.51 0.52 0.53 0.56 0.65 0.72 0.78 0.76 0.74 0.81 0.89 0.93 0.94 0.98 1.02 0.99 0.99 1.04 1.02 0.99 0.97 0.93 0.93 1.10 1.23 1.30 1.30 1.23 1.07 0.90 0.78 0.77 0.79 0.85 0.96 1.00 0.97 0.90 0.81 0.70 0.55 0.42 0.41
0.42 0.44 0.53 0.59 0.67 0.71 0.75 0.79 0.78 0.82 0.87 0.85 0.83 0.91 0.98 0.93 0.87 0.93 1.00 0.94 0.94 0.96 0.98 1.13 1.34 1.39 1.31 1.17 1.00 0.87 0.86 0.84 0.88 0.92 1.06 1.17 1.18 1.15 1.05 0.89 0.73 0.62 0.57
0.39 0.45 0.53 0.60 0.66 0.70 0.74 0.74 0.75 0.81 0.87 0.89 0.84 0.80 0.79 0.82 0.85 0.89 0.92 0.90 0.80 0.79 0.76 0.83 0.95 1.07 1.01 0.89 0.78 0.70 0.67 0.63 0.62 0.70 0.93 1.19 1.25 1.27 1.24 1.13 0.95 0.82 0.74

GEFSMW_prec_meanprecacc_144.txt.gz
Total_Precipitation_Accumulation
1.63 1.99 2.56 3.40 4.43 5.30 5.58 5.04 4.46 4.04 3.60 3.13 2.51 2.09 1.91 1.77 1.55 1.34 1.07 0.91 0.84 0.85 0.85 0.75 0.73 0.67 0.68 0.70 0.70 0.78 0.81 0.80 0.86 1.00 1.03 0.90 0.79 0.82 0.83 0.87 0.96 0.88 0.88
1.79 2.42 3.40 4.04 4.29 4.38 4.07 3.68 3.32 3.05 2.61 2.17 1.84 1.62 1.51 1.33 1.13 1.03 0.93 0.74 0.65 0.65 0.62 0.63 0.59 0.57 0.60 0.63 0.63 0.63 0.63 0.63 0.68 0.79 0.88 0.78 0.71 0.64 0.54 0.66 0.66 0.69 0.89
1.92 2.71 3.27 3.39 3.12 2.78 2.61 2.56 2.52 2.17 1.99 1.88 1.74 1.65 1.55 1.34 1.09 0.91 0.79 0.63 0.51 0.49 0.50 0.50 0.51 0.54 0.54 0.57 0.58 0.53 0.53 0.54 0.53 0.59 0.74 0.73 0.65 0.56 0.49 0.51 0.55 0.66 0.77
1.40 1.85 2.10 1.99 2.07 2.18 2.15 2.23 2.26 1.97 1.87 1.76 1.44 1.20 1.06 0.97 0.82 0.73 0.72 0.71 0.56 0.46 0.44 0.42 0.41 0.43 0.45 0.54 0.48 0.49 0.51 0.52 0.45 0.44 0.49 0.54 0.58 0.60 0.59 0.52 0.53 0.61 0.66
0.86 0.96 1.09 1.21 1.36 1.47 1.61 1.86 2.03 1.98 1.79 1.59 1.43 1.28 1.08 1.02 0.98 0.92 0.88 0.81 0.71 0.58 0.49 0.49 0.44 0.40 0.38 0.40 0.41 0.51 0.53 0.51 0.45 0.42 0.43 0.46 0.47 0.48 0.53 0.47 0.45 0.50 0.46
0.71 0.75 0.79 0.89 1.00 1.12 1.25 1.50 1.75 1.86 1.79 1.63 1.46 1.33 1.21 1.13 1.03 0.97 0.92 0.79 0.71 0.66 0.56 0.52 0.50 0.44 0.39 0.35 0.35 0.44 0.49 0.54 0.53 0.46 0.40 0.45 0.46 0.46 0.49 0.40 0.33 0.37 0.32
0.72 0.75 0.70 0.64 0.66 0.79 0.94 1.02 1.17 1.39 1.49 1.46 1.36 1.27 1.28 1.13 0.93 0.84 0.77 0.75 0.65 0.56 0.51 0.49 0.47 0.41 0.39 0.40 0.40 0.40 0.42 0.47 0.51 0.48 0.43 0.41 0.39 0.45 0.46 0.39 0.33 0.38 0.37
0.50 0.51 0.50 0.44 0.40 0.50 0.70 0.77 0.92 1.08 1.27 1.27 1.18 1.10 1.12 1.02 0.88 0.88 0.74 0.67 0.64 0.59 0.59 0.53 0.45 0.42 0.43 0.42 0.46 0.40 0.37 0.40 0.43 0.41 0.49 0.47 0.35 0.42 0.44 0.45 0.52 0.52 0.55
0.30 0.36 0.38 0.38 0.35 0.38 0.53 0.63 0.78 0.94 1.12 1.23 1.19 1.07 1.04 0.98 0.92 0.88 0.80 0.67 0.70 0.68 0.71 0.61 0.50 0.50 0.52 0.52 0.52 0.45 0.43 0.43 0.42 0.45 0.55 0.54 0.48 0.48 0.47 0.51 0.62 0.71 0.64
0.23 0.29 0.33 0.33 0.31 0.29 0.33 0.45 0.61 0.81 0.94 1.05 1.03 0.93 1.06 1.01 0.97 0.90 0.82 0.73 0.69 0.69 0.73 0.66 0.55 0.55 0.55 0.56 0.57 0.51 0.53 0.54 0.54 0.58 0.63 0.66 0.63 0.63 0.61 0.61 0.68 0.82 0.80
0.16 0.17 0.21 0.25 0.26 0.24 0.25 0.30 0.41 0.56 0.67 0.75 0.82 0.79 0.86 0.88 0.86 0.87 0.86 0.81 0.76 0.75 0.71 0.67 0.62 0.57 0.55 0.58 0.61 0.60 0.60 0.57 0.60 0.62 0.65 0.67 0.74 0.80 0.80 0.83 0.81 0.84 0.94
0.13 0.14 0.17 0.21 0.24 0.24 0.23 0.26 0.31 0.37 0.47 0.52 0.61 0.65 0.69 0.74 0.73 0.73 0.81 0.86 0.81 0.76 0.74 0.71 0.65 0.56 0.53 0.60 0.65 0.65 0.65 0.65 0.65 0.69 0.77 0.75 0.76 0.83 0.88 0.98 0.97 0.98 1.12
0.14 0.14 0.17 0.24 0.26 0.25 0.25 0.27 0.30 0.33 0.39 0.41 0.49 0.57 0.63 0.64 0.64 0.65 0.72 0.79 0.82 0.81 0.76 0.74 0.68 0.62 0.59 0.61 0.63 0.68 0.75 0.77 0.80 0.82 0.88 0.89 0.92 0.92 0.95 1.01 1.02 1.07 1.22
0.14 0.15 0.19 0.25 0.23 0.22 0.23 0.26 0.34 0.43 0.48 0.53 0.61 0.67 0.71 0.72 0.72 0.71 0.73 0.78 0.83 0.85 0.88 0.88 0.88 0.84 0.80 0.74 0.71 0.74 0.77 0.80 0.85 0.91 0.91 0.90 0.97 1.03 1.08 1.14 1.24 1.31 1.39
0.16 0.16 0.21 0.32 0.36 0.36 0.34 0.35 0.41 0.50 0.61 0.71 0.83 0.94 1.05 1.06 0.99 0.96 0.97 1.00 1.04 1.06 1.16 1.17 1.12 1.07 0.99 0.86 0.86 0.83 0.80 0.86 0.81 0.84 0.89 0.89 0.93 0.99 1.08 1.12 1.25 1.41 1.57
0.23 0.24 0.27 0.36 0.36 0.35 0.36 0.37 0.44 0.51 0.56 0.65 0.74 0.84 1.00 1.10 1.06 1.04 1.12 1.19 1.21 1.32 1.37 1.30 1.26 1.24 1.05 1.05 1.01 0.94 0.96 0.99 0.97 0.98 1.02 0.99 0.94 0.93 0.97 1.04 1.14 1.28 1.46
0.22 0.22 0.27 0.32 0.33 0.30 0.28 0.32 0.38 0.48 0.58 0.71 0.83 0.89 0.97 1.07 1.12 1.14 1.22 1.28 1.28 1.28 1.32 1.30 1.25 1.17 1.12 1.04 0.89 0.86 0.87 0.94 1.00 1.01 1.03 0.94 0.85 0.89 0.86 0.89 0.93 0.98 1.07
0.37 0.41 0.45 0.45 0.41 0.33 0.32 0.38 0.47 0.57 0.64 0.71 0.81 0.88 0.99 1.09 1.20 1.33 1.39 1.42 1.48 1.47 1.44 1.36 1.30 1.30 1.24 1.10 0.95 0.92 0.87 0.90 0.92 0.93 0.95 0.94 0.86 0.82 0.84 0.84 0.80 0.73 0.73
0.37 0.46 0.56 0.62 0.54 0.49 0.46 0.53 0.65 0.76 0.82 0.84 0.91 1.00 1.09 1.21 1.29 1.35 1.42 1.50 1.56 1.52 1.51 1.51 1.49 1.50 1.47 1.34 1.12 1.02 0.98 1.04 1.01 0.98 0.97 0.96 0.86 0.83 0.72 0.72 0.70 0.67 0.65
0.48 0.53 0.53 0.55 0.64 0.67 0.67 0.69 0.77 0.88 0.96 0.97 0.99 1.04 1.21 1.30 1.31 1.31 1.36 1.39 1.42 1.38 1.36 1.37 1.43 1.45 1.46 1.42 1.13 0.97 0.90 0.96 0.98 1.02 1.01 0.97 0.85 0.81 0.71 0.73 0.75 0.70 0.64
0.64 0.61 0.59 0.62 0.65 0.64 0.67 0.74 0.83 0.93 0.98 1.00 0.99 1.06 1.17 1.31 1.35 1.38 1.36 1.32 1.30 1.30 1.33 1.34 1.36 1.39 1.38 1.30 1.00 0.89 0.90 0.97 1.00 0.97 0.95 0.96 0.90 0.75 0.63 0.59 0.61 0.62 0.62
0.69 0.66 0.59 0.55 0.56 0.59 0.63 0.73 0.82 0.83 0.88 0.91 0.93 0.97 1.00 1.02 1.10 1.24 1.29 1.28 1.28 1.29 1.32 1.39 1.41 1.39 1.37 1.25 0.99 0.77 0.77 0.86 0.91 0.93 0.94 0.96 0.89 0.74 0.62 0.53 0.51 0.52 0.52
0.61 0.61 0.61 0.59 0.60 0.64 0.69 0.76 0.79 0.83 0.85 0.92 0.96 0.96 0.96 1.01 1.07 1.13 1.13 1.11 1.09 1.05 1.05 1.19 1.30 1.31 1.31 1.23 0.99 0.76 0.69 0.73 0.79 0.89 1.04 1.02 0.88 0.80 0.74 0.67 0.58 0.53 0.49
0.59 0.59 0.60 0.61 0.69 0.75 0.80 0.78 0.76 0.82 0.91 0.96 0.97 1.00 1.05 1.02 1.02 1.08 1.05 1.01 0.99 0.95 0.95 1.12 1.26 1.33 1.33 1.26 1.10 0.94 0.82 0.81 0.83 0.89 1.02 1.06 1.03 0.96 0.87 0.76 0.60 0.47 0.46
0.48 0.49 0.56 0.62 0.69 0.73 0.77 0.81 0.80 0.84 0.91 0.89 0.87 0.94 1.01 0.96 0.90 0.97 1.04 0.96 0.96 0.99 1.01 1.17 1.38 1.42 1.33 1.20 1.04 0.92 0.92 0.91 0.94 0.99 1.14 1.25 1.26 1.23 1.11 0.95 0.78 0.66 0.62
0.44 0.48 0.54 0.62 0.69 0.73 0.76 0.77 0.77 0.84 0.90 0.94 0.89 0.84 0.83 0.85 0.88 0.92 0.96 0.94 0.83 0.83 0.80 0.87 0.99 1.10 1.05 0.93 0.83 0.77 0.76 0.73 0.72 0.80 1.02 1.28 1.34 1.35 1.32 1.21 1.02 0.87 0.78

GEFSMW_prec_meanprecacc_150.txt.gz
Total_Precipitation_Accumulation
1.63 1.99 2.57 3.44 4.51 5.39 5.66 5.11 4.53 4.11 3.66 3.18 2.57 2.15 1.97 1.84 1.66 1.44 1.15 0.99 0.89 0.89 0.89 0.79 0.78 0.74 0.76 0.79 0.80 0.87 0.89 0.88 0.95 1.10 1.11 0.95 0.82 0.85 0.86 0.91 1.01 0.93 0.93
1.80 2.42 3.41 4.06 4.33 4.44 4.16 3.78 3.45 3.19 2.72 2.25 1.91 1.69 1.59 1.43 1.24 1.14 1.02 0.82 0.72 0.70 0.66 0.67 0.64 0.63 0.68 0.72 0.71 0.71 0.72 0.71 0.76 0.89 0.99 0.86 0.77 0.68 0.56 0.69 0.70 0.73 0.93
1.92 2.72 3.29 3.41 3.15 2.84 2.73 2.65 2.62 2.31 2.13 2.00 1.84 1.73 1.64 1.43 1.18 1.00 0.87 0.71 0.60 0.55 0.54 0.55 0.57 0.60 0.59 0.64 0.67 0.61 0.64 0.65 0.62 0.67 0.83 0.81 0.72 0.62 0.52 0.52 0.58 0.69 0.81
1.41 1.86 2.12 2.02 2.10 2.23 2.25 2.30 2.33 2.04 1.99 1.88 1.52 1.31 1.18 1.06 0.90 0.81 0.80 0.81 0.66 0.53 0.48 0.49 0.47 0.49 0.50 0.61 0.55 0.55 0.59 0.62 0.54 0.50 0.54 0.59 0.63 0.67 0.65 0.55 0.53 0.62 0.70
0.86 0.97 1.10 1.23 1.39 1.50 1.66 1.91 2.09 2.03 1.87 1.66 1.48 1.37 1.17 1.12 1.07 1.01 0.97 0.92 0.81 0.66 0.54 0.54 0.50 0.46 0.43 0.48 0.49 0.58 0.60 0.58 0.53 0.48 0.49 0.51 0.51 0.52 0.58 0.53 0.48 0.51 0.47
0.72 0.76 0.79 0.91 1.02 1.13 1.27 1.53 1.79 1.90 1.85 1.68 1.52 1.40 1.31 1.23 1.14 1.06 1.01 0.89 0.81 0.76 0.65 0.59 0.56 0.50 0.44 0.41 0.44 0.53 0.56 0.61 0.61 0.55 0.46 0.51 0.51 0.50 0.54 0.45 0.38 0.40 0.33
0.72 0.76 0.71 0.65 0.68 0.81 0.97 1.06 1.22 1.44 1.54 1.51 1.42 1.34 1.37 1.23 1.02 0.92 0.87 0.86 0.76 0.67 0.60 0.55 0.53 0.47 0.45 0.47 0.50 0.49 0.49 0.53 0.59 0.57 0.50 0.47 0.44 0.49 0.50 0.44 0.38 0.42 0.39
0.51 0.54 0.54 0.47 0.44 0.54 0.75 0.84 0.99 1.14 1.31 1.30 1.22 1.16 1.19 1.10 0.96 0.96 0.81 0.76 0.73 0.67 0.67 0.63 0.53 0.50 0.51 0.49 0.54 0.48 0.45 0.48 0.50 0.46 0.57 0.54 0.40 0.45 0.48 0.50 0.59 0.57 0.59
0.30 0.38 0.42 0.42 0.39 0.42 0.60 0.71 0.84 1.00 1.17 1.26 1.23 1.12 1.11 1.05 1.00 0.96 0.88 0.75 0.79 0.77 0.80 0.70 0.59 0.59 0.61 0.61 0.62 0.54 0.52 0.52 0.50 0.52 0.63 0.62 0.54 0.53 0.51 0.56 0.69 0.79 0.71
0.24 0.29 0.35 0.35 0.34 0.32 0.38 0.50 0.66 0.85 0.97 1.10 1.07 0.98 1.10 1.07 1.06 1.02 0.92 0.82 0.78 0.76 0.79 0.72 0.64 0.64 0.63 0.65 0.69 0.61 0.62 0.62 0.61 0.65 0.71 0.74 0.70 0.68 0.66 0.66 0.74 0.88 0.88
0.16 0.17 0.22 0.26 0.27 0.26 0.27 0.32 0.44 0.60 0.71 0.78 0.85 0.82 0.90 0.93 0.92 0.95 0.94 0.90 0.83 0.81 0.76 0.73 0.70 0.67 0.66 0.69 0.73 0.73 0.71 0.67 0.70 0.70 0.71 0.74 0.81 0.86 0.85 0.88 0.87 0.91 1.04
0.14 0.14 0.17 0.22 0.25 0.25 0.24 0.27 0.33 0.39 0.49 0.54 0.63 0.68 0.72 0.77 0.76 0.77 0.85 0.90 0.86 0.82 0.80 0.78 0.74 0.65 0.63 0.72 0.77 0.76 0.76 0.76 0.74 0.78 0.85 0.82 0.82 0.90 0.94 1.04 1.03 1.05 1.22
0.14 0.14 0.17 0.25 0.27 0.26 0.25 0.27 0.31 0.35 0.40 0.42 0.51 0.59 0.66 0.67 0.65 0.67 0.74 0.82 0.87 0.87 0.82 0.81 0.76 0.70 0.67 0.70 0.73 0.80 0.85 0.87 0.89 0.91 0.96 0.99 1.04 1.03 1.04 1.09 1.10 1.15 1.31
0.14 0.15 0.19 0.26 0.25 0.23 0.24 0.27 0.34 0.43 0.49 0.53 0.63 0.70 0.75 0.76 0.75 0.73 0.77 0.83 0.90 0.93 0.97 0.97 0.97 0.94 0.89 0.84 0.81 0.85 0.89 0.91 0.95 1.03 1.03 1.03 1.11 1.18 1.24 1.27 1.36 1.43 1.52
0.17 0.17 0.22 0.34 0.37 0.38 0.35 0.35 0.41 0.51 0.61 0.72 0.88 1.03 1.12 1.11 1.02 0.99 1.02 1.06 1.10 1.14 1.25 1.26 1.20 1.16 1.10 0.98 0.97 0.94 0.90 0.97 0.92 0.97 1.02 0.99 1.03 1.10 1.23 1.27 1.39 1.55 1.71
0.23 0.24 0.28 0.40 0.39 0.37 0.37 0.38 0.44 0.51 0.56 0.66 0.76 0.90 1.07 1.14 1.09 1.06 1.14 1.21 1.26 1.37 1.42 1.36 1.32 1.30 1.13 1.17 1.15 1.07 1.09 1.13 1.11 1.12 1.15 1.11 1.06 1.05 1.10 1.19 1.30 1.45 1.62
0.22 0.22 0.28 0.34 0.37 0.33 0.30 0.33 0.38 0.48 0.58 0.71 0.83 0.90 1.01 1.10 1.13 1.15 1.23 1.30 1.31 1.31 1.36 1.35 1.29 1.22 1.20 1.13 1.01 1.01 1.02 1.08 1.13 1.14 1.16 1.05 0.95 0.99 0.96 1.01 1.06 1.11 1.21
0.37 0.41 0.45 0.45 0.42 0.35 0.33 0.39 0.47 0.57 0.65 0.72 0.81 0.89 1.00 1.10 1.20 1.34 1.40 1.44 1.50 1.49 1.47 1.39 1.33 1.33 1.27 1.14 1.00 1.00 0.95 0.98 1.01 1.04 1.06 1.05 0.97 0.93 0.95 0.95 0.91 0.85 0.84
0.38 0.46 0.56 0.63 0.54 0.50 0.47 0.54 0.65 0.76 0.82 0.85 0.92 1.00 1.09 1.22 1.30 1.35 1.43 1.51 1.58 1.54 1.54 1.54 1.52 1.53 1.51 1.39 1.16 1.07 1.06 1.13 1.11 1.10 1.10 1.10 1.01 1.00 0.87 0.85 0.82 0.77 0.74
0.48 0.53 0.54 0.56 0.64 0.68 0.68 0.70 0.77 0.88 0.96 0.98 1.00 1.05 1.22 1.30 1.32 1.31 1.37 1.40 1.43 1.40 1.38 1.39 1.44 1.47 1.51 1.48 1.16 1.00 0.94 1.02 1.05 1.10 1.11 1.09 0.97 0.97 0.88 0.88 0.89 0.82 0.75
0.65 0.61 0.60 0.62 0.65 0.65 0.67 0.75 0.84 0.93 0.99 1.01 1.00 1.07 1.17 1.31 1.36 1.39 1.37 1.33 1.31 1.31 1.34 1.35 1.38 1.42 1.42 1.35 1.04 0.92 0.92 1.00 1.04 1.02 1.01 1.04 0.99 0.85 0.75 0.71 0.74 0.75 0.74
0.71 0.67 0.60 0.56 0.57 0.61 0.64 0.73 0.82 0.84 0.89 0.91 0.94 0.98 1.01 1.02 1.10 1.24 1.30 1.30 1.29 1.30 1.35 1.41 1.43 1.42 1.39 1.28 1.03 0.81 0.80 0.90 0.96 0.99 1.00 1.03 0.98 0.83 0.72 0.63 0.62 0.62 0.61
0.64 0.63 0.63 0.60 0.61 0.65 0.70 0.77 0.79 0.84 0.86 0.93 0.96 0.96 0.97 1.01 1.08 1.14 1.16 1.14 1.10 1.06 1.07 1.21 1.31 1.33 1.33 1.26 1.03 0.81 0.73 0.78 0.84 0.94 1.09 1.08 0.95 0.86 0.79 0.72 0.63 0.58 0.54
0.63 0.62 0.62 0.63 0.70 0.76 0.81 0.79 0.77 0.83 0.92 0.96 0.98 1.01 1.06 1.04 1.03 1.09 1.08 1.03 1.01 0.97 0.97 1.14 1.28 1.35 1.35 1.28 1.12 0.97 0.86 0.86 0.88 0.94 1.08 1.12 1.08 1.01 0.92 0.82 0.66 0.53 0.51
0.52 0.54 0.60 0.64 0.71 0.74 0.78 0.82 0.81 0.85 0.91 0.90 0.87 0.95 1.02 0.97 0.92 1.00 1.06 0.98 0.97 1.01 1.03 1.18 1.40 1.45 1.36 1.23 1.06 0.94 0.95 0.94 0.99 1.03 1.18 1.30 1.32 1.29 1.18 1.01 0.85 0.72 0.67
0.49 0.54 0.59 0.66 0.72 0.75 0.78 0.79 0.81 0.87 0.92 0.95 0.90 0.85 0.85 0.87 0.90 0.94 0.97 0.96 0.85 0.85 0.82 0.89 1.02 1.13 1.08 0.96 0.86 0.79 0.79 0.77 0.78 0.86 1.09 1.34 1.41 1.42 1.39 1.27 1.09 0.94 0.86

GEFSMW_prec_meanprecacc_156.txt.gz
Total_Precipitation_Accumulation
1.63 2.00 2.57 3.45 4.52 5.40 5.68 5.14 4.56 4.14 3.69 3.22 2.61 2.20 2.04 1.92 1.71 1.49 1.21 1.05 0.95 0.95 0.96 0.86 0.86 0.79 0.82 0.85 0.85 0.94 0.97 0.95 1.01 1.17 1.20 1.02 0.86 0.89 0.89 0.92 1.04 0.95 0.95
1.80 2.43 3.42 4.07 4.34 4.45 4.18 3.81 3.48 3.24 2.76 2.29 1.96 1.75 1.67 1.51 1.32 1.20 1.10 0.88 0.77 0.75 0.73 0.76 0.72 0.69 0.76 0.79 0.79 0.80 0.82 0.81 0.83 0.96 1.10 0.99 0.90 0.76 0.60 0.71 0.71 0.75 0.95
1.92 2.72 3.29 3.43 3.17 2.85 2.75 2.67 2.66 2.37 2.20 2.07 1.91 1.81 1.73 1.53 1.27 1.07 0.95 0.77 0.67 0.62 0.60 0.61 0.63 0.67 0.65 0.73 0.77 0.70 0.76 0.78 0.72 0.74 0.93 0.95 0.90 0.76 0.58 0.54 0.59 0.71 0.84
1.41 1.86 2.13 2.03 2.13 2.25 2.26 2.33 2.37 2.09 2.05 1.95 1.59 1.39 1.26 1.16 0.99 0.89 0.88 0.90 0.75 0.61 0.53 0.53 0.52 0.55 0.55 0.69 0.61 0.64 0.70 0.74 0.64 0.60 0.62 0.68 0.75 0.82 0.76 0.62 0.58 0.66 0.73
0.86 0.97 1.10 1.24 1.42 1.51 1.67 1.95 2.14 2.08 1.93 1.74 1.57 1.46 1.27 1.22 1.17 1.11 1.07 1.00 0.89 0.72 0.61 0.61 0.56 0.52 0.49 0.56 0.56 0.70 0.70 0.69 0.64 0.58 0.57 0.62 0.60 0.61 0.68 0.66 0.57 0.58 0.50
0.72 0.76 0.79 0.91 1.04 1.14 1.29 1.56 1.83 1.95 1.90 1.74 1.58 1.47 1.39 1.32 1.23 1.17 1.11 0.98 0.89 0.84 0.74 0.69 0.66 0.58 0.53 0.53 0.53 0.64 0.67 0.72 0.73 0.64 0.55 0.61 0.60 0.58 0.64 0.56 0.46 0.48 0.36
0.72 0.77 0.72 0.65 0.68 0.83 0.99 1.09 1.26 1.48 1.59 1.56 1.47 1.39 1.43 1.30 1.11 1.00 0.96 0.94 0.83 0.75 0.69 0.66 0.64 0.55 0.55 0.59 0.63 0.62 0.63 0.66 0.71 0.65 0.58 0.56 0.52 0.56 0.58 0.53 0.47 0.50 0.44
0.51 0.55 0.54 0.48 0.45 0.56 0.76 0.87 1.04 1.20 1.37 1.35 1.28 1.22 1.27 1.22 1.09 1.05 0.89 0.84 0.81 0.74 0.74 0.73 0.64 0.61 0.62 0.59 0.68 0.59 0.55 0.60 0.60 0.54 0.67 0.63 0.47 0.52 0.56 0.60 0.70 0.70 0.68
0.31 0.41 0.43 0.43 0.40 0.44 0.63 0.74 0.88 1.06 1.24 1.32 1.30 1.21 1.22 1.20 1.14 1.07 0.96 0.83 0.87 0.84 0.89 0.81 0.70 0.73 0.75 0.75 0.78 0.66 0.63 0.65 0.60 0.60 0.72 0.72 0.61 0.60 0.59 0.65 0.79 0.92 0.84
0.24 0.32 0.38 0.37 0.36 0.35 0.43 0.56 0.72 0.91 1.03 1.17 1.18 1.08 1.23 1.20 1.17 1.11 1.00 0.89 0.85 0.84 0.88 0.83 0.75 0.75 0.76 0.79 0.84 0.75 0.75 0.76 0.73 0.77 0.84 0.85 0.78 0.76 0.74 0.74 0.82 0.99 1.01
0.17 0.19 0.24 0.29 0.29 0.28 0.32 0.41 0.52 0.64 0.76 0.85 0.94 0.93 0.98 0.98 0.97 1.01 1.01 0.97 0.92 0.89 0.83 0.81 0.81 0.77 0.78 0.83 0.89 0.86 0.84 0.78 0.81 0.81 0.83 0.85 0.90 0.97 0.96 0.99 0.98 1.02 1.16
0.19 0.18 0.18 0.23 0.25 0.26 0.25 0.30 0.36 0.41 0.52 0.59 0.69 0.74 0.78 0.83 0.83 0.85 0.93 0.99 0.94 0.89 0.88 0.86 0.81 0.72 0.74 0.86 0.91 0.87 0.87 0.86 0.84 0.87 0.94 0.91 0.92 1.01 1.07 1.17 1.14 1.17 1.34
0.16 0.17 0.18 0.26 0.28 0.26 0.26 0.28 0.32 0.36 0.42 0.45 0.53 0.64 0.71 0.72 0.71 0.73 0.81 0.88 0.94 0.95 0.91 0.88 0.81 0.76 0.73 0.80 0.85 0.90 0.97 0.98 1.00 1.03 1.07 1.08 1.14 1.13 1.15 1.20 1.19 1.24 1.40
0.14 0.15 0.19 0.27 0.27 0.26 0.26 0.28 0.36 0.45 0.50 0.54 0.65 0.73 0.79 0.81 0.80 0.77 0.81 0.88 0.95 0.97 1.01 1.02 1.02 0.99 0.94 0.90 0.90 0.94 0.98 1.02 1.07 1.17 1.19 1.18 1.24 1.30 1.34 1.36 1.45 1.53 1.63
0.17 0.17 0.22 0.35 0.39 0.40 0.38 0.38 0.44 0.53 0.62 0.73 0.89 1.05 1.16 1.16 1.08 1.05 1.06 1.10 1.14 1.17 1.29 1.30 1.25 1.22 1.16 1.04 1.06 1.04 1.00 1.09 1.05 1.11 1.18 1.15 1.18 1.24 1.34 1.37 1.51 1.67 1.84
0.23 0.24 0.28 0.41 0.41 0.38 0.39 0.41 0.47 0.54 0.58 0.67 0.77 0.93 1.11 1.18 1.14 1.11 1.19 1.26 1.30 1.41 1.47 1.41 1.37 1.35 1.17 1.22 1.21 1.13 1.16 1.22 1.20 1.21 1.25 1.20 1.15 1.14 1.20 1.28 1.40 1.54 1.73
0.22 0.22 0.28 0.34 0.39 0.35 0.33 0.35 0.40 0.51 0.60 0.73 0.85 0.92 1.04 1.14 1.19 1.19 1.26 1.33 1.34 1.35 1.39 1.38 1.33 1.26 1.24 1.17 1.05 1.05 1.07 1.16 1.21 1.22 1.25 1.13 1.02 1.06 1.03 1.09 1.14 1.19 1.29
0.38 0.41 0.45 0.46 0.45 0.40 0.39 0.44 0.51 0.60 0.67 0.75 0.84 0.91 1.03 1.15 1.26 1.38 1.43 1.47 1.52 1.51 1.49 1.41 1.35 1.36 1.30 1.15 1.02 1.03 0.99 1.04 1.07 1.10 1.13 1.13 1.05 1.01 1.04 1.03 1.00 0.93 0.92
0.38 0.47 0.57 0.63 0.56 0.55 0.55 0.60 0.70 0.79 0.84 0.87 0.94 1.02 1.11 1.24 1.33 1.39 1.46 1.54 1.59 1.56 1.56 1.55 1.53 1.54 1.53 1.40 1.17 1.08 1.07 1.15 1.14 1.12 1.13 1.15 1.07 1.08 0.97 0.95 0.94 0.88 0.84
0.48 0.54 0.55 0.57 0.65 0.69 0.70 0.72 0.79 0.89 0.97 0.99 1.01 1.07 1.23 1.32 1.33 1.32 1.39 1.42 1.45 1.41 1.39 1.40 1.45 1.49 1.52 1.49 1.17 1.01 0.95 1.03 1.07 1.12 1.13 1.12 1.02 1.05 0.97 0.98 1.02 0.95 0.86
0.66 0.62 0.60 0.63 0.66 0.65 0.68 0.76 0.84 0.94 1.00 1.02 1.01 1.08 1.19 1.33 1.36 1.40 1.38 1.34 1.32 1.32 1.35 1.37 1.40 1.44 1.46 1.38 1.06 0.94 0.93 1.02 1.07 1.04 1.02 1.06 1.03 0.90 0.82 0.80 0.85 0.89 0.87
0.73 0.69 0.62 0.58 0.59 0.62 0.65 0.74 0.84 0.86 0.91 0.93 0.95 0.99 1.02 1.03 1.11 1.26 1.32 1.32 1.32 1.33 1.37 1.44 1.46 1.45 1.42 1.31 1.05 0.83 0.82 0.92 0.99 1.02 1.03 1.06 1.01 0.87 0.76 0.68 0.68 0.69 0.67
0.65 0.65 0.65 0.63 0.64 0.68 0.72 0.79 0.82 0.86 0.88 0.94 0.98 0.98 0.98 1.03 1.10 1.16 1.19 1.17 1.13 1.09 1.10 1.24 1.34 1.35 1.35 1.29 1.04 0.83 0.75 0.80 0.85 0.95 1.11 1.11 0.98 0.90 0.83 0.76 0.68 0.62 0.58
0.65 0.65 0.65 0.67 0.75 0.80 0.85 0.82 0.79 0.84 0.92 0.97 0.98 1.02 1.07 1.04 1.04 1.11 1.09 1.05 1.03 1.00 0.99 1.16 1.30 1.38 1.38 1.31 1.14 0.98 0.88 0.88 0.89 0.95 1.10 1.15 1.12 1.05 0.97 0.86 0.70 0.55 0.54
0.54 0.57 0.65 0.70 0.77 0.79 0.81 0.84 0.83 0.87 0.93 0.91 0.89 0.96 1.02 0.98 0.93 1.01 1.08 1.00 0.99 1.03 1.05 1.20 1.42 1.47 1.39 1.27 1.10 0.97 0.97 0.96 1.01 1.05 1.20 1.33 1.34 1.32 1.21 1.05 0.88 0.75 0.70
0.52 0.58 0.64 0.70 0.76 0.77 0.81 0.81 0.82 0.88 0.94 0.97 0.92 0.87 0.87 0.89 0.92 0.96 0.99 0.98 0.87 0.87 0.84 0.91 1.04 1.15 1.10 0.99 0.88 0.82 0.81 0.79 0.81 0.88 1.10 1.36 1.43 1.44 1.41 1.29 1.11 0.96 0.88

GEFSMW_prec_meanprecacc_162.txt.gz
Total_Precipitation_Accumulation
1.64 2.01 2.58 3.46 4.53 5.41 5.69 5.15 4.58 4.17 3.72 3.26 2.64 2.26 2.13 2.01 1.80 1.57 1.28 1.12 1.02 1.01 1.01 0.90 0.91 0.85 0.87 0.89 0.89 0.97 1.01 0.99 1.06 1.23 1.25 1.09 0.93 0.95 0.94 0.97 1.09 1.00 1.00
1.81 2.44 3.43 4.08 4.35 4.47 4.20 3.83 3.50 3.26 2.79 2.33 2.00 1.79 1.74 1.59 1.40 1.29 1.17 0.94 0.84 0.83 0.78 0.80 0.77 0.73 0.82 0.84 0.82 0.83 0.85 0.84 0.87 1.01 1.14 1.02 0.94 0.81 0.64 0.76 0.76 0.80 1.02
1.95 2.74 3.31 3.44 3.18 2.87 2.77 2.69 2.68 2.40 2.24 2.11 1.95 1.84 1.79 1.60 1.33 1.15 1.02 0.83 0.72 0.68 0.66 0.67 0.68 0.71 0.69 0.76 0.79 0.72 0.78 0.82 0.76 0.77 0.97 1.00 0.95 0.80 0.61 0.58 0.66 0.79 0.92
1.47 1.89 2.14 2.04 2.15 2.26 2.28 2.36 2.41 2.12 2.09 1.99 1.63 1.43 1.32 1.20 1.03 0.94 0.94 0.96 0.80 0.66 0.57 0.56 0.56 0.59 0.59 0.72 0.64 0.66 0.73 0.77 0.68 0.63 0.65 0.74 0.80 0.85 0.78 0.65 0.63 0.74 0.83
0.89 0.99 1.12 1.25 1.43 1.53 1.69 1.97 2.17 2.12 1.96 1.78 1.61 1.50 1.33 1.27 1.23 1.18 1.14 1.06 0.95 0.78 0.66 0.65 0.60 0.57 0.55 0.60 0.59 0.74 0.75 0.73 0.67 0.62 0.62 0.67 0.64 0.63 0.71 0.68 0.61 0.63 0.57
0.75 0.78 0.81 0.92 1.06 1.16 1.31 1.58 1.87 2.00 1.94 1.78 1.63 1.54 1.47 1.39 1.30 1.25 1.20 1.05 0.96 0.90 0.81 0.77 0.73 0.64 0.59 0.57 0.56 0.68 0.73 0.79 0.78 0.69 0.63 0.67 0.65 0.62 0.67 0.58 0.49 0.51 0.41
0.73 0.78 0.73 0.67 0.71 0.86 1.02 1.13 1.29 1.53 1.64 1.61 1.53 1.48 1.54 1.41 1.21 1.10 1.04 1.00 0.88 0.80 0.75 0.73 0.70 0.60 0.59 0.65 0.70 0.70 0.70 0.73 0.78 0.72 0.66 0.64 0.57 0.61 0.63 0.57 0.50 0.54 0.47
0.53 0.58 0.57 0.50 0.47 0.58 0.79 0.91 1.08 1.24 1.43 1.41 1.35 1.31 1.36 1.30 1.18 1.14 0.96 0.88 0.85 0.80 0.80 0.78 0.70 0.66 0.68 0.68 0.79 0.68 0.64 0.68 0.69 0.61 0.73 0.70 0.52 0.59 0.62 0.67 0.77 0.75 0.71
0.35 0.46 0.49 0.47 0.43 0.46 0.65 0.77 0.93 1.12 1.31 1.40 1.37 1.27 1.28 1.30 1.24 1.14 1.01 0.88 0.93 0.90 0.95 0.86 0.75 0.78 0.81 0.82 0.86 0.74 0.71 0.74 0.68 0.68 0.80 0.79 0.68 0.66 0.64 0.72 0.87 0.99 0.89
0.30 0.42 0.50 0.44 0.39 0.38 0.46 0.59 0.76 0.97 1.11 1.26 1.25 1.13 1.26 1.25 1.21 1.14 1.03 0.93 0.89 0.88 0.93 0.88 0.79 0.79 0.80 0.84 0.89 0.79 0.80 0.82 0.80 0.84 0.90 0.91 0.83 0.81 0.78 0.79 0.89 1.07 1.09
0.28 0.37 0.42 0.42 0.40 0.34 0.36 0.44 0.58 0.74 0.84 0.93 1.00 0.98 1.04 1.02 1.01 1.04 1.03 1.00 0.97 0.93 0.87 0.86 0.86 0.81 0.83 0.88 0.94 0.91 0.89 0.84 0.87 0.87 0.89 0.90 0.96 1.02 1.02 1.06 1.07 1.12 1.27
0.38 0.34 0.29 0.35 0.42 0.34 0.29 0.33 0.42 0.55 0.63 0.68 0.73 0.77 0.83 0.89 0.88 0.88 0.96 1.03 0.99 0.94 0.93 0.91 0.86 0.76 0.77 0.90 0.95 0.93 0.93 0.91 0.88 0.93 1.02 0.99 1.00 1.09 1.14 1.26 1.25 1.27 1.45
0.26 0.26 0.26 0.32 0.36 0.32 0.29 0.30 0.34 0.42 0.49 0.50 0.57 0.67 0.74 0.76 0.75 0.77 0.86 0.95 1.00 1.00 0.96 0.93 0.85 0.79 0.76 0.83 0.88 0.94 1.02 1.04 1.06 1.10 1.15 1.14 1.23 1.22 1.25 1.31 1.29 1.34 1.50
0.18 0.19 0.23 0.32 0.35 0.33 0.29 0.30 0.37 0.46 0.51 0.55 0.66 0.76 0.82 0.83 0.83 0.81 0.85 0.92 1.00 1.02 1.05 1.06 1.06 1.03 0.97 0.93 0.94 1.01 1.05 1.08 1.13 1.22 1.24 1.25 1.33 1.40 1.45 1.47 1.55 1.63 1.75
0.22 0.24 0.28 0.41 0.44 0.44 0.41 0.41 0.47 0.56 0.65 0.75 0.90 1.07 1.19 1.19 1.11 1.08 1.11 1.13 1.18 1.22 1.34 1.34 1.29 1.25 1.20 1.07 1.10 1.10 1.06 1.15 1.11 1.17 1.23 1.22 1.26 1.33 1.44 1.47 1.61 1.79 1.96
0.29 0.29 0.38 0.48 0.46 0.42 0.41 0.43 0.50 0.58 0.62 0.70 0.80 0.96 1.14 1.21 1.17 1.15 1.23 1.31 1.35 1.47 1.52 1.46 1.42 1.39 1.21 1.26 1.25 1.17 1.21 1.26 1.24 1.27 1.31 1.27 1.21 1.18 1.24 1.34 1.46 1.61 1.79
0.27 0.27 0.34 0.39 0.44 0.38 0.35 0.37 0.43 0.56 0.68 0.80 0.91 0.98 1.08 1.18 1.21 1.22 1.30 1.38 1.38 1.38 1.43 1.43 1.37 1.29 1.27 1.21 1.08 1.09 1.10 1.19 1.25 1.25 1.28 1.17 1.06 1.10 1.06 1.14 1.20 1.24 1.35
0.44 0.47 0.55 0.54 0.51 0.45 0.42 0.46 0.55 0.66 0.74 0.82 0.91 0.96 1.06 1.17 1.28 1.41 1.48 1.52 1.56 1.55 1.53 1.44 1.37 1.37 1.32 1.18 1.05 1.06 1.02 1.07 1.10 1.11 1.15 1.15 1.06 1.04 1.07 1.08 1.04 0.97 0.98
0.47 0.55 0.63 0.68 0.59 0.58 0.58 0.65 0.73 0.84 0.90 0.94 1.01 1.07 1.13 1.26 1.35 1.42 1.52 1.60 1.67 1.63 1.61 1.58 1.55 1.55 1.55 1.42 1.19 1.10 1.08 1.17 1.16 1.15 1.15 1.16 1.08 1.10 1.00 0.98 0.97 0.92 0.88
0.57 0.63 0.63 0.61 0.68 0.71 0.73 0.79 0.88 0.98 1.05 1.06 1.08 1.12 1.26 1.34 1.35 1.35 1.41 1.46 1.50 1.48 1.46 1.45 1.48 1.50 1.53 1.52 1.20 1.02 0.96 1.04 1.08 1.14 1.14 1.13 1.04 1.07 0.99 1.00 1.04 0.97 0.89
0.72 0.68 0.65 0.67 0.70 0.69 0.72 0.81 0.92 1.01 1.05 1.07 1.06 1.11 1.21 1.34 1.38 1.42 1.39 1.35 1.33 1.34 1.37 1.39 1.42 1.46 1.48 1.42 1.08 0.95 0.94 1.03 1.07 1.05 1.03 1.07 1.04 0.92 0.84 0.81 0.86 0.89 0.89
0.78 0.73 0.66 0.63 0.64 0.69 0.73 0.81 0.89 0.91 0.95 0.96 0.97 1.01 1.03 1.05 1.12 1.28 1.33 1.33 1.33 1.34 1.39 1.46 1.49 1.47 1.44 1.33 1.07 0.85 0.84 0.93 0.99 1.03 1.03 1.07 1.03 0.89 0.79 0.69 0.69 0.71 0.68
0.70 0.69 0.69 0.68 0.69 0.73 0.78 0.86 0.88 0.91 0.92 0.99 1.03 1.01 1.00 1.05 1.11 1.18 1.20 1.18 1.15 1.11 1.12 1.25 1.36 1.36 1.37 1.31 1.07 0.85 0.77 0.81 0.86 0.95 1.12 1.11 0.99 0.91 0.85 0.78 0.69 0.63 0.59
0.69 0.69 0.69 0.71 0.78 0.84 0.89 0.87 0.84 0.89 0.96 0.99 1.01 1.04 1.08 1.05 1.05 1.11 1.10 1.06 1.04 1.01 1.00 1.17 1.31 1.39 1.40 1.32 1.15 1.00 0.90 0.90 0.91 0.97 1.11 1.17 1.14 1.07 0.98 0.87 0.70 0.56 0.55
0.59 0.62 0.68 0.74 0.81 0.84 0.88 0.91 0.89 0.91 0.96 0.93 0.90 0.97 1.03 0.98 0.93 1.02 1.09 1.01 1.00 1.04 1.06 1.21 1.44 1.49 1.40 1.28 1.11 0.98 0.99 0.99 1.05 1.09 1.23 1.36 1.37 1.34 1.23 1.06 0.89 0.76 0.72
0.59 0.66 0.69 0.75 0.81 0.84 0.87 0.87 0.87 0.93 0.97 1.00 0.94 0.89 0.89 0.90 0.93 0.98 1.01 1.00 0.87 0.87 0.84 0.92 1.05 1.17 1.13 1.02 0.92 0.85 0.84 0.81 0.83 0.90 1.11 1.37 1.45 1.46 1.42 1.31 1.13 0.98 0.90

GEFSMW_prec_meanprecacc_168.txt.gz
Total_Precipitation_Accumulation
1.65 2.02 2.60 3.48 4.55 5.43 5.71 5.16 4.60 4.22 3.78 3.33 2.73 2.34 2.21 2.09 1.87 1.63 1.35 1.19 1.09 1.11 1.10 0.97 0.96 0.88 0.90 0.93 0.95 1.03 1.04 1.02 1.10 1.27 1.29 1.12 0.96 0.97 0.96 0.99 1.12 1.03 1.03
1.82 2.45 3.45 4.11 4.38 4.49 4.21 3.85 3.53 3.32 2.86 2.39 2.06 1.85 1.80 1.65 1.47 1.36 1.25 1.00 0.90 0.91 0.85 0.86 0.82 0.77 0.86 0.89 0.88 0.88 0.89 0.88 0.91 1.04 1.18 1.05 0.94 0.82 0.66 0.78 0.78 0.83 1.05
1.96 2.76 3.33 3.47 3.21 2.89 2.79 2.71 2.72 2.45 2.29 2.17 2.01 1.90 1.85 1.65 1.38 1.22 1.12 0.92 0.81 0.79 0.74 0.72 0.74 0.77 0.74 0.81 0.84 0.76 0.81 0.85 0.80 0.81 1.00 1.02 0.96 0.80 0.62 0.59 0.68 0.81 0.94
1.49 1.92 2.16 2.07 2.19 2.31 2.31 2.40 2.45 2.17 2.14 2.04 1.68 1.49 1.38 1.25 1.08 1.00 1.03 1.07 0.91 0.79 0.69 0.64 0.62 0.66 0.66 0.79 0.70 0.70 0.76 0.80 0.71 0.66 0.67 0.76 0.80 0.86 0.78 0.66 0.63 0.75 0.84
0.92 1.02 1.14 1.28 1.49 1.59 1.74 2.03 2.22 2.15 1.99 1.81 1.66 1.56 1.39 1.33 1.29 1.24 1.21 1.16 1.07 0.90 0.77 0.73 0.66 0.65 0.64 0.69 0.69 0.82 0.79 0.76 0.70 0.64 0.65 0.70 0.65 0.64 0.72 0.68 0.62 0.64 0.57
0.78 0.81 0.85 0.98 1.14 1.26 1.40 1.65 1.94 2.05 1.98 1.81 1.66 1.58 1.51 1.44 1.35 1.30 1.26 1.12 1.04 0.98 0.88 0.85 0.81 0.75 0.70 0.67 0.65 0.76 0.81 0.84 0.82 0.74 0.68 0.71 0.68 0.64 0.69 0.60 0.50 0.52 0.42
0.77 0.83 0.79 0.75 0.82 0.97 1.13 1.21 1.37 1.60 1.70 1.65 1.58 1.53 1.58 1.44 1.24 1.14 1.09 1.05 0.93 0.85 0.80 0.79 0.76 0.67 0.68 0.74 0.79 0.79 0.78 0.81 0.84 0.79 0.72 0.70 0.62 0.65 0.66 0.59 0.52 0.55 0.48
0.59 0.65 0.67 0.62 0.59 0.69 0.87 0.98 1.15 1.30 1.48 1.47 1.41 1.36 1.40 1.32 1.21 1.18 0.99 0.91 0.88 0.83 0.85 0.82 0.74 0.71 0.73 0.73 0.84 0.73 0.69 0.74 0.75 0.68 0.82 0.78 0.59 0.66 0.69 0.71 0.81 0.77 0.72
0.40 0.50 0.58 0.62 0.62 0.62 0.73 0.84 1.02 1.18 1.35 1.45 1.44 1.33 1.32 1.33 1.29 1.18 1.04 0.91 0.95 0.93 0.99 0.91 0.80 0.80 0.85 0.86 0.90 0.77 0.74 0.78 0.73 0.74 0.88 0.87 0.75 0.75 0.72 0.79 0.93 1.04 0.92
0.32 0.44 0.56 0.58 0.52 0.45 0.52 0.66 0.82 1.02 1.15 1.31 1.32 1.20 1.33 1.30 1.27 1.18 1.05 0.94 0.91 0.90 0.96 0.92 0.83 0.83 0.84 0.88 0.93 0.83 0.84 0.85 0.83 0.88 0.95 0.96 0.91 0.90 0.86 0.87 0.96 1.13 1.14
0.29 0.38 0.45 0.47 0.43 0.38 0.40 0.48 0.63 0.79 0.88 0.97 1.08 1.07 1.12 1.08 1.06 1.07 1.05 1.02 0.98 0.94 0.89 0.89 0.90 0.86 0.87 0.93 0.97 0.94 0.92 0.87 0.90 0.90 0.92 0.93 1.00 1.06 1.08 1.13 1.14 1.18 1.32
0.39 0.35 0.31 0.38 0.45 0.38 0.33 0.37 0.49 0.62 0.68 0.75 0.79 0.83 0.90 0.94 0.92 0.91 0.99 1.06 1.01 0.96 0.96 0.96 0.90 0.80 0.82 0.96 0.99 0.96 0.95 0.94 0.90 0.95 1.04 1.00 1.02 1.11 1.18 1.31 1.31 1.33 1.52
0.26 0.27 0.28 0.33 0.38 0.35 0.32 0.37 0.43 0.51 0.59 0.59 0.63 0.71 0.77 0.79 0.79 0.81 0.89 0.99 1.03 1.04 1.01 0.97 0.88 0.82 0.81 0.87 0.92 0.98 1.05 1.08 1.09 1.13 1.18 1.17 1.27 1.26 1.29 1.36 1.34 1.41 1.59
0.18 0.20 0.24 0.33 0.37 0.34 0.31 0.34 0.41 0.52 0.57 0.61 0.73 0.82 0.88 0.87 0.87 0.85 0.90 0.97 1.03 1.05 1.08 1.08 1.09 1.06 1.00 0.97 0.99 1.05 1.07 1.10 1.16 1.26 1.28 1.29 1.37 1.44 1.49 1.51 1.60 1.70 1.83
0.23 0.24 0.28 0.42 0.47 0.47 0.44 0.43 0.49 0.58 0.67 0.78 0.93 1.11 1.23 1.23 1.15 1.12 1.16 1.19 1.23 1.26 1.38 1.39 1.34 1.30 1.24 1.12 1.16 1.15 1.11 1.19 1.14 1.21 1.27 1.25 1.29 1.36 1.49 1.52 1.66 1.83 2.01
0.30 0.30 0.39 0.50 0.49 0.45 0.45 0.45 0.51 0.60 0.64 0.72 0.82 0.99 1.17 1.26 1.22 1.20 1.29 1.36 1.41 1.52 1.56 1.50 1.46 1.44 1.27 1.33 1.33 1.26 1.30 1.34 1.30 1.32 1.36 1.31 1.25 1.24 1.29 1.38 1.50 1.64 1.82
0.28 0.28 0.36 0.41 0.46 0.40 0.38 0.39 0.45 0.59 0.70 0.83 0.93 1.01 1.12 1.22 1.25 1.25 1.34 1.43 1.43 1.42 1.47 1.46 1.41 1.33 1.32 1.27 1.16 1.17 1.17 1.25 1.30 1.31 1.32 1.20 1.09 1.13 1.08 1.15 1.21 1.25 1.37
0.46 0.49 0.57 0.57 0.52 0.48 0.48 0.51 0.58 0.69 0.77 0.84 0.93 0.99 1.09 1.20 1.31 1.44 1.51 1.56 1.60 1.60 1.57 1.50 1.43 1.42 1.36 1.22 1.08 1.09 1.04 1.10 1.13 1.16 1.19 1.18 1.08 1.05 1.09 1.09 1.04 0.98 0.99
0.49 0.58 0.66 0.70 0.61 0.62 0.62 0.69 0.77 0.87 0.94 0.96 1.04 1.11 1.17 1.30 1.38 1.45 1.56 1.64 1.70 1.66 1.65 1.64 1.62 1.62 1.60 1.46 1.22 1.12 1.10 1.18 1.18 1.18 1.18 1.19 1.11 1.12 1.02 1.00 0.98 0.93 0.89
0.60 0.66 0.66 0.65 0.71 0.75 0.77 0.83 0.93 1.04 1.11 1.10 1.13 1.18 1.32 1.40 1.40 1.39 1.45 1.49 1.52 1.52 1.52 1.52 1.57 1.58 1.61 1.58 1.24 1.05 0.98 1.07 1.10 1.17 1.18 1.19 1.09 1.11 1.03 1.04 1.07 0.99 0.91
0.75 0.72 0.70 0.72 0.74 0.74 0.76 0.86 0.97 1.09 1.16 1.16 1.15 1.21 1.29 1.43 1.46 1.47 1.43 1.37 1.35 1.35 1.41 1.46 1.51 1.55 1.57 1.51 1.16 1.01 0.99 1.08 1.11 1.07 1.05 1.09 1.07 0.95 0.87 0.84 0.88 0.91 0.90
0.83 0.80 0.76 0.71 0.70 0.75 0.79 0.86 0.97 1.01 1.05 1.05 1.06 1.10 1.13 1.14 1.20 1.32 1.36 1.35 1.35 1.35 1.40 1.48 1.51 1.50 1.48 1.38 1.12 0.89 0.88 0.96 1.01 1.04 1.04 1.07 1.04 0.90 0.80 0.70 0.70 0.72 0.69
0.76 0.76 0.77 0.76 0.75 0.79 0.84 0.92 0.94 0.97 0.98 1.05 1.11 1.12 1.09 1.11 1.17 1.22 1.23 1.21 1.17 1.13 1.13 1.27 1.36 1.38 1.39 1.33 1.10 0.89 0.80 0.84 0.87 0.96 1.13 1.12 0.99 0.92 0.85 0.78 0.70 0.64 0.59
0.76 0.75 0.74 0.76 0.85 0.91 0.97 0.94 0.89 0.94 1.02 1.06 1.06 1.08 1.11 1.08 1.08 1.16 1.13 1.08 1.06 1.03 1.02 1.18 1.32 1.40 1.41 1.33 1.17 1.02 0.92 0.92 0.93 0.98 1.13 1.18 1.15 1.08 1.00 0.89 0.72 0.58 0.56
0.68 0.68 0.74 0.80 0.87 0.90 0.95 1.00 0.97 0.97 1.01 0.98 0.94 1.00 1.05 1.01 0.96 1.04 1.11 1.02 1.02 1.05 1.07 1.22 1.44 1.49 1.41 1.29 1.12 0.99 1.00 1.01 1.07 1.11 1.25 1.37 1.39 1.35 1.24 1.07 0.91 0.78 0.73
0.67 0.73 0.76 0.82 0.87 0.88 0.90 0.91 0.92 0.97 1.02 1.05 0.98 0.92 0.92 0.93 0.96 1.00 1.02 1.01 0.89 0.88 0.85 0.92 1.06 1.18 1.14 1.03 0.92 0.85 0.84 0.82 0.84 0.91 1.12 1.38 1.45 1.46 1.43 1.32 1.14 1.00 0.91

GEFSMW_prec_meanprecacc_174.txt.gz
Total_Precipitation_Accumulation
1.65 2.02 2.60 3.49 4.56 5.46 5.74 5.21 4.65 4.28 3.83 3.38 2.81 2.42 2.32 2.20 1.97 1.72 1.43 1.26 1.17 1.22 1.22 1.06 1.06 0.97 0.99 1.03 1.03 1.12 1.14 1.13 1.20 1.36 1.35 1.16 0.99 1.00 0.99 1.02 1.14 1.07 1.08
1.82 2.46 3.46 4.12 4.39 4.50 4.26 3.89 3.58 3.37 2.91 2.47 2.19 1.94 1.90 1.74 1.57 1.47 1.36 1.08 0.98 1.00 0.93 0.96 0.92 0.88 0.97 0.99 0.97 0.97 0.97 0.96 1.01 1.15 1.28 1.13 1.01 0.85 0.67 0.80 0.81 0.86 1.09
1.97 2.77 3.34 3.48 3.22 2.90 2.81 2.74 2.77 2.51 2.36 2.25 2.12 2.00 1.94 1.73 1.48 1.34 1.21 1.00 0.87 0.86 0.82 0.80 0.84 0.88 0.82 0.90 0.94 0.85 0.89 0.94 0.89 0.89 1.10 1.12 1.04 0.87 0.65 0.61 0.69 0.83 0.96
1.49 1.92 2.18 2.08 2.21 2.34 2.33 2.42 2.50 2.24 2.21 2.13 1.78 1.60 1.49 1.34 1.21 1.15 1.13 1.19 1.00 0.86 0.77 0.72 0.70 0.74 0.73 0.88 0.78 0.78 0.84 0.89 0.80 0.74 0.74 0.85 0.89 0.94 0.83 0.69 0.66 0.77 0.86
0.92 1.03 1.16 1.30 1.51 1.62 1.78 2.05 2.26 2.20 2.04 1.86 1.71 1.65 1.48 1.41 1.40 1.42 1.34 1.29 1.19 1.00 0.85 0.83 0.75 0.74 0.72 0.77 0.76 0.92 0.88 0.83 0.78 0.74 0.73 0.78 0.74 0.71 0.77 0.74 0.66 0.67 0.60
0.79 0.82 0.86 0.99 1.16 1.30 1.45 1.69 1.98 2.09 2.01 1.85 1.71 1.63 1.58 1.51 1.42 1.39 1.33 1.19 1.11 1.06 0.96 0.92 0.89 0.82 0.76 0.75 0.73 0.85 0.89 0.92 0.91 0.84 0.77 0.80 0.77 0.72 0.77 0.67 0.56 0.57 0.45
0.77 0.83 0.79 0.75 0.83 0.99 1.14 1.23 1.39 1.62 1.73 1.69 1.64 1.57 1.63 1.50 1.30 1.20 1.13 1.10 0.98 0.90 0.87 0.85 0.83 0.73 0.74 0.80 0.87 0.87 0.87 0.91 0.94 0.88 0.81 0.78 0.70 0.75 0.76 0.68 0.57 0.58 0.50
0.59 0.65 0.67 0.62 0.60 0.69 0.88 0.99 1.16 1.33 1.51 1.50 1.45 1.40 1.44 1.36 1.25 1.23 1.03 0.94 0.92 0.87 0.89 0.88 0.80 0.76 0.79 0.78 0.90 0.80 0.76 0.81 0.82 0.75 0.90 0.87 0.67 0.74 0.77 0.80 0.89 0.82 0.76
0.40 0.51 0.58 0.62 0.62 0.62 0.73 0.84 1.03 1.20 1.37 1.47 1.47 1.38 1.37 1.38 1.32 1.23 1.08 0.94 0.99 0.96 1.02 0.95 0.84 0.85 0.90 0.92 0.96 0.83 0.80 0.85 0.80 0.81 0.96 0.95 0.84 0.84 0.81 0.87 1.03 1.14 1.01
0.32 0.44 0.56 0.59 0.53 0.46 0.52 0.67 0.83 1.03 1.17 1.33 1.35 1.25 1.39 1.36 1.32 1.24 1.11 0.99 0.95 0.93 1.00 0.96 0.88 0.87 0.89 0.93 0.97 0.88 0.90 0.91 0.89 0.95 1.03 1.05 0.98 0.98 0.94 0.95 1.05 1.23 1.24
0.29 0.39 0.45 0.49 0.45 0.38 0.40 0.48 0.64 0.80 0.90 1.00 1.11 1.11 1.17 1.15 1.11 1.12 1.12 1.06 1.01 0.97 0.92 0.94 0.94 0.89 0.91 0.97 1.01 0.98 0.97 0.91 0.95 0.95 0.97 0.99 1.07 1.14 1.15 1.20 1.21 1.25 1.39
0.39 0.35 0.32 0.40 0.46 0.38 0.33 0.39 0.51 0.64 0.71 0.78 0.82 0.88 0.95 0.99 0.95 0.94 1.03 1.09 1.04 0.98 0.99 1.00 0.94 0.84 0.86 1.01 1.05 1.00 1.00 0.98 0.95 0.99 1.09 1.05 1.08 1.18 1.24 1.38 1.37 1.40 1.59
0.26 0.27 0.28 0.34 0.39 0.36 0.33 0.39 0.46 0.54 0.62 0.63 0.67 0.76 0.83 0.84 0.83 0.85 0.94 1.02 1.07 1.08 1.04 1.01 0.92 0.87 0.86 0.92 0.97 1.03 1.10 1.12 1.13 1.17 1.22 1.23 1.34 1.33 1.36 1.42 1.41 1.47 1.66
0.18 0.20 0.25 0.33 0.37 0.35 0.32 0.35 0.43 0.55 0.61 0.65 0.77 0.88 0.93 0.93 0.93 0.90 0.95 1.01 1.09 1.11 1.14 1.15 1.15 1.13 1.06 1.02 1.04 1.10 1.13 1.15 1.21 1.31 1.33 1.35 1.43 1.49 1.55 1.56 1.66 1.76 1.91
0.23 0.25 0.28 0.42 0.47 0.47 0.44 0.44 0.50 0.60 0.70 0.79 0.94 1.12 1.26 1.28 1.18 1.14 1.18 1.22 1.29 1.35 1.48 1.47 1.41 1.37 1.30 1.17 1.21 1.22 1.19 1.28 1.23 1.27 1.32 1.29 1.34 1.41 1.54 1.56 1.70 1.90 2.07
0.30 0.30 0.39 0.50 0.49 0.45 0.46 0.46 0.52 0.61 0.65 0.73 0.83 1.00 1.18 1.27 1.24 1.21 1.30 1.39 1.44 1.57 1.63 1.58 1.54 1.50 1.30 1.37 1.37 1.33 1.39 1.42 1.39 1.39 1.41 1.35 1.30 1.29 1.35 1.43 1.54 1.69 1.87
0.29 0.29 0.36 0.41 0.47 0.41 0.39 0.41 0.46 0.59 0.71 0.83 0.94 1.02 1.14 1.23 1.26 1.26 1.36 1.45 1.47 1.47 1.52 1.52 1.46 1.38 1.36 1.31 1.20 1.22 1.24 1.33 1.38 1.39 1.40 1.26 1.13 1.16 1.11 1.19 1.24 1.28 1.38
0.46 0.50 0.57 0.57 0.53 0.51 0.50 0.53 0.59 0.69 0.77 0.84 0.94 1.00 1.10 1.22 1.33 1.47 1.56 1.61 1.65 1.65 1.63 1.55 1.48 1.47 1.40 1.26 1.12 1.13 1.09 1.15 1.18 1.20 1.23 1.21 1.12 1.08 1.11 1.12 1.07 1.00 1.00
0.49 0.58 0.66 0.71 0.64 0.66 0.65 0.72 0.79 0.89 0.94 0.97 1.05 1.12 1.19 1.31 1.40 1.48 1.60 1.69 1.76 1.72 1.70 1.68 1.67 1.68 1.67 1.53 1.28 1.18 1.15 1.23 1.22 1.21 1.21 1.21 1.13 1.15 1.05 1.03 1.01 0.95 0.91
0.61 0.67 0.68 0.68 0.76 0.79 0.81 0.88 0.96 1.06 1.12 1.11 1.15 1.19 1.34 1.42 1.43 1.43 1.49 1.52 1.58 1.59 1.58 1.57 1.60 1.63 1.68 1.69 1.37 1.16 1.06 1.12 1.15 1.20 1.22 1.22 1.12 1.15 1.07 1.07 1.11 1.03 0.94
0.76 0.73 0.72 0.75 0.78 0.78 0.81 0.90 1.00 1.11 1.17 1.17 1.17 1.23 1.31 1.46 1.50 1.51 1.47 1.41 1.39 1.41 1.46 1.50 1.55 1.59 1.62 1.58 1.25 1.10 1.07 1.16 1.19 1.15 1.12 1.16 1.14 1.00 0.92 0.88 0.91 0.95 0.95
0.86 0.83 0.79 0.75 0.75 0.81 0.85 0.91 1.00 1.04 1.07 1.07 1.10 1.15 1.18 1.19 1.24 1.36 1.40 1.39 1.37 1.38 1.43 1.52 1.54 1.53 1.52 1.41 1.15 0.93 0.91 1.00 1.06 1.08 1.08 1.11 1.07 0.92 0.82 0.73 0.72 0.74 0.72
0.80 0.80 0.81 0.80 0.80 0.84 0.90 0.97 0.99 1.01 1.01 1.08 1.15 1.19 1.20 1.23 1.24 1.27 1.27 1.24 1.20 1.15 1.16 1.29 1.39 1.40 1.41 1.34 1.11 0.90 0.81 0.85 0.89 0.98 1.15 1.14 1.01 0.93 0.87 0.80 0.71 0.65 0.60
0.78 0.79 0.78 0.81 0.88 0.95 1.01 0.97 0.92 0.97 1.05 1.08 1.08 1.10 1.15 1.14 1.13 1.19 1.17 1.12 1.10 1.06 1.05 1.21 1.34 1.42 1.43 1.35 1.18 1.03 0.93 0.93 0.94 0.99 1.13 1.19 1.15 1.09 1.00 0.90 0.73 0.58 0.57
0.71 0.72 0.78 0.83 0.90 0.93 0.98 1.03 0.99 0.99 1.03 0.99 0.96 1.02 1.07 1.02 0.97 1.06 1.12 1.04 1.04 1.07 1.09 1.25 1.47 1.51 1.42 1.30 1.13 1.00 1.01 1.01 1.07 1.11 1.25 1.37 1.39 1.36 1.24 1.08 0.91 0.78 0.74
0.70 0.76 0.79 0.85 0.90 0.91 0.93 0.94 0.94 0.99 1.04 1.07 1.00 0.95 0.93 0.94 0.97 1.01 1.03 1.02 0.89 0.89 0.86 0.93 1.07 1.19 1.14 1.04 0.93 0.86 0.85 0.82 0.84 0.91 1.12 1.38 1.46 1.47 1.44 1.33 1.15 1.00 0.92

GEFSMW_prec_meanprecacc_180.txt.gz
Total_Precipitation_Accumulation
1.65 2.03 2.61 3.49 4.57 5.47 5.76 5.23 4.69 4.33 3.88 3.45 2.89 2.50 2.40 2.28 2.04 1.78 1.48 1.32 1.22 1.27 1.28 1.12 1.16 1.06 1.09 1.12 1.11 1.20 1.23 1.21 1.27 1.46 1.46 1.24 1.05 1.05 1.03 1.07 1.21 1.14 1.14
1.82 2.46 3.47 4.12 4.39 4.52 4.28 3.93 3.65 3.42 2.96 2.54 2.27 2.03 1.97 1.80 1.63 1.53 1.44 1.15 1.02 1.04 0.99 1.05 1.02 0.98 1.09 1.11 1.08 1.09 1.09 1.06 1.10 1.26 1.44 1.27 1.13 0.93 0.73 0.87 0.87 0.92 1.15
1.97 2.77 3.35 3.48 3.22 2.92 2.82 2.77 2.81 2.56 2.41 2.31 2.20 2.08 2.02 1.80 1.56 1.41 1.30 1.06 0.92 0.91 0.89 0.87 0.93 1.00 0.96 1.05 1.08 0.97 1.01 1.05 1.01 1.01 1.26 1.31 1.22 1.01 0.74 0.68 0.76 0.87 1.00
1.49 1.93 2.18 2.08 2.21 2.34 2.34 2.44 2.53 2.28 2.25 2.17 1.85 1.72 1.60 1.45 1.30 1.23 1.22 1.26 1.06 0.92 0.86 0.80 0.80 0.86 0.83 1.01 0.89 0.92 0.99 1.03 0.92 0.86 0.87 0.99 1.06 1.13 0.98 0.78 0.71 0.80 0.90
0.92 1.03 1.16 1.30 1.51 1.62 1.78 2.07 2.30 2.25 2.08 1.90 1.77 1.75 1.61 1.52 1.49 1.51 1.46 1.40 1.27 1.06 0.92 0.90 0.84 0.84 0.80 0.87 0.85 1.04 1.02 0.96 0.89 0.87 0.87 0.91 0.88 0.86 0.94 0.87 0.77 0.75 0.65
0.79 0.82 0.86 0.99 1.17 1.30 1.45 1.70 2.00 2.13 2.05 1.88 1.75 1.70 1.68 1.61 1.52 1.50 1.44 1.28 1.18 1.11 1.01 0.98 0.97 0.89 0.84 0.83 0.81 0.94 0.99 1.03 1.03 0.97 0.88 0.93 0.89 0.86 0.93 0.81 0.69 0.68 0.51
0.77 0.83 0.80 0.76 0.83 0.99 1.15 1.23 1.40 1.65 1.76 1.72 1.67 1.63 1.70 1.57 1.39 1.30 1.21 1.16 1.01 0.93 0.92 0.90 0.90 0.80 0.81 0.88 0.95 0.94 0.95 0.99 1.03 0.98 0.91 0.88 0.79 0.85 0.88 0.80 0.67 0.68 0.57
0.59 0.66 0.67 0.62 0.60 0.69 0.88 0.99 1.17 1.34 1.53 1.53 1.49 1.45 1.49 1.42 1.32 1.31 1.09 0.99 0.95 0.90 0.91 0.91 0.84 0.81 0.84 0.85 1.00 0.88 0.83 0.88 0.90 0.81 0.99 0.97 0.77 0.85 0.87 0.91 1.00 0.91 0.84
0.40 0.51 0.59 0.63 0.62 0.62 0.74 0.85 1.05 1.22 1.39 1.50 1.51 1.42 1.42 1.42 1.39 1.32 1.14 0.99 1.04 0.99 1.05 1.00 0.90 0.90 0.96 0.99 1.04 0.91 0.87 0.94 0.88 0.89 1.05 1.03 0.93 0.94 0.91 1.00 1.15 1.24 1.09
0.32 0.44 0.56 0.59 0.53 0.46 0.53 0.68 0.84 1.06 1.20 1.36 1.39 1.29 1.44 1.41 1.39 1.31 1.19 1.05 1.01 0.99 1.08 1.05 0.95 0.93 0.96 1.00 1.05 0.95 0.97 0.99 0.97 1.02 1.12 1.13 1.07 1.08 1.04 1.05 1.15 1.33 1.32
0.30 0.39 0.45 0.49 0.45 0.38 0.40 0.49 0.66 0.83 0.93 1.03 1.15 1.15 1.22 1.19 1.18 1.20 1.19 1.13 1.09 1.05 1.03 1.03 1.01 0.97 1.00 1.06 1.10 1.05 1.04 0.99 1.02 1.02 1.05 1.06 1.15 1.22 1.22 1.28 1.30 1.34 1.49
0.39 0.35 0.32 0.40 0.49 0.39 0.33 0.39 0.52 0.66 0.74 0.81 0.85 0.91 0.99 1.03 1.00 0.99 1.08 1.15 1.10 1.03 1.05 1.06 1.00 0.90 0.95 1.08 1.12 1.06 1.08 1.07 1.02 1.05 1.15 1.11 1.14 1.25 1.31 1.45 1.43 1.48 1.69
0.28 0.27 0.28 0.35 0.46 0.39 0.34 0.40 0.48 0.56 0.65 0.67 0.72 0.80 0.86 0.87 0.86 0.89 0.99 1.08 1.12 1.13 1.09 1.06 0.98 0.93 0.93 0.98 1.03 1.09 1.17 1.19 1.20 1.23 1.27 1.27 1.38 1.37 1.41 1.48 1.47 1.53 1.73
0.21 0.20 0.25 0.33 0.40 0.38 0.34 0.37 0.47 0.62 0.66 0.68 0.81 0.92 0.96 0.95 0.95 0.94 0.99 1.07 1.16 1.18 1.21 1.21 1.22 1.21 1.13 1.10 1.11 1.16 1.19 1.22 1.26 1.35 1.37 1.38 1.46 1.52 1.59 1.61 1.71 1.82 1.98
0.27 0.25 0.28 0.42 0.48 0.49 0.46 0.46 0.52 0.65 0.76 0.84 0.97 1.14 1.28 1.30 1.20 1.16 1.20 1.27 1.34 1.40 1.54 1.53 1.47 1.44 1.37 1.23 1.27 1.28 1.24 1.33 1.27 1.32 1.36 1.33 1.38 1.45 1.57 1.59 1.75 1.95 2.14
0.32 0.30 0.39 0.50 0.49 0.46 0.46 0.47 0.53 0.61 0.66 0.75 0.85 1.01 1.19 1.28 1.25 1.23 1.33 1.44 1.50 1.62 1.68 1.62 1.57 1.55 1.34 1.41 1.42 1.37 1.43 1.47 1.44 1.44 1.46 1.39 1.34 1.33 1.38 1.46 1.58 1.73 1.92
0.29 0.29 0.36 0.41 0.47 0.42 0.40 0.42 0.47 0.60 0.71 0.84 0.95 1.02 1.15 1.24 1.28 1.29 1.39 1.49 1.52 1.53 1.58 1.56 1.50 1.42 1.39 1.35 1.24 1.24 1.26 1.37 1.42 1.43 1.44 1.29 1.16 1.20 1.15 1.23 1.28 1.31 1.41
0.47 0.50 0.57 0.58 0.54 0.51 0.51 0.57 0.61 0.71 0.78 0.85 0.94 1.00 1.11 1.23 1.35 1.50 1.60 1.66 1.71 1.71 1.69 1.61 1.55 1.54 1.45 1.30 1.15 1.15 1.11 1.19 1.23 1.25 1.28 1.27 1.16 1.12 1.15 1.15 1.11 1.03 1.04
0.49 0.58 0.66 0.71 0.65 0.67 0.67 0.75 0.81 0.90 0.96 0.98 1.06 1.13 1.21 1.34 1.43 1.51 1.64 1.74 1.82 1.79 1.77 1.75 1.76 1.77 1.73 1.58 1.31 1.22 1.19 1.28 1.28 1.27 1.27 1.28 1.18 1.18 1.07 1.05 1.04 0.98 0.94
0.61 0.67 0.68 0.69 0.77 0.81 0.83 0.90 0.98 1.08 1.14 1.13 1.16 1.21 1.37 1.45 1.46 1.47 1.55 1.59 1.64 1.67 1.69 1.66 1.71 1.71 1.74 1.75 1.41 1.20 1.09 1.18 1.22 1.28 1.29 1.29 1.17 1.18 1.09 1.10 1.13 1.05 0.96
0.77 0.75 0.74 0.78 0.81 0.81 0.83 0.92 1.03 1.14 1.19 1.20 1.20 1.26 1.35 1.50 1.53 1.56 1.53 1.47 1.47 1.51 1.57 1.59 1.63 1.67 1.69 1.64 1.29 1.14 1.11 1.20 1.25 1.22 1.19 1.23 1.19 1.05 0.96 0.92 0.94 0.98 0.96
0.87 0.85 0.82 0.79 0.79 0.84 0.88 0.95 1.06 1.10 1.11 1.10 1.13 1.19 1.22 1.22 1.27 1.42 1.47 1.46 1.45 1.47 1.52 1.60 1.60 1.59 1.57 1.46 1.20 0.96 0.94 1.04 1.10 1.11 1.11 1.13 1.09 0.94 0.83 0.74 0.73 0.75 0.73
0.82 0.83 0.85 0.85 0.84 0.88 0.94 1.05 1.08 1.08 1.07 1.11 1.18 1.22 1.24 1.27 1.30 1.34 1.37 1.34 1.29 1.23 1.23 1.34 1.42 1.43 1.45 1.39 1.15 0.93 0.84 0.87 0.90 0.99 1.16 1.15 1.02 0.94 0.87 0.80 0.71 0.65 0.61
0.82 0.84 0.84 0.87 0.96 1.01 1.08 1.06 1.01 1.03 1.11 1.13 1.12 1.13 1.18 1.18 1.21 1.31 1.29 1.23 1.17 1.10 1.08 1.24 1.36 1.44 1.45 1.38 1.21 1.05 0.96 0.95 0.95 1.00 1.14 1.19 1.16 1.09 1.00 0.90 0.73 0.59 0.57
0.76 0.78 0.84 0.90 0.98 1.00 1.05 1.12 1.10 1.06 1.08 1.04 1.00 1.07 1.11 1.06 1.01 1.11 1.18 1.08 1.06 1.09 1.11 1.27 1.49 1.53 1.45 1.33 1.16 1.03 1.03 1.03 1.09 1.12 1.26 1.38 1.39 1.36 1.25 1.08 0.92 0.79 0.75
0.73 0.80 0.83 0.89 0.96 0.98 1.00 1.00 1.01 1.04 1.09 1.12 1.06 1.00 0.98 0.97 0.99 1.04 1.06 1.04 0.91 0.90 0.88 0.95 1.07 1.20 1.16 1.05 0.94 0.87 0.86 0.84 0.86 0.92 1.13 1.40 1.47 1.48 1.45 1.34 1.16 1.01 0.93

GEFSMW_prec_meanprecacc_186.txt.gz
Total_Precipitation_Accumulation
1.68 2.06 2.63 3.50 4.57 5.48 5.77 5.25 4.72 4.36 3.92 3.48 2.92 2.53 2.44 2.32 2.07 1.80 1.51 1.36 1.27 1.31 1.32 1.16 1.22 1.12 1.14 1.17 1.17 1.24 1.27 1.23 1.31 1.50 1.51 1.29 1.12 1.12 1.10 1.14 1.29 1.21 1.22
1.86 2.52 3.50 4.13 4.39 4.53 4.29 3.95 3.68 3.45 2.99 2.58 2.31 2.06 2.00 1.83 1.66 1.56 1.48 1.19 1.07 1.08 1.02 1.10 1.08 1.03 1.13 1.16 1.14 1.14 1.13 1.09 1.14 1.31 1.50 1.33 1.22 1.01 0.80 0.95 0.96 1.01 1.25
2.03 2.82 3.37 3.50 3.23 2.93 2.83 2.78 2.83 2.58 2.43 2.35 2.23 2.12 2.06 1.83 1.59 1.46 1.37 1.12 0.97 0.96 0.95 0.92 0.97 1.04 1.00 1.11 1.13 1.04 1.05 1.09 1.06 1.07 1.32 1.37 1.27 1.06 0.80 0.75 0.83 0.95 1.09
1.54 1.96 2.20 2.09 2.21 2.35 2.36 2.46 2.55 2.30 2.27 2.20 1.88 1.76 1.64 1.50 1.34 1.27 1.26 1.30 1.11 0.97 0.90 0.84 0.84 0.90 0.89 1.06 0.92 0.96 1.03 1.08 0.98 0.93 0.93 1.04 1.11 1.16 1.00 0.81 0.75 0.86 0.95
0.94 1.04 1.17 1.31 1.52 1.63 1.79 2.09 2.33 2.28 2.11 1.93 1.81 1.80 1.66 1.59 1.54 1.55 1.49 1.44 1.33 1.12 0.97 0.94 0.87 0.87 0.84 0.90 0.89 1.09 1.07 1.00 0.94 0.92 0.93 0.98 0.95 0.92 0.97 0.90 0.80 0.79 0.70
0.80 0.83 0.88 1.01 1.18 1.31 1.47 1.71 2.02 2.15 2.07 1.91 1.79 1.74 1.73 1.66 1.56 1.54 1.47 1.32 1.24 1.18 1.06 1.02 1.00 0.92 0.88 0.86 0.85 0.99 1.04 1.06 1.06 1.00 0.93 0.98 0.94 0.91 0.99 0.86 0.73 0.70 0.54
0.80 0.87 0.82 0.80 0.86 1.01 1.16 1.24 1.41 1.66 1.78 1.75 1.70 1.66 1.73 1.60 1.41 1.33 1.24 1.18 1.04 0.96 0.95 0.94 0.95 0.84 0.86 0.94 1.02 1.01 1.00 1.04 1.07 1.01 0.94 0.90 0.82 0.89 0.92 0.84 0.70 0.71 0.59
0.63 0.69 0.69 0.65 0.63 0.71 0.89 1.00 1.18 1.35 1.54 1.54 1.51 1.48 1.52 1.45 1.35 1.34 1.12 1.02 0.98 0.93 0.95 0.96 0.89 0.84 0.88 0.90 1.06 0.94 0.91 0.95 0.96 0.86 1.03 0.99 0.80 0.90 0.94 0.97 1.06 0.96 0.87
0.43 0.53 0.60 0.67 0.65 0.64 0.74 0.86 1.05 1.23 1.40 1.51 1.53 1.45 1.44 1.44 1.41 1.34 1.17 1.02 1.08 1.03 1.09 1.04 0.96 0.95 1.00 1.03 1.10 0.98 0.95 1.02 0.95 0.94 1.10 1.07 0.96 0.99 0.97 1.06 1.22 1.29 1.13
0.35 0.47 0.59 0.63 0.55 0.48 0.54 0.69 0.85 1.07 1.22 1.38 1.41 1.31 1.46 1.44 1.42 1.35 1.22 1.09 1.04 1.03 1.11 1.09 1.00 0.98 1.01 1.05 1.11 1.01 1.03 1.05 1.03 1.09 1.21 1.20 1.13 1.14 1.11 1.11 1.21 1.39 1.38
0.32 0.40 0.49 0.52 0.48 0.40 0.42 0.50 0.67 0.84 0.95 1.06 1.17 1.17 1.24 1.23 1.23 1.25 1.23 1.17 1.12 1.09 1.08 1.07 1.05 1.01 1.04 1.09 1.14 1.10 1.10 1.07 1.11 1.12 1.15 1.14 1.22 1.28 1.27 1.34 1.36 1.40 1.53
0.42 0.37 0.34 0.43 0.53 0.48 0.37 0.43 0.57 0.69 0.76 0.84 0.88 0.93 1.01 1.06 1.04 1.05 1.12 1.19 1.13 1.05 1.08 1.09 1.04 0.94 0.99 1.12 1.16 1.11 1.14 1.15 1.12 1.16 1.25 1.19 1.21 1.31 1.36 1.50 1.49 1.53 1.74
0.31 0.29 0.30 0.37 0.50 0.47 0.38 0.47 0.55 0.60 0.68 0.70 0.75 0.83 0.88 0.90 0.89 0.92 1.02 1.12 1.15 1.15 1.10 1.08 0.99 0.95 0.97 1.03 1.08 1.14 1.23 1.27 1.27 1.31 1.36 1.35 1.45 1.44 1.47 1.53 1.53 1.60 1.80
0.27 0.23 0.27 0.36 0.45 0.44 0.39 0.42 0.52 0.67 0.73 0.74 0.86 0.96 0.99 0.97 0.97 0.96 1.02 1.11 1.19 1.20 1.23 1.23 1.24 1.23 1.17 1.13 1.15 1.22 1.26 1.29 1.34 1.42 1.42 1.44 1.52 1.59 1.65 1.66 1.76 1.88 2.05
0.30 0.28 0.31 0.45 0.51 0.55 0.54 0.53 0.58 0.72 0.86 0.95 1.05 1.20 1.32 1.33 1.22 1.17 1.22 1.29 1.36 1.42 1.56 1.55 1.51 1.51 1.44 1.29 1.33 1.35 1.31 1.41 1.35 1.39 1.42 1.38 1.43 1.50 1.61 1.63 1.78 1.99 2.19
0.35 0.33 0.41 0.53 0.53 0.50 0.52 0.53 0.58 0.65 0.69 0.78 0.88 1.05 1.22 1.31 1.27 1.25 1.35 1.46 1.53 1.65 1.71 1.65 1.60 1.58 1.38 1.47 1.51 1.47 1.54 1.57 1.52 1.51 1.53 1.46 1.40 1.38 1.43 1.51 1.63 1.78 1.98
0.34 0.36 0.40 0.46 0.54 0.47 0.44 0.49 0.54 0.63 0.74 0.86 0.97 1.04 1.16 1.27 1.30 1.31 1.41 1.51 1.54 1.56 1.62 1.61 1.56 1.46 1.43 1.40 1.30 1.31 1.32 1.44 1.50 1.51 1.51 1.37 1.23 1.27 1.21 1.30 1.35 1.38 1.48
0.50 0.54 0.62 0.64 0.62 0.56 0.56 0.64 0.68 0.74 0.81 0.88 0.97 1.03 1.14 1.26 1.38 1.53 1.62 1.68 1.73 1.74 1.73 1.66 1.61 1.59 1.51 1.37 1.23 1.23 1.17 1.24 1.29 1.32 1.34 1.33 1.23 1.20 1.23 1.23 1.17 1.08 1.08
0.53 0.62 0.70 0.76 0.68 0.70 0.72 0.80 0.85 0.95 1.00 1.01 1.09 1.16 1.23 1.37 1.46 1.54 1.67 1.77 1.84 1.82 1.81 1.80 1.82 1.84 1.81 1.67 1.40 1.29 1.26 1.35 1.35 1.33 1.32 1.34 1.24 1.25 1.15 1.12 1.09 1.02 0.97
0.64 0.70 0.72 0.74 0.82 0.85 0.89 0.95 1.02 1.13 1.19 1.18 1.22 1.27 1.41 1.49 1.50 1.51 1.58 1.63 1.68 1.71 1.74 1.71 1.78 1.78 1.80 1.82 1.50 1.27 1.16 1.24 1.27 1.33 1.34 1.37 1.27 1.30 1.22 1.22 1.23 1.13 1.02
0.79 0.77 0.78 0.84 0.87 0.86 0.89 0.99 1.11 1.21 1.27 1.28 1.28 1.34 1.42 1.57 1.60 1.62 1.57 1.51 1.52 1.55 1.61 1.64 1.70 1.74 1.75 1.70 1.36 1.23 1.18 1.27 1.30 1.27 1.24 1.27 1.25 1.11 1.02 0.98 1.01 1.03 1.01
0.90 0.89 0.87 0.86 0.87 0.91 0.97 1.04 1.15 1.20 1.20 1.19 1.22 1.28 1.33 1.32 1.34 1.47 1.52 1.51 1.50 1.52 1.58 1.66 1.68 1.67 1.64 1.53 1.25 1.01 0.99 1.08 1.13 1.14 1.13 1.15 1.10 0.95 0.84 0.75 0.74 0.76 0.74
0.83 0.86 0.89 0.92 0.94 0.97 1.04 1.16 1.20 1.21 1.19 1.25 1.35 1.41 1.42 1.41 1.40 1.41 1.42 1.39 1.35 1.29 1.30 1.43 1.50 1.52 1.55 1.47 1.21 0.97 0.87 0.90 0.92 1.01 1.17 1.16 1.02 0.94 0.87 0.80 0.72 0.65 0.61
0.84 0.86 0.88 0.93 1.03 1.11 1.19 1.19 1.15 1.21 1.35 1.41 1.38 1.36 1.38 1.34 1.32 1.37 1.34 1.29 1.25 1.21 1.18 1.32 1.46 1.53 1.55 1.46 1.26 1.08 0.97 0.97 0.97 1.01 1.15 1.20 1.17 1.09 1.01 0.90 0.73 0.59 0.58
0.80 0.81 0.87 0.95 1.04 1.08 1.15 1.23 1.24 1.27 1.34 1.29 1.19 1.21 1.23 1.17 1.09 1.16 1.22 1.13 1.12 1.14 1.15 1.30 1.52 1.56 1.47 1.35 1.18 1.04 1.04 1.04 1.10 1.13 1.27 1.39 1.40 1.37 1.26 1.10 0.93 0.81 0.76
0.76 0.82 0.85 0.93 1.01 1.05 1.08 1.09 1.12 1.19 1.25 1.25 1.15 1.06 1.03 1.02 1.04 1.08 1.11 1.08 0.94 0.93 0.89 0.96 1.09 1.21 1.16 1.06 0.95 0.88 0.87 0.85 0.87 0.93 1.14 1.40 1.48 1.49 1.47 1.36 1.17 1.02 0.94

GEFSMW_prec_meanprecacc_192.txt.gz
Total_Precipitation_Accumulation
1.69 2.08 2.68 3.55 4.63 5.53 5.80 5.27 4.74 4.38 3.94 3.50 2.94 2.55 2.46 2.35 2.09 1.82 1.53 1.39 1.31 1.35 1.37 1.22 1.29 1.18 1.20 1.22 1.24 1.30 1.31 1.27 1.34 1.53 1.53 1.31 1.14 1.15 1.14 1.18 1.34 1.27 1.27
1.87 2.57 3.59 4.18 4.43 4.55 4.31 3.96 3.69 3.46 3.01 2.60 2.33 2.08 2.03 1.85 1.68 1.58 1.50 1.22 1.11 1.13 1.08 1.17 1.15 1.10 1.18 1.21 1.19 1.19 1.18 1.12 1.17 1.34 1.54 1.37 1.25 1.04 0.82 0.97 0.99 1.05 1.29
2.05 2.85 3.39 3.52 3.25 2.94 2.84 2.78 2.83 2.58 2.44 2.37 2.26 2.14 2.08 1.85 1.60 1.48 1.40 1.17 1.01 1.01 1.01 1.01 1.04 1.12 1.07 1.15 1.17 1.08 1.10 1.13 1.09 1.11 1.37 1.39 1.29 1.08 0.81 0.77 0.86 0.97 1.11
1.57 1.98 2.22 2.11 2.23 2.37 2.38 2.48 2.56 2.31 2.28 2.21 1.91 1.79 1.67 1.53 1.37 1.31 1.31 1.36 1.15 1.01 0.96 0.93 0.92 0.97 0.95 1.10 0.96 0.99 1.07 1.12 1.01 0.96 0.96 1.06 1.13 1.18 1.02 0.83 0.77 0.88 0.97
0.95 1.06 1.20 1.34 1.54 1.65 1.82 2.11 2.35 2.29 2.12 1.94 1.83 1.83 1.69 1.62 1.58 1.60 1.54 1.48 1.37 1.17 1.03 1.02 0.95 0.93 0.89 0.94 0.94 1.14 1.11 1.05 0.98 0.96 0.98 1.03 0.99 0.96 1.00 0.93 0.82 0.81 0.72
0.82 0.86 0.91 1.03 1.20 1.32 1.49 1.73 2.03 2.16 2.08 1.92 1.81 1.77 1.76 1.70 1.61 1.58 1.51 1.35 1.29 1.24 1.11 1.07 1.05 0.96 0.92 0.90 0.89 1.04 1.09 1.12 1.11 1.05 0.98 1.04 0.99 0.95 1.03 0.92 0.78 0.73 0.55
0.84 0.91 0.85 0.82 0.88 1.02 1.17 1.27 1.43 1.68 1.80 1.77 1.71 1.69 1.77 1.65 1.46 1.36 1.27 1.22 1.07 1.00 1.00 0.99 0.99 0.88 0.89 0.98 1.07 1.07 1.06 1.09 1.10 1.04 0.97 0.94 0.85 0.91 0.95 0.86 0.74 0.74 0.61
0.69 0.73 0.72 0.67 0.64 0.71 0.90 1.02 1.20 1.37 1.56 1.56 1.53 1.50 1.55 1.48 1.37 1.35 1.14 1.05 1.01 0.97 0.99 0.99 0.94 0.91 0.92 0.93 1.10 1.01 0.96 1.00 1.00 0.92 1.07 1.02 0.82 0.92 0.97 1.00 1.09 0.98 0.88
0.46 0.54 0.61 0.68 0.66 0.65 0.75 0.87 1.07 1.24 1.42 1.52 1.55 1.47 1.46 1.46 1.44 1.37 1.19 1.04 1.11 1.06 1.12 1.07 1.00 0.99 1.04 1.09 1.16 1.06 1.04 1.09 0.99 0.99 1.15 1.11 1.00 1.02 1.00 1.09 1.24 1.32 1.15
0.36 0.48 0.60 0.63 0.56 0.49 0.56 0.70 0.86 1.09 1.23 1.39 1.43 1.33 1.48 1.46 1.45 1.38 1.25 1.11 1.08 1.08 1.15 1.13 1.05 1.06 1.09 1.14 1.21 1.11 1.13 1.14 1.09 1.14 1.25 1.24 1.16 1.18 1.15 1.15 1.25 1.43 1.40
0.32 0.41 0.50 0.53 0.49 0.42 0.44 0.52 0.69 0.87 0.97 1.08 1.18 1.19 1.26 1.25 1.25 1.29 1.27 1.22 1.17 1.14 1.13 1.12 1.10 1.07 1.10 1.16 1.21 1.17 1.17 1.13 1.16 1.17 1.19 1.18 1.26 1.32 1.31 1.38 1.39 1.43 1.56
0.44 0.40 0.36 0.45 0.55 0.49 0.40 0.46 0.61 0.73 0.80 0.87 0.90 0.95 1.03 1.08 1.07 1.08 1.16 1.23 1.16 1.08 1.12 1.14 1.08 0.98 1.04 1.18 1.21 1.17 1.18 1.20 1.17 1.21 1.31 1.25 1.27 1.36 1.42 1.56 1.54 1.58 1.79
0.35 0.34 0.36 0.42 0.55 0.50 0.42 0.51 0.61 0.67 0.75 0.74 0.78 0.85 0.91 0.92 0.92 0.95 1.05 1.15 1.18 1.17 1.13 1.10 1.01 0.98 1.00 1.07 1.12 1.19 1.28 1.31 1.32 1.36 1.41 1.42 1.53 1.51 1.55 1.62 1.62 1.68 1.88
0.30 0.27 0.31 0.42 0.51 0.51 0.46 0.49 0.59 0.76 0.81 0.80 0.90 1.00 1.02 1.00 1.00 0.98 1.05 1.14 1.21 1.23 1.26 1.25 1.26 1.26 1.20 1.17 1.20 1.26 1.30 1.33 1.37 1.45 1.46 1.48 1.57 1.64 1.71 1.73 1.83 1.96 2.12
0.33 0.32 0.35 0.51 0.56 0.62 0.63 0.60 0.63 0.77 0.91 1.00 1.09 1.24 1.36 1.37 1.26 1.20 1.25 1.31 1.38 1.44 1.59 1.58 1.54 1.54 1.47 1.32 1.36 1.38 1.34 1.44 1.39 1.44 1.48 1.44 1.49 1.57 1.68 1.69 1.84 2.05 2.25
0.36 0.34 0.44 0.57 0.58 0.56 0.57 0.57 0.61 0.70 0.75 0.85 0.94 1.09 1.26 1.34 1.31 1.28 1.37 1.48 1.55 1.67 1.74 1.68 1.65 1.63 1.42 1.50 1.54 1.51 1.57 1.61 1.56 1.56 1.60 1.56 1.49 1.47 1.51 1.57 1.68 1.83 2.02
0.35 0.37 0.43 0.50 0.58 0.51 0.47 0.53 0.59 0.70 0.80 0.93 1.03 1.09 1.21 1.31 1.33 1.33 1.43 1.54 1.57 1.58 1.65 1.65 1.62 1.52 1.47 1.44 1.35 1.35 1.36 1.47 1.53 1.54 1.55 1.43 1.33 1.34 1.27 1.36 1.40 1.42 1.52
0.53 0.59 0.67 0.68 0.66 0.60 0.59 0.67 0.72 0.79 0.85 0.91 1.01 1.08 1.19 1.31 1.42 1.57 1.65 1.70 1.75 1.76 1.76 1.70 1.66 1.63 1.54 1.41 1.27 1.28 1.20 1.26 1.31 1.35 1.37 1.37 1.28 1.26 1.30 1.29 1.21 1.12 1.14
0.58 0.67 0.76 0.80 0.72 0.72 0.74 0.83 0.88 0.98 1.04 1.05 1.15 1.22 1.30 1.42 1.51 1.58 1.70 1.81 1.89 1.87 1.86 1.84 1.86 1.87 1.84 1.71 1.45 1.34 1.30 1.39 1.39 1.38 1.38 1.38 1.28 1.30 1.20 1.17 1.13 1.06 1.03
0.67 0.74 0.75 0.77 0.84 0.86 0.90 0.98 1.06 1.17 1.24 1.24 1.29 1.34 1.47 1.56 1.57 1.57 1.65 1.69 1.75 1.76 1.78 1.75 1.82 1.81 1.83 1.86 1.54 1.32 1.21 1.31 1.36 1.42 1.42 1.43 1.31 1.34 1.27 1.26 1.27 1.18 1.09
0.84 0.81 0.81 0.87 0.89 0.87 0.91 1.02 1.16 1.27 1.33 1.34 1.35 1.41 1.50 1.65 1.68 1.69 1.64 1.58 1.59 1.62 1.67 1.70 1.76 1.79 1.79 1.74 1.41 1.28 1.24 1.34 1.39 1.35 1.31 1.35 1.32 1.17 1.07 1.01 1.04 1.07 1.05
0.98 0.96 0.94 0.92 0.91 0.95 1.01 1.10 1.22 1.27 1.29 1.27 1.30 1.36 1.41 1.43 1.44 1.56 1.61 1.60 1.58 1.60 1.66 1.74 1.76 1.73 1.69 1.58 1.30 1.06 1.04 1.14 1.19 1.21 1.19 1.21 1.15 0.98 0.86 0.76 0.75 0.77 0.75
0.90 0.92 0.95 0.97 1.00 1.06 1.14 1.25 1.28 1.32 1.29 1.34 1.42 1.49 1.50 1.49 1.47 1.49 1.52 1.51 1.47 1.39 1.38 1.50 1.56 1.56 1.60 1.52 1.27 1.03 0.94 0.97 0.96 1.05 1.22 1.21 1.07 0.97 0.89 0.81 0.73 0.66 0.61
0.91 0.92 0.93 0.98 1.09 1.19 1.29 1.30 1.24 1.31 1.45 1.49 1.47 1.45 1.47 1.43 1.41 1.46 1.42 1.38 1.36 1.31 1.25 1.38 1.50 1.57 1.60 1.51 1.34 1.19 1.10 1.06 1.03 1.07 1.21 1.27 1.22 1.13 1.03 0.92 0.75 0.60 0.59
0.88 0.88 0.94 1.01 1.10 1.16 1.24 1.32 1.33 1.36 1.43 1.37 1.27 1.28 1.29 1.23 1.16 1.24 1.31 1.22 1.21 1.26 1.24 1.37 1.56 1.59 1.49 1.38 1.21 1.07 1.07 1.08 1.14 1.16 1.30 1.43 1.44 1.40 1.28 1.12 0.95 0.82 0.77
0.83 0.89 0.91 0.98 1.07 1.11 1.14 1.16 1.19 1.27 1.33 1.33 1.23 1.15 1.09 1.07 1.07 1.11 1.14 1.12 0.99 0.98 0.94 1.01 1.13 1.24 1.18 1.07 0.97 0.89 0.88 0.86 0.88 0.94 1.15 1.42 1.49 1.50 1.47 1.36 1.18 1.03 0.95

GEFSMW_prec_meanprecacc_198.txt.gz
Total_Precipitation_Accumulation
1.69 2.08 2.68 3.56 4.64 5.53 5.80 5.28 4.76 4.40 3.96 3.52 2.96 2.58 2.50 2.38 2.11 1.85 1.57 1.45 1.35 1.39 1.44 1.28 1.37 1.27 1.29 1.31 1.34 1.40 1.40 1.35 1.43 1.61 1.59 1.36 1.17 1.18 1.17 1.22 1.39 1.31 1.30
1.87 2.57 3.59 4.19 4.43 4.55 4.32 3.97 3.70 3.47 3.02 2.62 2.37 2.12 2.06 1.88 1.70 1.60 1.54 1.27 1.17 1.20 1.15 1.24 1.22 1.18 1.28 1.31 1.29 1.30 1.27 1.20 1.25 1.44 1.64 1.44 1.29 1.07 0.85 0.99 1.02 1.08 1.31
2.05 2.85 3.40 3.53 3.26 2.95 2.85 2.79 2.84 2.59 2.45 2.38 2.28 2.16 2.11 1.88 1.62 1.51 1.45 1.22 1.05 1.05 1.08 1.08 1.10 1.19 1.16 1.26 1.28 1.18 1.20 1.23 1.19 1.20 1.47 1.48 1.35 1.14 0.85 0.80 0.89 1.00 1.15
1.57 1.99 2.22 2.12 2.24 2.38 2.38 2.48 2.57 2.31 2.28 2.22 1.93 1.82 1.70 1.56 1.39 1.34 1.35 1.41 1.19 1.05 1.00 0.99 0.98 1.05 1.04 1.22 1.06 1.08 1.20 1.26 1.14 1.06 1.04 1.15 1.20 1.26 1.08 0.88 0.80 0.91 1.01
0.95 1.07 1.20 1.34 1.55 1.66 1.83 2.12 2.36 2.30 2.12 1.95 1.86 1.87 1.72 1.65 1.61 1.63 1.56 1.52 1.41 1.20 1.06 1.06 1.02 1.04 0.99 1.04 1.03 1.23 1.21 1.14 1.08 1.04 1.06 1.11 1.09 1.06 1.10 1.03 0.92 0.88 0.78
0.82 0.86 0.91 1.03 1.20 1.33 1.50 1.75 2.05 2.17 2.09 1.93 1.82 1.80 1.80 1.73 1.64 1.61 1.56 1.40 1.33 1.27 1.14 1.10 1.08 1.02 0.99 0.98 0.98 1.14 1.17 1.20 1.19 1.13 1.04 1.11 1.09 1.07 1.14 1.02 0.88 0.82 0.63
0.84 0.91 0.86 0.82 0.88 1.03 1.19 1.28 1.44 1.69 1.82 1.78 1.72 1.70 1.79 1.68 1.49 1.40 1.30 1.25 1.11 1.03 1.03 1.02 1.03 0.93 0.97 1.05 1.14 1.15 1.14 1.18 1.18 1.11 1.04 1.02 0.92 0.98 1.02 0.92 0.79 0.80 0.67
0.69 0.73 0.72 0.68 0.65 0.72 0.91 1.03 1.21 1.38 1.57 1.57 1.54 1.52 1.56 1.50 1.40 1.37 1.16 1.09 1.05 1.00 1.02 1.03 0.98 0.96 0.99 0.99 1.17 1.09 1.05 1.08 1.08 0.98 1.14 1.10 0.88 0.98 1.04 1.07 1.16 1.03 0.94
0.46 0.54 0.62 0.68 0.66 0.65 0.76 0.87 1.07 1.25 1.42 1.53 1.56 1.48 1.47 1.48 1.45 1.39 1.21 1.06 1.14 1.08 1.15 1.11 1.06 1.05 1.10 1.14 1.22 1.12 1.12 1.17 1.06 1.05 1.20 1.16 1.05 1.07 1.06 1.14 1.31 1.39 1.21
0.37 0.48 0.61 0.64 0.57 0.49 0.57 0.71 0.87 1.09 1.24 1.40 1.43 1.34 1.49 1.47 1.46 1.40 1.27 1.14 1.12 1.12 1.19 1.17 1.12 1.13 1.14 1.20 1.26 1.17 1.20 1.19 1.13 1.17 1.28 1.28 1.21 1.23 1.20 1.19 1.29 1.48 1.46
0.33 0.41 0.50 0.54 0.49 0.42 0.45 0.53 0.70 0.88 0.97 1.08 1.19 1.19 1.26 1.26 1.27 1.31 1.30 1.25 1.23 1.19 1.18 1.17 1.16 1.13 1.16 1.21 1.26 1.21 1.20 1.15 1.18 1.19 1.21 1.21 1.30 1.36 1.35 1.42 1.44 1.48 1.61
0.45 0.41 0.37 0.45 0.55 0.50 0.40 0.47 0.62 0.74 0.80 0.87 0.90 0.96 1.04 1.09 1.09 1.10 1.18 1.26 1.21 1.14 1.18 1.20 1.14 1.04 1.09 1.23 1.26 1.21 1.22 1.22 1.19 1.23 1.34 1.28 1.31 1.41 1.46 1.60 1.58 1.62 1.84
0.35 0.35 0.36 0.42 0.56 0.52 0.44 0.53 0.62 0.68 0.76 0.74 0.79 0.86 0.91 0.93 0.93 0.97 1.08 1.19 1.22 1.22 1.19 1.15 1.06 1.02 1.04 1.10 1.15 1.22 1.31 1.34 1.35 1.39 1.45 1.48 1.59 1.57 1.61 1.67 1.67 1.72 1.93
0.31 0.27 0.32 0.43 0.52 0.53 0.47 0.50 0.61 0.78 0.83 0.81 0.91 1.01 1.03 1.01 1.01 1.01 1.08 1.18 1.25 1.27 1.30 1.29 1.30 1.28 1.22 1.20 1.22 1.29 1.33 1.36 1.41 1.51 1.52 1.54 1.62 1.69 1.77 1.79 1.88 2.01 2.19
0.34 0.32 0.36 0.52 0.57 0.63 0.64 0.62 0.65 0.78 0.93 1.01 1.10 1.25 1.38 1.39 1.27 1.22 1.28 1.34 1.41 1.47 1.61 1.61 1.56 1.55 1.48 1.34 1.39 1.42 1.38 1.48 1.42 1.48 1.51 1.47 1.54 1.62 1.73 1.73 1.89 2.11 2.32
0.37 0.34 0.44 0.58 0.59 0.57 0.58 0.59 0.64 0.72 0.77 0.87 0.96 1.13 1.30 1.37 1.33 1.30 1.39 1.50 1.56 1.68 1.75 1.69 1.66 1.63 1.42 1.52 1.56 1.54 1.61 1.64 1.59 1.60 1.63 1.58 1.52 1.49 1.53 1.61 1.72 1.87 2.06
0.35 0.37 0.43 0.51 0.60 0.53 0.49 0.56 0.64 0.74 0.85 0.98 1.09 1.15 1.27 1.36 1.37 1.34 1.44 1.55 1.58 1.60 1.66 1.66 1.64 1.54 1.49 1.47 1.38 1.39 1.40 1.50 1.56 1.58 1.58 1.46 1.36 1.38 1.31 1.41 1.45 1.47 1.57
0.54 0.59 0.68 0.70 0.68 0.62 0.61 0.68 0.73 0.81 0.87 0.94 1.04 1.11 1.22 1.33 1.43 1.58 1.66 1.72 1.77 1.78 1.77 1.72 1.69 1.65 1.56 1.45 1.31 1.33 1.24 1.29 1.34 1.37 1.40 1.40 1.31 1.30 1.35 1.35 1.28 1.18 1.19
0.59 0.68 0.77 0.82 0.74 0.74 0.76 0.84 0.89 0.99 1.06 1.07 1.17 1.25 1.33 1.46 1.54 1.60 1.72 1.83 1.90 1.88 1.88 1.87 1.88 1.90 1.87 1.76 1.50 1.39 1.34 1.42 1.43 1.42 1.41 1.41 1.31 1.34 1.25 1.22 1.20 1.13 1.09
0.68 0.75 0.77 0.78 0.86 0.88 0.92 1.00 1.07 1.19 1.26 1.27 1.31 1.37 1.51 1.60 1.60 1.60 1.66 1.71 1.77 1.79 1.81 1.78 1.85 1.84 1.87 1.90 1.58 1.37 1.25 1.34 1.39 1.45 1.47 1.49 1.37 1.40 1.32 1.30 1.32 1.23 1.15
0.86 0.84 0.83 0.88 0.90 0.88 0.92 1.05 1.19 1.31 1.37 1.39 1.40 1.46 1.56 1.71 1.72 1.71 1.65 1.59 1.60 1.64 1.69 1.72 1.79 1.82 1.82 1.78 1.45 1.31 1.27 1.37 1.42 1.39 1.37 1.42 1.41 1.25 1.15 1.07 1.08 1.11 1.09
0.99 0.98 0.96 0.93 0.93 0.97 1.03 1.13 1.25 1.31 1.36 1.36 1.39 1.44 1.48 1.49 1.49 1.59 1.63 1.62 1.60 1.62 1.67 1.76 1.78 1.76 1.72 1.61 1.33 1.09 1.07 1.17 1.23 1.25 1.24 1.25 1.20 1.03 0.92 0.81 0.80 0.81 0.77
0.92 0.94 0.97 0.99 1.02 1.08 1.17 1.28 1.32 1.35 1.35 1.41 1.50 1.56 1.56 1.53 1.51 1.52 1.55 1.54 1.49 1.41 1.39 1.51 1.59 1.59 1.62 1.54 1.29 1.05 0.97 1.00 0.99 1.08 1.26 1.25 1.11 1.01 0.94 0.87 0.77 0.69 0.63
0.93 0.95 0.96 1.00 1.12 1.21 1.33 1.34 1.30 1.37 1.50 1.54 1.53 1.51 1.52 1.49 1.46 1.51 1.47 1.42 1.39 1.33 1.27 1.39 1.52 1.58 1.61 1.52 1.35 1.20 1.12 1.09 1.05 1.09 1.23 1.31 1.29 1.20 1.10 0.99 0.81 0.65 0.63
0.89 0.91 0.97 1.05 1.14 1.20 1.28 1.37 1.39 1.43 1.50 1.44 1.32 1.33 1.37 1.32 1.27 1.32 1.35 1.25 1.23 1.28 1.25 1.38 1.58 1.61 1.51 1.40 1.23 1.09 1.09 1.11 1.17 1.19 1.31 1.44 1.46 1.43 1.32 1.16 1.00 0.86 0.81
0.86 0.91 0.96 1.04 1.12 1.16 1.21 1.23 1.26 1.35 1.42 1.43 1.35 1.27 1.21 1.19 1.20 1.20 1.19 1.16 1.01 1.01 0.97 1.03 1.16 1.27 1.22 1.11 1.00 0.92 0.91 0.89 0.91 0.96 1.16 1.43 1.50 1.52 1.49 1.38 1.20 1.05 0.97